[[{"header":{"parameterUnit":"m.s-1","parameterCategory":1,"la1":30.6,"la2":28.766,"lo1":-90.7593,"lo2":-88.6598,"dy":0.0162,"dx":0.0183,"nx":116,"ny":114,"refTime":"2024-05-05T06:00:00:Z","depth":0,"parameterNumber":2,"parameterNumberName":"U-component_of_WINDS"},"data":[0.0,0.0,0.0,0.0,0.0,0.0,0.0,0.0,0.0,0.0,0.0,0.0,0.0,0.0,0.0,0.0,0.0,0.0,0.0,0.0,0.0,0.0,0.0,0.0,0.0,0.0,0.0,0.0,0.0,0.0,0.0,0.0,0.0,0.0,0.0,0.0,0.0,0.0,0.0,0.0,0.0,0.0,0.0,0.0,0.0,0.0,0.0,0.0,0.0,0.0,0.0,0.0,0.0,0.0,0.0,0.0,0.0,0.0,0.0,0.0,0.0,0.0,0.0,0.0,0.0,0.0,0.0,0.0,0.0,0.0,0.0,0.0,0.0,0.0,0.0,0.0,0.0,0.0,0.0,0.0,0.0,0.0,0.0,0.0,0.0,0.0,0.0,0.0,0.0,0.0,0.0,0.0,0.0,0.0,0.0,0.0,0.0,0.0,0.0,0.0,0.0,0.0,0.0,0.0,0.0,0.0,0.0,0.0,0.0,0.0,0.0,0.0,0.0,0.0,0.0,0.0,0.0,0.0,0.0,0.0,0.0,0.0,0.0,0.0,0.0,0.0,0.0,0.0,0.0,0.0,0.0,0.0,0.0,0.0,0.0,0.0,0.0,0.0,0.0,0.0,0.0,0.0,0.0,0.0,0.0,0.0,0.0,0.0,0.0,0.0,0.0,0.0,0.0,0.0,0.0,0.0,0.0,0.0,0.0,0.0,0.0,0.0,0.0,0.0,0.0,0.0,0.0,0.0,0.0,0.0,0.0,0.0,0.0,0.0,0.0,0.0,0.0,0.0,0.0,0.0,0.0,0.0,0.0,0.0,0.0,0.0,0.0,0.0,0.0,0.0,0.0,0.0,0.0,0.0,0.0,0.0,0.0,0.0,0.0,0.0,0.0,0.0,0.0,0.0,0.0,0.0,0.0,0.0,0.0,0.0,0.0,0.0,0.0,0.0,0.0,0.0,0.0,0.0,0.0,0.0,0.0,0.0,0.0,0.0,0.0,0.0,0.0,0.0,0.0,0.0,0.0,0.0,0.0,0.0,0.0,0.0,0.0,0.0,0.0,0.0,0.0,0.0,0.0,0.0,0.0,0.0,0.0,0.0,0.0,0.0,0.0,0.0,0.0,0.0,0.0,0.0,0.0,0.0,0.0,0.0,0.0,0.0,0.0,0.0,0.0,0.0,0.0,0.0,0.0,0.0,0.0,0.0,0.0,0.0,0.0,0.0,0.0,0.0,0.0,0.0,0.0,0.0,0.0,0.0,0.0,0.0,0.0,0.0,0.0,0.0,0.0,0.0,0.0,0.0,0.0,0.0,0.0,0.0,0.0,0.0,0.0,0.0,0.0,0.0,0.0,0.0,0.0,0.0,0.0,0.0,0.0,0.0,0.0,0.0,0.0,0.0,0.0,0.0,0.0,0.0,0.0,0.0,0.0,0.0,0.0,0.0,0.0,0.0,0.0,0.0,0.0,0.0,0.0,0.0,0.0,0.0,0.0,0.0,0.0,0.0,0.0,0.0,0.0,0.0,0.0,0.0,0.0,0.0,0.0,0.0,0.0,0.0,0.0,0.0,0.0,0.0,0.0,0.0,0.0,0.0,0.0,0.0,0.0,0.0,0.0,0.0,0.0,0.0,0.0,0.0,0.0,0.0,0.0,0.0,0.0,0.0,0.0,0.0,0.0,0.0,0.0,0.0,0.0,0.0,0.0,0.0,0.0,0.0,0.0,0.0,0.0,0.0,0.0,0.0,0.0,0.0,0.0,0.0,0.0,0.0,0.0,0.0,0.0,0.0,0.0,0.0,0.0,0.0,0.0,0.0,0.0,0.0,0.0,0.0,0.0,0.0,0.0,0.0,0.0,0.0,0.0,0.0,0.0,0.0,0.0,0.0,0.0,0.0,0.0,0.0,0.0,0.0,0.0,0.0,0.0,0.0,0.0,0.0,0.0,0.0,0.0,0.0,0.0,0.0,0.0,0.0,0.0,0.0,0.0,0.0,0.0,0.0,0.0,0.0,0.0,0.0,0.0,0.0,0.0,0.0,0.0,0.0,0.0,0.0,0.0,0.0,0.0,0.0,0.0,0.0,0.0,0.0,0.0,0.0,0.0,0.0,0.0,0.0,0.0,0.0,0.0,0.0,0.0,0.0,0.0,0.0,0.0,0.0,0.0,0.0,0.0,0.0,0.0,0.0,0.0,0.0,0.0,0.0,0.0,0.0,0.0,0.0,0.0,0.0,0.0,0.0,0.0,0.0,0.0,0.0,0.0,0.0,0.0,0.0,0.0,0.0,0.0,0.0,0.0,0.0,0.0,0.0,0.0,0.0,0.0,0.0,0.0,0.0,0.0,0.0,0.0,0.0,0.0,0.0,0.0,0.0,0.0,0.0,0.0,0.0,0.0,0.0,0.0,0.0,0.0,0.0,0.0,0.0,0.0,0.0,0.0,0.0,0.0,0.0,0.0,0.0,0.0,0.0,0.0,0.0,0.0,0.0,0.0,0.0,0.0,0.0,0.0,0.0,0.0,0.0,0.0,0.0,0.0,0.0,0.0,0.0,0.0,0.0,0.0,0.0,0.0,0.0,0.0,0.0,0.0,0.0,0.0,0.0,0.0,0.0,0.0,0.0,0.0,0.0,0.0,0.0,0.0,0.0,0.0,0.0,0.0,0.0,0.0,0.0,0.0,0.0,0.0,0.0,0.0,0.0,0.0,0.0,0.0,0.0,0.0,0.0,0.0,0.0,0.0,0.0,0.0,0.0,0.0,0.0,0.0,0.0,0.0,0.0,0.0,0.0,0.0,0.0,0.0,0.0,0.0,0.0,0.0,0.0,0.0,0.0,0.0,0.0,0.0,0.0,0.0,0.0,0.0,0.0,0.0,0.0,0.0,0.0,0.0,0.0,0.0,0.0,0.0,0.0,0.0,0.0,0.0,0.0,0.0,0.0,0.0,0.0,0.0,0.0,0.0,0.0,0.0,0.0,0.0,0.0,0.0,0.0,0.0,0.0,0.0,0.0,0.0,0.0,0.0,0.0,0.0,0.0,0.0,0.0,0.0,0.0,0.0,0.0,0.0,0.0,0.0,0.0,0.0,0.0,0.0,0.0,0.0,0.0,0.0,0.0,0.0,0.0,0.0,0.0,0.0,0.0,0.0,0.0,0.0,0.0,0.0,0.0,0.0,0.0,0.0,0.0,0.0,0.0,0.0,0.0,0.0,0.0,0.0,0.0,0.0,0.0,0.0,0.0,0.0,0.0,0.0,0.0,0.0,0.0,0.0,0.0,0.0,0.0,0.0,0.0,0.0,0.0,0.0,0.0,0.0,0.0,0.0,0.0,0.0,0.0,0.0,0.0,0.0,0.0,0.0,0.0,0.0,0.0,0.0,0.0,0.0,0.0,0.0,0.0,0.0,0.0,0.0,0.0,0.0,0.0,0.0,0.0,0.0,0.0,0.0,0.0,0.0,0.0,0.0,0.0,0.0,0.0,0.0,0.0,0.0,0.0,0.0,0.0,0.0,0.0,0.0,0.0,0.0,0.0,0.0,0.0,0.0,0.0,0.0,0.0,0.0,0.0,0.0,0.0,0.0,0.0,0.0,0.0,0.0,0.0,0.0,0.0,0.0,0.0,0.0,0.0,0.0,0.0,0.0,0.0,0.0,0.0,0.0,0.0,0.0,0.0,0.0,0.0,0.0,0.0,0.0,0.0,0.0,0.0,0.0,0.0,0.0,0.0,0.0,0.0,0.0,0.0,0.0,0.0,0.0,0.0,0.0,0.0,0.0,0.0,0.0,0.0,0.0,0.0,0.0,0.0,0.0,0.0,0.0,0.0,0.0,0.0,0.0,0.0,0.0,0.0,0.0,0.0,0.0,0.0,0.0,0.0,0.0,0.0,0.0,0.0,0.0,0.0,0.0,0.0,0.0,0.0,0.0,0.0,0.0,0.0,0.0,0.0,0.0,0.0,0.0,0.0,0.0,0.0,0.0,0.0,0.0,0.0,0.0,0.0,0.0,0.0,0.0,0.0,0.0,0.0,0.0,0.0,0.0,0.0,0.0,0.0,0.0,0.0,0.0,0.0,0.0,0.0,0.0,0.0,0.0,0.0,0.0,0.0,0.0,0.0,0.0,0.0,0.0,0.0,0.0,0.0,0.0,0.0,0.0,0.0,0.0,0.0,0.0,0.0,0.0,0.0,0.0,0.0,0.0,0.0,0.0,0.0,0.0,0.0,0.0,0.0,0.0,0.0,0.0,0.0,0.0,0.0,0.0,0.0,0.0,0.0,0.0,0.0,0.0,0.0,0.0,0.0,0.0,0.0,0.0,0.0,0.0,0.0,0.0,0.0,0.0,0.0,0.0,0.0,0.0,0.0,0.0,0.0,0.0,0.0,0.0,0.0,0.0,0.0,0.0,0.0,0.0,0.0,0.0,0.0,0.0,0.0,0.0,0.0,0.0,0.0,0.0,0.0,0.0,0.0,0.0,0.0,0.0,0.0,0.0,0.0,0.0,0.0,0.0,0.0,0.0,0.0,0.0,0.0,0.0,0.0,0.0,0.0,0.0,0.0,0.0,0.0,0.0,0.0,0.0,0.0,0.0,0.0,0.0,0.0,0.0,0.0,0.0,0.0,0.0,0.0,0.0,0.0,0.0,0.0,0.0,0.0,0.0,0.0,0.0,0.0,0.0,0.0,0.0,0.0,0.0,0.0,0.0,0.0,0.0,0.0,0.0,0.0,0.0,0.0,0.0,0.0,0.0,0.0,0.0,0.0,0.0,0.0,0.0,0.0,0.0,0.0,0.0,0.0,0.0,0.0,0.0,0.0,0.0,0.0,0.0,0.0,0.0,0.0,0.0,0.0,0.0,0.0,0.0,0.0,0.0,0.0,0.0,0.0,0.0,0.0,0.0,0.0,0.0,0.0,0.0,0.0,0.0,0.0,0.0,0.0,0.0,0.0,0.0,0.0,0.0,0.0,0.0,0.0,0.0,0.0,0.0,0.0,0.0,0.0,0.0,0.0,0.0,0.0,0.0,0.0,0.0,0.0,0.0,0.0,0.0,0.0,0.0,0.0,0.0,0.0,0.0,0.0,0.0,0.0,0.0,0.0,0.0,0.0,0.0,0.0,0.0,0.0,0.0,0.0,0.0,0.0,0.0,0.0,0.0,0.0,0.0,0.0,0.0,0.0,0.0,0.0,0.0,0.0,0.0,0.0,0.0,0.0,0.0,0.0,0.0,0.0,0.0,0.0,0.0,0.0,0.0,0.0,0.0,0.0,0.0,0.0,0.0,0.0,0.0,0.0,0.0,0.0,0.0,0.0,0.0,0.0,0.0,0.0,0.0,0.0,0.0,0.0,0.0,0.0,0.0,0.0,0.0,0.0,0.0,0.0,0.0,0.0,0.0,0.0,0.0,0.0,0.0,0.0,0.0,0.0,0.0,0.0,0.0,0.0,0.0,0.0,0.0,0.0,0.0,0.0,0.0,0.0,0.0,0.0,0.0,0.0,0.0,0.0,0.0,0.0,0.0,0.0,0.0,0.0,0.0,0.0,0.0,0.0,0.0,0.0,0.0,0.0,0.0,0.0,0.0,0.0,0.0,0.0,0.0,0.0,0.0,0.0,0.0,0.0,0.0,0.0,0.0,0.0,0.0,0.0,0.0,0.0,0.0,0.0,0.0,0.0,0.0,0.0,0.0,0.0,0.0,0.0,0.0,0.0,0.0,0.0,0.0,0.0,0.0,0.0,0.0,0.0,0.0,0.0,0.0,0.0,0.0,0.0,0.0,0.0,0.0,0.0,0.0,0.0,0.0,0.0,0.0,0.0,0.0,0.0,0.0,0.0,0.0,0.0,0.0,0.0,0.0,0.0,0.0,0.0,0.0,0.0,0.0,0.0,0.0,0.0,0.0,0.0,0.0,0.0,0.0,0.0,0.0,0.0,0.0,0.0,0.0,0.0,0.0,0.0,0.0,0.0,0.0,0.0,0.0,0.0,0.0,0.0,0.0,0.0,0.0,0.0,0.0,0.0,0.0,0.0,0.0,0.0,0.0,0.0,0.0,0.0,0.0,0.0,0.0,0.0,0.0,0.0,0.0,0.0,0.0,0.0,0.0,0.0,-3.8924,0.0,0.0,0.0,0.0,0.0,0.0,0.0,0.0,0.0,0.0,0.0,0.0,0.0,0.0,0.0,0.0,0.0,0.0,0.0,0.0,0.0,0.0,0.0,0.0,-3.47,-3.4839,-3.4329,-3.5242,-3.5797,-3.569,0.0,0.0,0.0,0.0,0.0,-3.2994,-3.2475,-3.2546,-3.3144,-3.2978,-3.2743,-3.2346,-3.2229,-3.2824,-3.4021,0.0,0.0,0.0,0.0,0.0,0.0,0.0,0.0,0.0,0.0,0.0,0.0,0.0,0.0,0.0,0.0,0.0,0.0,0.0,0.0,0.0,0.0,0.0,0.0,0.0,0.0,0.0,0.0,0.0,0.0,0.0,0.0,0.0,0.0,0.0,0.0,0.0,0.0,0.0,0.0,0.0,0.0,0.0,0.0,0.0,0.0,0.0,0.0,0.0,0.0,0.0,0.0,0.0,0.0,0.0,0.0,0.0,0.0,0.0,0.0,0.0,0.0,0.0,0.0,0.0,0.0,0.0,0.0,0.0,0.0,0.0,-3.8761,0.0,0.0,0.0,0.0,0.0,0.0,0.0,0.0,0.0,0.0,0.0,0.0,0.0,0.0,0.0,0.0,0.0,0.0,0.0,0.0,0.0,-3.3456,-3.3535,-3.3542,-3.3326,-3.2853,-3.3434,-3.4014,-3.4512,-3.4669,0.0,0.0,-3.2648,-3.1983,-3.0771,-3.0927,-3.0851,-3.0531,-3.068,-3.0463,-2.995,-3.0231,-3.1119,-3.2497,-3.3874,0.0,0.0,0.0,0.0,0.0,0.0,0.0,0.0,0.0,0.0,0.0,0.0,0.0,0.0,0.0,0.0,0.0,0.0,0.0,0.0,0.0,0.0,0.0,0.0,0.0,0.0,0.0,0.0,0.0,0.0,0.0,0.0,0.0,0.0,0.0,0.0,0.0,0.0,0.0,0.0,0.0,0.0,0.0,0.0,0.0,0.0,0.0,0.0,0.0,0.0,0.0,0.0,0.0,0.0,0.0,0.0,0.0,0.0,0.0,0.0,0.0,0.0,0.0,-4.2443,-4.2435,-4.2905,-4.2155,-4.1873,-4.1833,-4.0681,-4.0657,-4.1273,-3.8907,0.0,0.0,0.0,0.0,0.0,0.0,0.0,0.0,0.0,0.0,0.0,0.0,0.0,0.0,0.0,0.0,0.0,0.0,0.0,-3.2423,-3.2492,-3.265,-3.2241,-3.0978,-3.2254,-3.3024,-3.274,-3.3936,-3.3948,-3.2367,-3.2052,-3.1598,-3.0995,-2.9769,-2.9292,-2.9504,-2.829,-2.7517,-2.7239,-2.8797,-2.9656,-2.9999,-3.2298,-3.3351,-3.3513,0.0,0.0,0.0,0.0,0.0,0.0,0.0,0.0,0.0,0.0,0.0,0.0,0.0,0.0,0.0,0.0,0.0,0.0,0.0,0.0,0.0,0.0,0.0,0.0,0.0,0.0,0.0,0.0,0.0,0.0,0.0,0.0,0.0,0.0,0.0,0.0,0.0,0.0,0.0,0.0,0.0,-4.4807,-4.5513,0.0,0.0,0.0,0.0,0.0,0.0,0.0,0.0,0.0,0.0,0.0,0.0,0.0,-4.3941,-4.3894,-4.5627,-4.6238,-4.5778,-4.6263,-4.6244,-4.5763,-4.5041,-4.4759,-4.4698,-4.3436,0.0,-4.0447,-4.0053,0.0,0.0,0.0,0.0,0.0,0.0,0.0,0.0,0.0,0.0,0.0,0.0,0.0,0.0,0.0,0.0,0.0,0.0,0.0,0.0,0.0,-3.1114,-3.0527,-3.0142,-3.0701,-3.1181,-3.1439,-3.2312,-3.2054,-3.0375,-3.0482,-2.9592,-2.7564,-2.7331,-2.7258,-2.732,-2.6869,-2.6738,-2.6958,-2.7957,-2.8438,-2.8539,-3.0889,-3.2227,-3.2878,-3.4307,0.0,0.0,0.0,0.0,0.0,0.0,0.0,0.0,0.0,0.0,0.0,0.0,0.0,0.0,0.0,0.0,0.0,0.0,0.0,0.0,0.0,0.0,0.0,0.0,0.0,0.0,0.0,0.0,0.0,0.0,0.0,0.0,0.0,0.0,0.0,0.0,0.0,0.0,0.0,-4.2917,-4.4327,-4.4278,-4.4445,-4.3585,0.0,0.0,0.0,0.0,0.0,0.0,0.0,0.0,0.0,-4.5036,-4.5672,-4.6181,-4.6539,-4.7801,-4.8084,-4.745,-4.7752,-4.7519,-4.686,-4.6561,-4.604,-4.5332,-4.4775,-4.3401,-4.1439,-3.9945,-3.8818,-3.7813,0.0,0.0,0.0,0.0,-3.4692,-3.4269,0.0,0.0,0.0,0.0,0.0,0.0,0.0,0.0,0.0,0.0,0.0,0.0,-3.0005,-2.9001,-2.8362,-2.8484,-2.8873,-2.9378,-2.9923,-3.0802,-3.0636,-2.8997,-2.9037,-2.7914,-2.5366,-2.5004,-2.4855,-2.4816,-2.4952,-2.55,-2.6455,-2.7129,-2.748,-2.7569,-2.9536,-3.0955,-3.1937,-3.3341,-3.3667,-3.341,0.0,0.0,0.0,0.0,0.0,0.0,0.0,0.0,0.0,0.0,0.0,0.0,0.0,0.0,0.0,0.0,0.0,0.0,0.0,0.0,0.0,0.0,0.0,0.0,0.0,0.0,0.0,0.0,0.0,0.0,0.0,0.0,0.0,0.0,0.0,0.0,0.0,-4.3976,-4.4659,-4.3368,-4.4984,-4.4527,0.0,0.0,0.0,0.0,0.0,0.0,-4.5503,-4.5721,-4.6338,-4.7513,-4.8019,-4.852,-4.9045,-4.9523,-4.9434,-4.8775,-4.8626,-4.8044,-4.7081,-4.6903,-4.6121,-4.4886,-4.4581,-4.3631,-4.2105,-4.0142,-3.9131,-3.86,-3.641,-3.543,-3.5244,-3.5484,-3.5013,-3.4496,0.0,0.0,0.0,0.0,0.0,0.0,0.0,0.0,0.0,0.0,0.0,-2.7967,-2.6861,-2.6196,-2.5627,-2.5012,-2.6771,-2.7899,-2.7931,-2.9984,-3.065,-2.9409,-2.8278,-2.7368,-2.6712,-2.3503,-2.1922,-2.211,-2.1749,-2.2584,-2.4579,-2.6176,-2.6936,-2.6982,-2.8186,-2.9258,-3.027,-3.2451,-3.3545,-3.3835,-3.3328,0.0,0.0,0.0,0.0,0.0,0.0,0.0,0.0,0.0,0.0,0.0,0.0,0.0,0.0,0.0,0.0,0.0,0.0,0.0,0.0,0.0,0.0,0.0,0.0,0.0,0.0,0.0,0.0,0.0,0.0,0.0,0.0,0.0,0.0,0.0,0.0,0.0,0.0,-4.4221,-4.7334,0.0,0.0,0.0,0.0,-4.4977,-4.6291,-4.7636,-4.8906,-4.9641,-5.0269,-5.0917,-5.1006,-5.099,-5.1079,-5.1109,-5.0734,-5.0076,-4.9523,-4.8265,-4.642,-4.5768,-4.4794,-4.3551,-4.2301,-4.1739,-4.1656,-4.1412,-4.0618,-3.9333,-3.8059,-3.7085,-3.6252,-3.5044,-3.4748,-3.4871,0.0,0.0,0.0,0.0,0.0,-3.1542,-3.0082,-2.9345,-2.8602,-2.7618,-2.5937,-2.5033,-2.5557,-2.3758,-2.2809,-2.3406,-2.4301,-2.4987,-2.5271,-2.6841,-2.7341,-2.6401,-2.5985,-2.4855,-2.2849,-2.0858,-1.9985,-2.0228,-2.0818,-2.147,-2.2228,-2.3134,-2.4017,-2.488,-2.6396,-2.7708,-2.8993,-3.0979,-3.1672,-3.1483,-3.2792,-3.3513,0.0,0.0,0.0,0.0,0.0,0.0,0.0,0.0,0.0,0.0,0.0,0.0,0.0,0.0,0.0,0.0,0.0,0.0,0.0,0.0,0.0,0.0,0.0,0.0,0.0,0.0,0.0,0.0,0.0,0.0,0.0,0.0,0.0,0.0,0.0,0.0,0.0,-4.6927,-4.9563,0.0,-4.6431,-4.7583,-4.8194,-4.7258,-4.8827,-5.0183,-5.106,-5.1361,-5.181,-5.2456,-5.2067,-5.1858,-5.1858,-5.1439,-5.0258,-4.8419,-4.8185,-4.6835,-4.4518,-4.4322,-4.3504,-4.2279,-4.1789,-4.1119,-4.0338,-3.999,-3.931,-3.8381,-3.6858,-3.6115,-3.5819,-3.5328,-3.5041,-3.4851,0.0,0.0,0.0,-3.3301,-3.2452,-3.1501,-3.0016,-2.888,-2.7613,-2.6064,-2.3995,-2.2719,-2.2819,-2.1214,-2.0473,-2.138,-2.2316,-2.3083,-2.3552,-2.5125,-2.5693,-2.4893,-2.4168,-2.2381,-1.9457,-1.8913,-1.8846,-1.9241,-2.0036,-2.0748,-2.1377,-2.1674,-2.2367,-2.3319,-2.4481,-2.5724,-2.7171,-2.8785,-3.0114,-3.1182,-3.2197,-3.3108,-3.3751,0.0,0.0,0.0,0.0,0.0,0.0,0.0,0.0,0.0,0.0,0.0,0.0,0.0,0.0,0.0,0.0,0.0,0.0,0.0,0.0,0.0,0.0,0.0,0.0,0.0,0.0,0.0,0.0,0.0,0.0,0.0,0.0,0.0,0.0,-4.7259,-4.9151,-4.8091,-5.11,-5.1941,-4.8602,-5.0302,-5.1273,-5.0377,-5.1498,-5.2516,-5.3174,-5.3204,-5.3414,-5.3832,-5.2995,-5.2546,-5.2546,-5.119,-4.9498,-4.7384,-4.6928,-4.534,-4.2882,-4.2882,-4.2181,-4.0995,-4.0995,-4.0388,-3.9371,-3.8818,-3.8241,-3.7613,-3.6533,-3.606,-3.6081,-3.5881,-3.5579,-3.5303,0.0,-3.5454,-3.447,-3.3194,-3.2485,-3.1593,-3.0087,-2.9053,-2.7103,-2.3462,-2.2476,-2.1185,-1.8618,-1.8498,-1.8625,-1.8685,-2.0832,-2.2353,-2.2847,-2.507,-2.5925,-2.5038,-2.2801,-2.0138,-1.709,-1.7623,-1.8311,-1.9063,-1.9063,-2.0123,-2.1977,-2.1977,-2.2156,-2.2429,-2.2445,-2.3349,-2.4873,-2.6091,-2.916,-3.3069,-3.1353,-3.2644,-3.5414,0.0,0.0,0.0,0.0,0.0,0.0,0.0,0.0,0.0,0.0,0.0,0.0,0.0,0.0,0.0,0.0,0.0,0.0,0.0,0.0,0.0,0.0,0.0,0.0,0.0,0.0,0.0,0.0,0.0,0.0,0.0,0.0,0.0,-4.5406,-4.8313,-4.9691,-4.7815,-5.2127,-5.3982,-5.0734,-5.2755,-5.4251,-5.4251,-5.4251,-5.4551,-5.5149,-5.5179,-5.5179,-5.5179,-5.3892,-5.3204,-5.3125,-5.0544,-4.8576,-4.7289,-4.5888,-4.3927,-4.1541,-4.1541,-4.0895,-3.9697,-3.9697,-3.9371,-3.8818,-3.8241,-3.7688,-3.7186,-3.7161,-3.7136,-3.7061,-3.6581,-3.6355,-3.6254,-3.6237,-3.5323,-3.4156,-3.2857,-3.2179,-3.1253,-2.9642,-2.7945,-2.5889,-2.3248,-2.0035,-1.7849,-1.7573,-1.5742,-1.5052,-1.6222,-1.798,-1.9316,-1.9931,-2.1842,-2.2348,-2.1055,-1.9067,-1.7041,-1.5019,-1.4503,-1.4965,-1.6466,-1.6668,-1.7714,-1.9493,-1.9493,-2.0066,-2.1048,-2.1331,-2.2912,-2.5306,-2.5933,-2.8113,-3.1053,-3.0395,-3.0791,-3.1766,0.0,0.0,0.0,0.0,0.0,0.0,0.0,0.0,0.0,0.0,0.0,0.0,0.0,0.0,0.0,0.0,0.0,0.0,0.0,0.0,0.0,0.0,0.0,0.0,0.0,0.0,0.0,0.0,0.0,0.0,0.0,-4.412,-4.6377,-4.7365,-5.0773,-5.3296,-5.3702,-5.5418,-5.6226,-5.5299,-5.5448,-5.5448,-5.497,-5.5359,-5.5508,-5.5209,-5.5179,-5.5179,-5.5179,-5.4371,-5.3208,-5.167,-5.0535,-4.8069,-4.4501,-4.4125,-4.2624,-4.0211,-4.0211,-4.0032,-3.9697,-3.9697,-3.9371,-3.8818,-3.8241,-3.7688,-3.7136,-3.6782,-3.6332,-3.5934,-3.5784,-3.5253,-3.45,-3.6156,-3.5141,-3.3783,-3.2705,-3.2231,-3.1461,-2.9903,-2.8047,-2.5718,-2.2638,-1.9596,-1.7256,-1.6024,-1.5079,-1.4789,-1.5542,-1.7456,-1.8801,-1.9169,-2.0217,-2.0017,-1.8116,-1.661,-1.5126,-1.3645,-1.3059,-1.3402,-1.4603,-1.5456,-1.6496,-1.7685,-1.8328,-1.9166,-2.006,-2.0287,-2.1694,-2.3892,-2.4789,-2.6444,-2.8602,-2.9021,-2.9981,-3.1087,-3.0616,-3.0922,-3.1645,-3.2364,-3.3473,-3.4784,-3.5965,0.0,0.0,0.0,0.0,0.0,0.0,0.0,0.0,0.0,0.0,0.0,0.0,0.0,0.0,0.0,0.0,0.0,0.0,0.0,0.0,0.0,0.0,0.0,0.0,-4.6021,-4.8373,-4.9719,-5.2157,-5.4461,-5.6346,-5.7124,-5.7633,-5.7902,-5.7094,-5.6406,-5.6017,-5.5837,-5.5598,-5.5209,-5.5179,-5.5179,-5.5179,-5.3938,-5.2573,-5.1084,-4.9277,-4.6709,-4.3358,-4.2788,-4.1542,-3.9697,-3.9697,-3.9697,-3.9672,-3.9446,-3.9019,-3.8467,-3.7889,-3.7337,0.0,0.0,0.0,0.0,0.0,-3.465,-3.3847,-3.5797,-3.4844,-3.3494,-3.2682,-3.2452,-3.1881,-3.0526,-2.8803,-2.6181,-2.2116,-2.05,-1.8451,-1.5141,-1.602,-1.6688,-1.6281,-1.8514,-1.9907,-1.9869,-1.9736,-1.8522,-1.6009,-1.4972,-1.3802,-1.2384,-1.2327,-1.2656,-1.3305,-1.4911,-1.6004,-1.6563,-1.8205,-1.9118,-1.943,-1.943,-2.0199,-2.1699,-2.2983,-2.4544,-2.6209,-2.7511,-2.9597,-3.1728,-3.0482,-3.0422,-3.1066,-3.1677,-3.2449,-3.3587,-3.5926,0.0,0.0,0.0,0.0,0.0,0.0,0.0,0.0,0.0,0.0,0.0,0.0,0.0,0.0,0.0,0.0,0.0,0.0,0.0,0.0,0.0,0.0,0.0,0.0,-4.8196,-5.0794,-5.2247,-5.2995,-5.4311,-5.6795,-5.7633,-5.8231,-5.883,-5.7723,-5.6944,-5.6885,-5.5897,-5.5269,-5.5179,-5.5027,0.0,0.0,0.0,-5.1385,-5.0623,-4.7486,-4.4967,-4.3178,-4.1892,-4.0752,-3.9697,-3.9697,-3.9697,-3.9672,-3.917,-3.8592,-3.7965,-3.7487,-3.6958,-3.6405,-3.6279,-3.5881,-3.5332,-3.4731,-3.4223,-3.3796,-3.4956,-3.4193,-3.3247,-3.2766,-3.2334,-3.168,-3.0555,-2.8564,-2.6341,-2.3835,-2.1454,-1.9713,-1.8889,-1.8526,-1.8388,-1.8472,-1.992,-2.0703,-2.0332,-1.9358,-1.7453,-1.4301,-1.3329,-1.1802,-0.9548,-0.9581,-1.0469,-1.2122,-1.3692,-1.5284,-1.695,-1.8558,-1.9319,-1.943,-1.943,-2.0199,-2.1643,-2.1911,-2.3599,-2.61,-2.6427,-2.7527,-2.9137,-2.9488,-2.987,-3.0522,-3.244,-3.4078,-3.5385,-3.6541,-3.7181,-3.7529,-3.8103,-3.798,0.0,0.0,0.0,0.0,0.0,0.0,0.0,0.0,0.0,0.0,0.0,0.0,0.0,0.0,0.0,0.0,0.0,0.0,0.0,-4.6641,-4.9179,-5.1678,-5.3563,-5.4371,-5.5359,-5.6915,-5.7214,-5.7334,-5.7483,-5.6795,-5.6137,-5.5598,-5.5837,-5.5748,-5.5209,-5.4068,-5.3413,-5.3413,-5.1403,-4.9471,-4.7729,-4.6593,-4.4535,-4.1679,0.0,0.0,-3.9697,-3.9697,-3.9697,-3.9697,-3.9572,-3.8944,-3.799,-3.7889,-3.7262,-3.6329,-3.5378,-3.4977,-3.4731,-3.3771,-3.3319,-3.3244,-3.414,-3.3842,-3.3379,-3.2999,-3.2763,-3.2264,-3.1253,-2.9829,-2.789,-2.5069,-2.3296,-2.1745,-2.022,-2.0267,-2.0427,-2.0448,-2.1865,-2.2122,-2.0671,-2.0059,-1.8232,-1.4777,-1.3139,-1.1465,-0.9716,-0.9854,-1.054,-1.1782,-1.4092,-1.5818,-1.702,-1.8648,-1.943,-1.943,-1.943,-1.9809,-2.0544,-2.1421,-2.2669,-2.4215,-2.5937,-2.7049,-2.7768,-2.8589,-2.9609,-3.0831,-3.2695,-3.445,-3.6137,-3.7847,-3.8282,-3.8273,-3.8785,-3.9203,-3.9073,0.0,0.0,0.0,0.0,0.0,0.0,0.0,0.0,0.0,0.0,0.0,0.0,0.0,0.0,-4.0208,-4.1981,0.0,-4.6962,-4.9328,-5.1409,-5.3054,-5.4072,-5.5059,-5.576,-5.5913,-5.627,-5.6476,-5.6476,-5.5889,-5.5535,-5.5667,-5.5012,-5.4472,-5.4097,-5.2669,-5.1835,-5.1835,-4.9858,-4.8183,-4.6928,-4.5571,-4.3687,-4.1275,-4.1275,-4.0752,-3.9697,-3.9697,-3.9697,-3.9672,-3.9094,-3.8542,-3.7965,-3.7412,-3.6908,-3.6304,-3.5152,-3.468,-3.46,-3.3495,-3.3111,-3.3111,-3.3581,-3.3629,-3.3587,-3.3291,-3.3196,-3.2905,-3.2004,-3.1196,-2.9595,-2.6542,-2.5673,-2.4419,-2.1981,-2.2715,-2.331,-2.3071,-2.3864,-2.3517,-2.1441,-2.1232,-1.96,-1.6033,-1.3963,-1.2435,-1.1432,-1.1327,-1.1566,-1.2122,-1.4917,-1.649,-1.695,-1.89,-1.9809,-1.9809,-2.0155,-2.0298,-2.0484,-2.1902,-2.2674,-2.3273,-2.6007,-2.7293,-2.7636,-2.8298,-2.9742,-3.154,-3.2967,-3.4618,-3.6534,-3.8956,-3.9268,-3.8746,-3.9437,-4.0279,-4.0363,-3.6891,-3.8394,0.0,0.0,0.0,0.0,0.0,0.0,0.0,0.0,-3.393,-3.5115,-3.7682,-3.9588,-4.1726,-4.4984,-4.6869,-4.8875,-5.1827,-5.3367,-5.4251,-5.4371,-5.5299,-5.5708,-5.4912,-5.5154,-5.5444,-5.5337,-5.4537,-5.4371,-5.5224,-5.3603,-5.2562,-5.2562,-5.0987,-5.0131,-5.0268,-4.811,-4.6791,-4.6425,-4.4566,-4.2861,-4.1275,-4.1275,-4.0752,-3.9697,-3.9697,-3.9697,-3.9647,-3.8492,-3.8015,-3.7914,-3.6857,-3.6405,-3.6304,-3.5152,-3.468,-3.46,-3.3495,-3.3111,-3.3111,-3.3509,-3.3581,-3.3545,-3.3321,-3.3262,-3.2952,-3.2266,-3.1271,-3.018,-2.9027,-2.8563,-2.8008,-2.7205,-2.769,-2.7877,-2.7428,-2.5546,-2.4016,-2.318,-2.2513,-2.0688,-1.7412,-1.6157,-1.5011,-1.3993,-1.307,-1.2842,-1.3305,-1.5345,-1.6396,-1.6621,-1.9846,-2.1358,-2.1415,-2.2702,-2.3553,-2.3918,-2.4122,-2.5178,-2.6707,-2.7104,-2.8107,-2.9327,-2.9397,-3.0596,-3.2437,-3.3886,-3.5373,-3.6928,-3.9039,-3.8995,-3.8358,-3.9979,-4.0075,-3.9393,-3.8272,-3.7793,-3.696,-3.4135,-3.333,-3.3361,-3.3799,-3.2928,-3.2913,0.0,-3.7216,-3.7772,-4.0932,-4.4238,-4.6687,-4.7174,-4.9408,-5.1592,-5.2555,-5.3545,-5.4431,-5.4999,-5.5209,-5.5204,-5.4829,-5.4374,-5.4025,-5.3712,-5.2126,-5.1433,-5.2073,-5.1405,-5.0989,-5.0989,-4.9135,-4.8262,-4.8736,-4.5814,-4.4453,-4.4825,-4.3702,-4.2484,-4.1275,-4.1275,-4.0752,-3.9697,-3.9697,-3.9697,-3.9647,-3.8492,-3.8015,-3.7914,-3.6857,-3.6405,-3.6304,-3.5152,-3.468,-3.46,-3.3495,-3.3111,-3.3111,-3.3495,-3.3538,-3.353,-3.3545,-3.3536,-3.3321,-3.2603,-3.2121,-3.1324,-2.9995,-2.9674,-2.9358,-2.8767,-2.8704,-2.8622,-2.8377,-2.8024,-2.7173,-2.5589,-2.5462,-2.4472,-2.2239,-1.9991,-1.8551,-1.8184,-1.7492,-1.7187,-1.7219,-1.912,-2.0117,-2.0451,-2.2081,-2.3287,-2.4055,-2.4717,-2.5078,-2.5252,-2.5478,-2.5713,-2.603,-2.7142,-2.8147,-2.9104,-3.0937,-3.2057,-3.2734,-3.3553,-3.5482,0.0,-3.825,-3.8111,-3.7848,-3.8553,-3.8887,-3.8598,-3.658,-3.7128,-3.837,-3.8111,-3.6222,-3.4629,-3.6099,-3.5198,-3.4357,-3.5908,-3.7021,-3.8532,-4.1128,-4.4407,-4.7159,-4.8353,-5.0566,-5.2597,-5.3783,-5.5054,-5.5867,-5.5777,-5.5777,-5.5264,-5.3794,-5.351,-5.3345,-5.3425,-5.2064,-5.132,-5.1568,-5.0256,-4.9395,-4.9395,-4.7487,-4.652,-4.6751,-4.4839,-4.3915,-4.4141,-4.3062,-4.2108,-4.1275,-4.0949,-4.045,-3.9697,-3.9697,-3.9346,-3.8693,-3.8216,-3.7638,-3.701,-3.6606,-3.6405,-3.6329,-3.5504,-3.4956,-3.46,-3.3495,-3.3111,-3.3111,-3.3466,-3.3495,-3.3538,-3.3615,-3.3712,-3.3564,-3.2972,-3.2862,-3.2374,-3.1044,-3.072,-3.0349,-2.9802,-2.9263,-2.9038,-2.9327,-2.9786,-2.9456,-2.8087,-2.8383,-2.8068,-2.6867,-2.449,-2.3276,-2.3374,-2.276,-2.25,-2.2553,-2.3668,-2.4455,-2.4881,-2.5343,-2.6064,-2.7012,-2.7405,-2.7641,-2.7776,-2.8029,-2.7826,-2.7448,-2.8975,-2.9815,-3.0277,-3.2274,-3.3071,-3.3209,-3.3674,-3.5276,-3.7202,-3.6914,-3.6768,-3.6663,-3.6865,-3.7279,-3.7259,-3.5057,-3.5863,-3.7853,-3.9349,-3.7872,-3.6246,-3.7617,-3.7245,-3.6391,-3.5707,-3.7301,-3.9584,-4.1614,-4.4546,-4.7268,-4.8877,-5.1147,-5.3129,-5.4232,-5.5904,-5.6885,-5.6256,-5.6218,-5.5537,-5.371,-5.3373,-5.3395,-5.3499,-5.184,-5.0637,-5.0398,-4.879,-4.786,-4.786,-4.6188,-4.5321,-4.5472,-4.4242,-4.3564,-4.3564,-4.269,-4.1806,-4.105,-4.0701,-4.0224,-3.9697,-3.9546,-3.9019,-3.8241,-3.7914,-3.7337,-3.6631,-3.648,-3.6405,-3.6329,-3.5579,-3.5031,-3.46,-3.3495,-3.3111,-3.3111,-3.3393,-3.3452,-3.3509,-3.3509,-3.3601,-3.3615,-3.3321,-3.3247,-3.3045,-3.2682,-3.2127,-3.1588,-3.1196,-3.0192,-3.0087,-3.1406,-3.0147,-2.9649,-3.0455,-3.077,-3.0707,-3.017,-2.9569,-2.9343,-2.9616,-2.8454,-2.8297,-2.9194,-2.8428,-2.8348,-2.9034,-2.9617,-2.9921,-3.0025,-3.1433,-3.2374,-3.279,-3.279,-3.3027,-3.3409,-3.395,-3.4203,-3.4114,-3.3182,-3.3384,-3.4215,-3.4921,-3.476,-3.4308,-3.4989,-3.4834,-3.45,-3.5224,-3.5315,-3.504,-3.4697,-3.3685,-3.3125,-3.516,-3.616,-3.6785,-3.721,-3.8222,-3.8782,-3.7565,-3.9371,-4.1733,-4.3327,-4.5857,-4.8033,-4.8674,-5.1308,-5.3361,-5.342,-5.5513,-5.6885,-5.6256,-5.6218,-5.5927,-5.5218,-5.456,-5.4044,-5.3827,-5.065,-4.8238,-4.7323,-4.6688,-4.6361,-4.6361,-4.5246,-4.492,-4.5472,-4.3865,-4.3011,-4.3011,-4.2489,-4.1605,-4.0551,-4.0526,-4.0224,-3.9672,-3.9145,-3.8919,-3.8844,-3.7688,-3.7186,-3.7111,-3.6631,-3.6405,-3.6304,-3.5177,-3.468,-3.46,-3.3495,-3.3111,-3.3111,-3.3393,-3.3408,-3.3378,-3.3193,-3.3821,-3.4106,-3.3349,-3.3262,-3.3337,-3.3459,-3.344,0.0,0.0,0.0,0.0,0.0,-3.1981,-3.1595,-3.1214,-3.249,-3.3049,-3.2644,-3.3416,-3.3851,-3.3876,-3.407,-3.4098,-3.3953,-3.3852,-3.39,-3.4123,-3.4414,-3.4776,-3.5223,-3.6191,-3.6681,-3.6787,-3.5917,-3.6059,-3.6635,-3.4772,-3.4526,-3.5313,-3.4669,-3.3313,-3.1831,0.0,-3.3448,-3.3272,-3.3619,-3.3643,-3.3624,-3.3882,-3.3744,-3.3346,-3.273,-3.3472,-3.4921,-3.6896,-3.8597,-4.0183,-4.1639,-4.087,-3.9631,-3.9237,-4.0042,-4.0996,-4.1543,-4.3272,-4.4694,-4.4895,-4.7283,-4.9628,-5.1072,-5.4078,-5.6589,-5.7325,-5.7453,-5.6735,-5.479,-5.473,-5.3909,-5.1517,-5.0982,-5.063,-5.0113,-4.8641,-4.7769,-4.7769,-4.5723,-4.4719,-4.492,-4.3313,-4.2489,-4.2489,-4.153,-4.0877,-4.0501,-4.0149,-3.9873,-3.9697,-3.9496,-3.9019,-3.8266,-3.7889,-3.7312,-3.6681,-3.648,-3.6132,-3.578,-3.5357,-3.4781,-3.4123,-3.3746,-3.3395,-3.3111,0.0,-3.3268,-3.3204,-3.3319,-3.3864,0.0,0.0,0.0,0.0,0.0,0.0,0.0,0.0,0.0,0.0,0.0,0.0,-3.2868,-3.2696,-3.4025,-3.479,-3.4775,-3.5948,-3.6587,-3.6529,-3.6873,-3.6935,-3.671,-3.7195,-3.7562,-3.7842,-3.8206,-3.864,-3.906,-3.9168,-3.9204,-3.9132,-3.8047,-3.7828,-3.7984,-3.5752,-3.5251,-3.5685,-3.4768,-3.3005,0.0,-3.1436,-3.1451,-3.1314,-3.1687,-3.1988,-3.2288,-3.2321,-3.2299,-3.228,-3.2702,-3.408,-3.6178,-3.932,-4.1076,-4.2511,-4.431,-4.3318,-4.186,-4.1591,-4.1727,-4.1867,-4.1867,-4.2426,-4.2911,-4.2766,-4.473,-4.692,-4.845,-5.1619,-5.4531,-5.6303,-5.6444,-5.5897,-5.47,-5.473,-5.3962,-5.1704,-5.1606,-5.1197,-4.9936,-4.8809,-4.7906,-4.7146,-4.5316,-4.4317,-4.4317,-4.2911,-4.2112,-4.1856,-4.0978,-4.0425,-4.0224,-3.9873,-3.9697,-3.9697,-3.9496,-3.8894,-3.799,-3.7789,-3.7186,-3.638,-3.6157,-3.5855,-3.5458,-3.5056,-3.4525,-3.3872,-3.3671,-3.3395,-3.3111,0.0,0.0,-3.3064,0.0,0.0,0.0,0.0,0.0,0.0,0.0,0.0,0.0,0.0,0.0,0.0,0.0,0.0,0.0,-3.4683,-3.5321,-3.5883,-3.6462,-3.731,-3.778,-3.7716,-3.711,-3.7114,-3.7726,-3.8621,-3.9406,-4.0084,-4.0879,-4.1227,-4.1128,-4.0266,-3.984,-3.9771,-3.8996,-3.8388,-3.7838,-3.6993,-3.6258,-3.547,-3.3669,-3.2581,-3.1792,-2.995,-2.8975,-2.862,-2.9314,-3.0019,-3.0681,-3.0947,-3.1218,-3.1989,-3.4569,-3.5561,-3.6884,-4.1944,-4.3379,-4.3823,-4.5169,-4.5434,-4.5213,-4.451,-4.4222,-4.4072,-4.3992,-4.3347,-4.265,-4.194,-4.3669,-4.5314,-4.5782,-4.8415,-5.1257,-5.3722,-5.3714,-5.3892,-5.5089,-5.467,-5.4172,-5.4062,-5.231,-4.9896,-4.6904,-4.7291,-4.6856,-4.4958,-4.4174,-4.379,-4.3765,-4.274,-4.1856,-4.125,-4.0752,-4.0199,-3.9697,-3.9697,-3.9697,-3.9672,-3.9145,-3.8592,-3.7965,-3.7462,-3.6933,-3.6355,-3.578,-3.5483,-3.5357,-3.4324,-3.3872,-3.3796,-3.3269,-3.3111,-3.3111,0.0,0.0,0.0,0.0,0.0,0.0,0.0,0.0,0.0,0.0,0.0,0.0,0.0,0.0,0.0,0.0,0.0,0.0,-3.4187,-3.5255,-3.5999,-3.6181,-3.7869,-3.8589,-3.8069,-3.9199,-3.9593,-3.9165,-3.9785,-4.0334,-4.0723,-4.0704,-4.0295,-3.9595,-3.9554,-3.9245,-3.8625,-3.7386,-3.7918,-3.936,-3.6765,-3.6112,-3.6454,-3.4616,-3.2738,-3.0946,-2.9948,-2.9111,-2.8524,-2.8716,-2.9783,-3.1384,-3.3209,-3.3863,-3.4315,-3.6298,-3.8332,-4.0371,-4.2664,-4.4725,-4.6356,-4.6709,-4.6121,-4.5355,-4.5178,-4.4642,-4.3835,-4.2385,-4.1537,-4.0239,-3.756,-3.9819,-4.2492,-4.3517,-4.8425,-5.2991,-5.5629,-5.6474,-5.6645,-5.5987,-5.5329,-5.4119,-5.1998,-5.1815,-5.0206,-4.6374,-4.6766,-4.7524,-4.8487,-4.5551,-4.3614,-4.3212,-4.2108,-4.1279,-4.0727,-4.0174,-3.9848,-3.9697,-3.9697,-3.9697,-3.9697,-3.9546,-3.8944,-3.799,-3.7864,-3.7236,-3.6355,-3.578,-3.5257,-3.4831,-3.4173,-3.3646,-3.3269,-3.3162,-3.3111,-3.3111,0.0,0.0,0.0,0.0,0.0,0.0,0.0,0.0,0.0,0.0,0.0,0.0,0.0,0.0,0.0,0.0,0.0,0.0,0.0,-3.5414,-3.5884,-3.5944,-3.7136,-3.7729,-3.7538,-3.8239,-3.8425,-3.8112,-3.9376,-4.0048,-4.0178,-4.0917,-4.0939,-4.0398,-3.9911,-3.9492,-3.8985,-3.7683,-3.7807,0.0,0.0,-3.5462,-3.5566,-3.3939,-3.2461,-3.1064,-2.9756,-2.9201,-2.9188,-2.9886,-3.1219,-3.2847,-3.4428,-3.4994,-3.5583,-3.8314,-4.0179,-4.193,-4.4406,-4.6172,-4.7309,-4.7309,-4.677,-4.5976,-4.5127,-4.4371,-4.322,-4.1004,-3.9609,-3.8102,-3.5904,-3.7945,-4.0271,-4.1363,-4.6441,-5.1319,-5.4421,-5.5472,-5.6107,-5.6526,-5.5748,-5.4577,-5.3018,-5.2346,-5.1124,-4.8809,-4.7565,-4.6877,-4.6886,-4.4729,-4.3187,-4.269,-4.1781,-4.0899,-4.0174,-3.9848,-3.9697,-3.9697,-3.9697,-3.9697,-3.9697,-3.9446,-3.8843,-3.799,0.0,-3.7161,-3.6355,-3.578,-3.5182,-3.4675,-3.4123,-3.3571,-3.3111,-3.3111,-3.3111,-3.3111,0.0,0.0,0.0,0.0,0.0,0.0,0.0,0.0,0.0,0.0,-3.756,-3.7078,-3.6539,-3.6028,0.0,0.0,0.0,0.0,0.0,0.0,-3.5667,-3.5778,-3.5932,-3.6165,-3.6466,-3.5941,-3.5765,-3.5971,-3.7964,-3.8889,-3.8878,-4.0651,-4.1451,-4.1374,-4.0056,-3.941,-3.9219,-3.8084,-3.7308,-3.6696,-3.5435,-3.4605,-3.3975,0.0,0.0,-3.1769,-2.9679,-2.9407,-3.0287,-3.1829,-3.3328,-3.4723,-3.5462,-3.588,-3.6799,-4.0547,-4.1682,-4.2596,-4.6294,-4.7309,-4.7309,-4.7309,-4.7309,-4.677,-4.4766,-4.3835,-4.2666,-3.9928,-3.8122,-3.6696,-3.5687,-3.7193,-3.8859,-3.9719,-4.3857,-4.8347,-5.2105,-5.2997,-5.4231,-5.6825,-5.5957,-5.5128,-5.4926,-5.3282,-5.1989,-5.1423,-4.8573,-4.5898,-4.3503,-4.3048,-4.264,-4.2011,-4.1404,-4.0651,-3.9697,-3.9697,-3.9697,-3.9697,-3.9697,-3.9697,-3.9672,-3.912,-3.8542,-3.7965,-3.7412,-3.6933,-3.6355,-3.578,-3.5232,-3.4731,-3.4223,-3.3671,-3.3237,-3.3237,-3.3144,-3.3111,0.0,0.0,0.0,0.0,0.0,0.0,0.0,0.0,0.0,0.0,-3.7998,-3.7488,0.0,0.0,0.0,0.0,0.0,0.0,0.0,0.0,0.0,-3.5778,-3.5932,-3.5775,-3.5311,-3.5868,-3.5847,-3.519,-3.6434,-3.7217,-3.7441,-3.7694,-3.7667,-3.7382,-3.6464,-3.5671,-3.5015,-3.4309,-3.4259,-3.4668,-3.4206,-3.4071,-3.4075,0.0,0.0,0.0,-3.0362,-3.0316,-3.1539,-3.2592,-3.4325,-3.6379,-3.8307,-3.9246,-4.0156,-4.2978,-4.3804,-4.4322,-4.6668,-4.7309,-4.7309,-4.7309,-4.7309,-4.677,-4.4766,-4.4214,-4.307,-3.9357,-3.8649,-3.7769,-3.4832,-3.6665,-3.8956,-4.006,-4.3829,-4.8157,-5.271,-5.3628,-5.4621,-5.687,-5.5957,-5.4743,-5.3518,-5.3087,-5.1431,-4.8054,-4.7232,-4.65,-4.554,-4.3453,-4.1831,-4.0827,-4.0275,-3.9898,-3.9697,-3.9697,-3.9697,-3.9697,-3.9697,-3.9697,-3.9672,-3.912,-3.8542,-3.7965,-3.7412,0.0,-3.6355,-3.578,-3.5433,-3.5307,-3.4756,-3.4248,-3.3746,-3.3746,-3.347,-3.3111,0.0,0.0,0.0,0.0,0.0,0.0,0.0,-3.6686,-3.6952,-3.8259,-3.8601,-3.8258,-3.7208,-3.662,-3.6092,0.0,0.0,0.0,0.0,0.0,0.0,0.0,0.0,0.0,-3.5861,-3.6475,-3.6756,-3.6574,0.0,-3.7657,-3.7709,-3.7453,-3.7309,-3.7288,-3.6469,-3.5854,-3.5466,-3.489,-3.471,-3.4799,-3.4948,-3.5051,0.0,0.0,0.0,0.0,0.0,-3.1542,-3.2346,-3.2109,-3.4221,-3.7235,-3.9095,-3.9873,-4.0464,-4.2335,-4.3366,-4.4244,-4.5866,-4.677,-4.7309,-4.7309,-4.7309,-4.6411,-4.306,-4.2551,-4.1564,-3.7289,-3.6828,-3.6684,-3.4974,-3.6708,-3.874,-3.9823,-4.3504,-4.7668,-5.1558,-5.2948,-5.4318,-5.6384,-5.5777,-5.4926,-5.42,-5.3146,-5.1307,-4.8273,-4.705,-4.5884,-4.4509,-4.2747,-4.1354,-4.0551,-3.9973,-3.9697,-3.9697,-3.9697,-3.9697,-3.9697,-3.9697,-3.9697,-3.9672,-3.912,-3.8542,-3.7965,-3.7412,-3.6933,-3.638,-3.6081,-3.5805,-3.5483,-3.5207,-3.4781,-3.4324,-3.4324,-3.3972,-3.3495,0.0,0.0,0.0,0.0,0.0,0.0,-3.702,-3.651,-3.6612,-3.8178,-3.9031,-3.8958,-3.7548,-3.7245,-3.6806,0.0,0.0,0.0,0.0,0.0,0.0,0.0,0.0,0.0,0.0,0.0,0.0,-3.8401,-3.8726,0.0,0.0,0.0,0.0,0.0,-3.7132,-3.6761,-3.6721,-3.622,-3.5711,0.0,0.0,-3.6131,0.0,0.0,0.0,0.0,0.0,-3.2704,-3.28,-3.184,-3.3764,-3.691,-3.8469,-3.9221,-3.9702,-4.0723,-4.2166,-4.3621,-4.5041,-4.6344,-4.7339,-4.7489,-4.7429,-4.6142,-4.1624,-4.0995,-4.0104,-3.5462,-3.5011,-3.5424,-3.5294,-3.6509,-3.7986,-3.9348,-4.2378,-4.5928,-4.9882,-5.1491,-5.3179,-5.5508,-5.5299,-5.491,-5.479,-5.3004,-5.1213,-4.9442,-4.7001,-4.477,-4.2771,-4.1806,-4.0974,-4.035,-3.9923,-3.9697,-3.9697,-3.9697,-3.9697,-3.9697,-3.9697,-3.9697,-3.9672,-3.912,-3.8542,-3.7965,-3.7412,-3.6933,-3.6405,-3.6405,-3.6107,-3.5683,-3.5683,-3.5332,-3.4856,-3.4856,-3.455,-3.4003,0.0,0.0,0.0,0.0,0.0,0.0,-3.7339,-3.7121,-3.7233,-3.8188,-3.8997,-3.9139,-3.8137,-3.9223,-3.9134,0.0,0.0,0.0,0.0,0.0,0.0,0.0,0.0,0.0,0.0,0.0,0.0,-3.974,-4.0021,0.0,0.0,0.0,0.0,0.0,0.0,-3.6346,-3.6305,-3.579,0.0,0.0,0.0,0.0,0.0,0.0,0.0,0.0,0.0,-3.3463,-3.2829,-3.3046,-3.355,-3.4428,-3.6082,-3.7696,-3.9019,-3.9249,-4.099,-4.3185,-4.4898,-4.6344,-4.7459,-4.8057,-4.7758,-4.6262,-4.2192,-4.1362,-4.0104,-3.5462,-3.5011,-3.5519,-3.5457,-3.5466,-3.6312,-3.8842,-3.9414,-4.1795,-4.8276,-4.9285,-5.063,-5.3983,-5.4341,-5.4042,-5.3414,-5.2067,-5.086,-5.0184,-4.6523,-4.3543,-4.1559,-4.1351,-4.0852,-3.9798,-3.9722,-3.9697,-3.9697,-3.9697,-3.9697,-3.9697,-3.9697,-3.9697,-3.9672,-3.912,-3.8542,-3.7965,-3.7412,-3.6933,0.0,-3.6405,-3.638,-3.6329,-3.6329,-3.5956,-3.5433,-3.5433,-3.5082,-3.4395,0.0,0.0,0.0,0.0,0.0,0.0,-3.6007,-3.5366,-3.5651,-3.7923,-3.8492,-3.8848,-3.9364,-4.0555,-4.0147,-3.7068,-3.6795,0.0,0.0,0.0,0.0,0.0,0.0,0.0,0.0,0.0,-3.9406,-4.0479,-4.0399,0.0,0.0,0.0,0.0,0.0,0.0,-3.697,-3.6262,-3.5997,0.0,0.0,0.0,0.0,0.0,0.0,0.0,0.0,0.0,0.0,-3.4065,-3.3006,-3.3354,-3.401,-3.2718,-3.3965,-3.6271,-3.8103,-3.9555,-4.1102,-4.3566,-4.5448,-4.6812,-4.7523,-4.6591,-4.4676,-4.1504,-4.0157,-3.8601,-3.5222,-3.5011,-3.5519,-3.5519,-3.5424,-3.5971,-3.7827,-3.8384,-4.0237,-4.4977,-4.6315,-4.7997,-5.1374,-5.2157,-5.2606,-5.3144,-5.0839,-4.8326,-4.6009,-4.409,-4.2531,-4.1354,-4.0974,-4.0501,-3.9722,-3.9697,-3.9697,-3.9697,-3.9697,-3.9697,-3.9697,-3.9697,-3.9697,-3.9697,-3.9471,-3.8868,-3.799,-3.7764,-3.7186,0.0,-3.6405,-3.6405,-3.6405,-3.6405,-3.6279,-3.6031,-3.6031,-3.4991,-3.3487,0.0,0.0,0.0,0.0,0.0,-3.5167,-3.5268,-3.4693,-3.5084,-3.7339,-3.818,-3.8878,-3.9704,-4.0909,-4.0577,-3.7956,-3.755,0.0,0.0,0.0,0.0,0.0,0.0,0.0,0.0,0.0,-4.004,-4.1594,-4.1401,-4.1796,0.0,0.0,-4.0395,-3.9418,0.0,0.0,0.0,0.0,0.0,0.0,0.0,0.0,0.0,0.0,0.0,0.0,0.0,0.0,0.0,0.0,0.0,-3.3704,-3.1443,-3.1895,-3.3711,-3.6055,-3.7643,-3.9311,-4.2297,-4.4496,-4.6251,-4.7332,-4.5933,-4.3688,-4.1235,-3.9499,-3.7644,-3.5043,-3.5011,-3.5519,-3.5519,-3.5669,-3.6088,-3.6985,-3.7853,-3.9409,-4.2372,-4.3928,-4.5753,-4.8446,-4.9194,-5.0062,-5.1588,-4.9565,-4.6665,-4.3038,-4.2468,-4.1963,-4.1103,-4.0576,-4.0099,-3.9697,-3.9697,-3.9697,-3.9697,-3.9697,-3.9697,-3.9697,-3.9697,-3.9697,-3.9697,-3.9697,-3.9069,-3.8015,-3.8015,-3.7387,0.0,-3.6405,-3.6405,-3.6405,-3.6405,-3.6405,-3.6358,-3.5953,-3.4698,-3.3006,0.0,0.0,0.0,0.0,0.0,-3.5252,-3.572,-3.607,-3.6274,-3.6328,-3.8343,-3.9469,-3.8627,-3.9882,-4.0538,-3.9901,-3.9302,0.0,0.0,0.0,0.0,0.0,0.0,0.0,-4.0288,-4.0402,-4.1359,-4.3195,-4.3322,-4.3788,-4.4547,-4.3191,-4.2109,-4.1183,0.0,0.0,0.0,0.0,0.0,0.0,0.0,0.0,0.0,0.0,0.0,0.0,0.0,0.0,0.0,0.0,0.0,0.0,0.0,-3.2486,-3.1847,-3.2618,-3.518,-3.8363,-4.1397,-4.3801,-4.5879,-4.7822,-4.6292,-4.3808,-4.1833,-3.9828,-3.7644,-3.5043,-3.5011,-3.5519,-3.5519,-3.6028,-3.6477,-3.6507,-3.7554,0.0,-4.1153,-4.2551,-4.3898,-4.5185,-4.5364,-4.6142,-4.8147,-4.8302,-4.6612,-4.2515,-4.245,-4.198,-4.0578,-3.9998,-3.9697,-3.9697,-3.9697,-3.9697,-3.9697,-3.9697,-3.9697,-3.9697,-3.9697,-3.9697,-3.9697,-3.9697,-3.9069,-3.8015,-3.8015,-3.7387,0.0,-3.6405,-3.6405,-3.6405,-3.6405,-3.6405,-3.6263,-3.4921,-3.4101,-3.3267,0.0,0.0,0.0,0.0,0.0,0.0,-3.4123,-3.3827,-3.4411,-3.6808,-3.7021,-3.7745,-3.9847,-4.0671,-4.096,-4.0684,-4.0011,0.0,0.0,0.0,0.0,0.0,0.0,-4.0138,-4.0163,-4.0798,-4.2037,-4.3868,-4.3956,-4.4787,-4.623,-4.5127,-4.3768,-4.2099,-4.1096,-3.9668,0.0,0.0,0.0,0.0,0.0,0.0,-3.999,0.0,0.0,0.0,0.0,0.0,0.0,0.0,0.0,0.0,0.0,0.0,0.0,-3.3243,-3.4455,-3.6426,-3.9524,-4.1108,-4.2189,-4.3318,-4.1893,-4.0098,-3.9469,-3.7823,-3.6178,-3.534,-3.534,-3.5519,-3.5519,-3.5669,-3.6088,-3.6985,-3.7464,-3.8272,-3.9828,-4.1564,-4.3369,-4.5095,-4.6521,-4.7607,-4.8144,-4.6245,-4.4555,-4.3649,-4.2084,-4.0947,-4.0526,-3.9998,-3.9697,-3.9697,-3.9697,-3.9697,-3.9697,-3.9697,-3.9697,-3.9697,-3.932,-3.932,-3.9672,-3.8894,-3.8341,-3.799,-3.7613,-3.7036,-3.6405,-3.6405,-3.6405,-3.631,-3.5379,-3.5571,-3.6096,-3.3798,-3.2506,-3.1581,0.0,0.0,0.0,0.0,0.0,0.0,-3.3828,-3.3705,-3.4497,-3.6925,-3.7061,-3.7751,-3.9864,-4.0764,-4.1126,-4.0949,-4.0781,0.0,0.0,0.0,0.0,0.0,-3.9859,-4.0172,-4.0493,-4.1121,-4.2462,-4.4671,-4.5042,-4.6026,-4.7563,-4.6842,-4.5668,-4.4085,-4.2938,-4.1333,0.0,0.0,0.0,0.0,0.0,0.0,-3.9532,0.0,0.0,0.0,0.0,0.0,0.0,0.0,0.0,0.0,0.0,0.0,0.0,0.0,-3.3585,-3.4706,-3.7997,-3.9416,-4.0205,-4.1177,-3.9888,-3.8392,-3.8392,-3.6896,-3.5519,-3.5519,-3.5519,-3.5519,-3.5519,-3.5699,-3.6058,-3.6596,-3.7315,-3.8153,-3.926,-4.0905,-4.259,-4.4018,-4.6181,-4.7039,-4.5751,-4.4529,-4.3531,-4.2866,-4.1203,-4.0199,-4.0199,-3.9873,-3.9697,-3.9697,-3.9697,-3.9697,-3.9697,-3.9496,-3.9496,-3.9697,-3.9145,-3.9044,-3.9346,-3.8642,-3.809,-3.7688,-3.7337,-3.6933,0.0,-3.6405,-3.6405,-3.631,-3.5475,-3.5379,-3.5355,-3.3132,-3.1406,-3.0052,0.0,0.0,0.0,0.0,0.0,0.0,0.0,-3.5198,-3.5964,-3.672,-3.807,-3.8967,-3.9069,-4.0358,-4.11,-4.0809,-4.1485,0.0,0.0,0.0,0.0,-4.1043,-4.0396,-4.0466,-4.1271,-4.1435,-4.2817,-4.5425,-4.627,-4.728,-4.8402,-4.8156,-4.7554,-4.6729,-4.4752,-4.287,0.0,0.0,0.0,0.0,-3.8632,-3.8379,0.0,0.0,0.0,0.0,0.0,0.0,0.0,0.0,0.0,0.0,0.0,0.0,0.0,0.0,0.0,0.0,0.0,-3.8202,-3.9411,-4.0575,-3.9529,-3.8182,-3.8088,-3.6712,0.0,-3.5397,-3.5427,-3.5457,-3.5457,-3.5998,-3.6237,-3.5669,-3.7075,-3.8506,-3.9205,-4.0674,-4.1846,-4.247,-4.4702,-4.4967,-4.1854,-4.3121,-4.3183,-4.0816,-4.005,-3.9697,-3.9697,-3.9697,-3.9697,-3.9697,-3.9697,-3.9697,-3.9697,-3.9195,-3.917,-3.9622,-3.9069,-3.8869,-3.8818,-3.8768,-3.819,0.0,-3.7136,-3.6835,0.0,-3.6405,-3.6405,-3.6405,-3.631,-3.5571,-3.4337,-3.271,-3.0837,-2.8943,0.0,0.0,0.0,0.0,0.0,0.0,0.0,0.0,0.0,0.0,-3.7259,-3.7978,-3.9664,-4.0663,-4.11,0.0,0.0,0.0,0.0,0.0,0.0,-4.168,-4.1614,-4.1748,-4.2016,-4.2618,-4.35,-4.4653,-4.5903,-4.6868,-4.7674,-4.8004,-4.767,-4.6729,-4.5454,-4.3388,0.0,0.0,0.0,0.0,-3.9055,-3.9003,0.0,0.0,0.0,0.0,-3.5296,-3.4877,0.0,0.0,0.0,0.0,0.0,0.0,0.0,0.0,-3.1046,-3.1326,-3.2184,0.0,-3.5385,-3.5655,-3.5848,-3.5796,0.0,-3.5166,-3.5112,-3.4478,-3.4741,-3.5067,-3.5261,-3.5413,-3.5654,-3.6207,-3.6626,-3.7362,-3.8542,-4.1575,-4.3738,-4.3837,-4.4484,-4.4422,-4.306,-4.1641,-4.1156,-4.203,-4.0619,-3.9697,-3.9697,-3.9697,-3.9697,-3.9697,-3.9697,-3.9697,-3.9697,-3.9572,-3.9346,-3.9069,-3.8492,-3.8216,-3.8191,-3.7385,-3.7084,-3.7161,-3.6782,-3.6531,-3.6405,-3.6405,-3.6405,-3.631,-3.5283,-3.5307,-3.545,-3.1728,-3.0426,-3.0154,0.0,0.0,0.0,0.0,0.0,0.0,0.0,0.0,0.0,0.0,-3.7706,-3.8216,-3.9935,-4.0764,-4.11,0.0,0.0,0.0,0.0,-4.1383,-4.1399,-4.0889,-4.1291,-4.1766,-4.2239,-4.3008,-4.3933,-4.4986,-4.629,-4.7098,-4.7527,-4.8296,-4.8198,-4.7296,-4.5685,-4.3677,-4.1332,-4.0408,-4.038,-4.0851,-3.8777,0.0,0.0,0.0,0.0,0.0,-3.4118,-3.3879,0.0,-3.3061,-3.2545,-3.2169,0.0,0.0,0.0,0.0,-2.9563,-2.9389,-2.9962,-3.1811,-3.3511,-3.3511,-3.4068,-3.4534,-3.4083,-3.3862,-3.3612,-3.3165,-3.3277,-3.3508,-3.3609,-3.4261,-3.4883,-3.5195,-3.6273,-3.7577,-3.9201,-4.106,-4.2773,-4.4124,-4.3819,-4.3441,-4.3455,-4.1683,-4.0771,-4.1233,-4.0287,-3.9697,-3.9697,-3.9697,-3.9572,-3.932,-3.932,-3.932,-3.932,-3.9044,-3.8768,-3.8467,-3.7889,-3.7638,-3.7613,-3.701,-3.6807,-3.6832,-3.6531,-3.6405,-3.6405,-3.6405,-3.6405,-3.6285,-3.5301,-3.4751,-3.4169,-3.1495,-3.007,-2.9195,0.0,0.0,0.0,0.0,0.0,0.0,0.0,0.0,0.0,0.0,0.0,0.0,0.0,0.0,0.0,0.0,0.0,0.0,-4.1391,-4.1331,-4.0828,-3.9692,-4.0496,-4.1386,-4.2275,-4.3008,-4.4075,-4.5505,-4.676,-4.7456,-4.7603,-4.859,-4.8613,-4.7653,-4.5729,-4.3915,-4.2179,-4.1197,-4.0827,-4.0757,-3.8566,0.0,0.0,0.0,0.0,0.0,0.0,0.0,0.0,-3.2283,-3.1894,-3.1584,-3.0405,0.0,0.0,0.0,0.0,0.0,-2.8819,-3.0963,-3.2721,-3.2459,-3.3066,-3.3696,-3.3372,-3.2605,-3.187,-3.1671,-3.1652,-3.1799,-3.1993,-3.3101,-3.3965,-3.3882,-3.5875,-3.8171,-4.0234,-4.0218,-4.0933,-4.3413,-4.2783,-4.2295,-4.2716,-4.1874,-4.0844,-3.98,-3.9697,-3.9697,-3.9697,-3.9622,-3.9346,-3.8894,-3.8844,-3.8693,-3.8617,-3.8216,-3.7965,-3.7864,-3.7412,-3.7136,-3.7061,-3.7061,-3.6857,-3.6405,0.0,0.0,-3.6405,-3.6329,-3.6138,-3.5921,-3.5351,-3.3935,-3.2101,-3.1345,-2.9762,-2.789,0.0,0.0,0.0,0.0,0.0,0.0,0.0,0.0,0.0,0.0,0.0,0.0,0.0,0.0,0.0,0.0,0.0,0.0,-4.0895,-4.0674,-4.0247,-3.9476,-4.0816,-4.1947,-4.2848,-4.3185,-4.3702,-4.4524,-4.6006,-4.6993,-4.7505,-4.8171,-4.7765,-4.6531,-4.561,-4.4418,-4.298,-4.211,-4.1977,-4.2275,-3.9997,0.0,0.0,0.0,0.0,0.0,0.0,0.0,0.0,-3.2284,-3.1925,-3.1438,-2.9417,0.0,0.0,0.0,0.0,0.0,-2.7468,-2.972,-3.1596,-3.0344,-3.1316,-3.2138,-3.0543,-3.0908,-3.1233,-3.0107,-3.0692,-3.1717,-3.28,-3.2773,-3.2955,-3.4029,-3.5413,-3.7314,-4.0112,-4.0982,-4.1275,-4.1085,-4.1428,-4.1106,-3.948,-3.9743,-3.9929,-3.9697,-3.9697,-3.9697,-3.9697,-3.9245,-3.902,-3.8919,-3.8391,-3.7914,-3.7437,-3.7814,-3.7764,-3.7312,-3.7236,-3.6935,-3.6531,-3.6531,-3.648,-3.6405,0.0,-3.6405,-3.638,-3.5855,-3.5024,-3.4054,-3.3525,-3.2674,-3.1565,-2.9607,-2.9112,-2.9125,0.0,0.0,0.0,0.0,0.0,0.0,0.0,0.0,0.0,0.0,0.0,0.0,0.0,0.0,0.0,0.0,-4.2372,-4.2303,-4.1878,-4.131,-4.0839,-4.0507,-4.0489,-4.086,-4.1756,-4.3034,-4.3943,-4.4334,-4.6113,-4.7173,-4.7596,-4.7756,-4.7342,-4.6418,-4.565,-4.4563,-4.3293,-4.2818,-4.2484,-4.2155,0.0,0.0,0.0,0.0,0.0,0.0,0.0,0.0,0.0,0.0,-3.225,-3.1622,-3.0059,0.0,0.0,0.0,0.0,0.0,-2.6725,-2.8286,-2.9739,-2.9694,-3.1787,-3.3625,-3.2415,-3.2048,-3.1638,-3.0449,-3.0608,-3.1107,-3.1705,-3.2528,-3.3964,-3.6392,-3.6366,-3.6804,-3.9127,-3.8919,-3.9031,-4.0339,-4.0114,-3.9983,-4.0184,-3.9904,-3.9697,-3.9697,-3.9697,-3.9572,-3.927,-3.9019,-3.8642,-3.7965,-3.7688,-3.7287,-3.6782,-3.6985,-3.6985,-3.6782,-3.6782,-3.6656,-3.6405,-3.6405,-3.6405,-3.6405,0.0,-3.6405,-3.6355,-3.578,-3.5158,-3.4593,-3.3759,-3.2557,-3.0971,-2.8549,-2.7753,-2.7784,0.0,0.0,0.0,0.0,0.0,0.0,0.0,0.0,0.0,0.0,0.0,0.0,0.0,0.0,0.0,0.0,-4.3004,-4.2945,-4.2829,-4.1981,-4.1476,-4.1401,-4.0257,-4.002,-4.087,-4.2459,-4.3552,-4.4021,-4.5774,-4.6999,-4.7672,-4.771,-4.7326,-4.6523,-4.5731,-4.4763,-4.3646,-4.3535,-4.3032,-4.2267,0.0,0.0,0.0,0.0,0.0,0.0,0.0,0.0,0.0,0.0,0.0,0.0,0.0,0.0,0.0,-2.7756,-2.6719,-2.5912,-2.6524,-2.7544,-2.8625,-2.9501,-3.1745,-3.3807,-3.4045,-3.2958,-3.1794,-3.1435,-3.1258,-3.1185,-3.1185,-3.2667,-3.4776,-3.7462,-3.6926,-3.6825,-3.8618,-3.7671,-3.7658,-4.0006,-3.9375,-3.932,-4.0807,-4.0083,-3.9446,-3.9295,-3.9295,-3.912,-3.8693,-3.8542,-3.8065,-3.7211,-3.7061,-3.6832,-3.6405,-3.6405,-3.6405,-3.6405,-3.6405,-3.6405,-3.6405,-3.6405,-3.6405,-3.6405,-3.6405,-3.6405,-3.6355,-3.578,-3.5158,-3.4568,-3.3909,-3.2272,-3.0066,-2.7794,-2.668,-2.625,0.0,0.0,0.0,0.0,0.0,0.0,0.0,0.0,0.0,0.0,0.0,0.0,0.0,0.0,0.0,0.0,-4.2757,-4.2974,-4.2921,-4.2013,-4.1476,-4.1401,-4.071,-4.0643,-4.1304,-4.1096,-4.159,-4.2929,-4.405,-4.5622,-4.7603,-4.8377,-4.7928,-4.65,-4.5914,-4.5252,-4.4485,-4.4282,-4.4107,-4.3801,-4.2194,0.0,0.0,0.0,0.0,0.0,0.0,0.0,0.0,0.0,0.0,0.0,0.0,0.0,-2.9185,-2.7861,-2.7002,-2.6549,-2.7102,-2.8287,-2.9447,-2.9521,-2.9349,-2.9905,-3.2609,-3.1788,-3.0938,-3.2583,-3.291,-3.2893,-3.2893,-3.3445,-3.4148,-3.4901,-3.6179,-3.7686,-3.9372,-3.9523,-3.9524,-3.9727,-3.965,-3.9448,-3.9121,-3.902,-3.8718,-3.8165,-3.8115,-3.8115,-3.8065,-3.7588,-3.7262,-3.7186,-3.6732,-3.6455,-3.6405,-3.6405,-3.6405,-3.6405,-3.6405,-3.6405,-3.6405,-3.6405,-3.6405,-3.6405,-3.6405,-3.6405,-3.6355,-3.578,-3.4124,-3.2059,-3.2724,-3.1152,-2.8473,-2.7412,-2.6484,-2.5791,0.0,0.0,0.0,0.0,0.0,0.0,0.0,0.0,0.0,0.0,0.0,-4.4045,-4.3768,0.0,0.0,0.0,-4.2992,-4.3008,-4.2954,-4.2043,-4.1643,-4.2063,-4.0598,-4.0057,-4.0777,-4.1868,-4.2572,-4.2792,-4.5212,-4.6795,-4.7607,-4.7583,-4.6999,-4.5982,-4.5309,-4.4857,-4.4615,-4.4497,-4.4114,-4.3435,-4.2289,-4.1054,0.0,0.0,0.0,0.0,0.0,0.0,0.0,0.0,-3.1775,-3.0978,-2.9924,-2.9259,-2.872,-2.7756,-2.7027,-2.6549,-2.6751,-2.8211,-2.9663,-2.9546,-2.888,-2.9012,-3.1889,-3.161,-3.0986,-3.1854,-3.2991,-3.3844,-3.4045,-3.5102,-3.6006,-3.6207,-3.7061,-3.804,-3.9044,-3.8868,-3.8642,-3.8642,-3.8642,-3.8567,-3.8341,-3.8341,-3.8241,-3.8015,-3.8015,-3.7864,-3.7513,-3.7287,-3.7036,-3.6732,-3.6505,-3.6405,-3.6405,-3.6405,-3.6405,-3.6405,-3.6405,-3.6405,-3.6405,-3.6405,-3.6405,-3.6405,-3.6405,-3.6405,-3.626,-3.484,-3.3672,-3.2619,-3.074,-2.9267,-2.8105,-2.6724,-2.5966,-2.5713,0.0,0.0,0.0,0.0,0.0,0.0,0.0,0.0,-4.3477,0.0,0.0,0.0,0.0,-4.3673,0.0,0.0,-4.2354,-4.2082,-4.2289,-4.1576,-4.1373,-4.1806,-4.0677,-4.0052,-4.0098,-4.2099,-4.2787,-4.2081,-4.5235,-4.678,-4.6822,-4.675,-4.6321,-4.5578,-4.4598,-4.4322,-4.4581,-4.4051,-4.3563,-4.3115,-4.2058,-4.0939,0.0,0.0,0.0,0.0,0.0,0.0,0.0,0.0,-3.1332,-3.0598,-2.9839,-2.9093,-2.8363,-2.7703,-2.7011,-2.6424,-2.6251,-2.7152,-2.8159,-2.8299,-2.7469,-2.7425,-3.0431,-3.074,-3.0816,-3.2325,-3.3492,-3.4197,-3.4274,-3.5553,-3.6659,-3.6659,-3.7412,-3.814,-3.8542,-3.8266,-3.8015,-3.8015,-3.8015,-3.7939,-3.7764,-3.7739,-3.7688,-3.7487,-3.7487,-3.7312,-3.6983,-3.6983,-3.6807,-3.6405,-3.6405,-3.6405,-3.6405,-3.6405,-3.6405,-3.6405,-3.6405,-3.6405,-3.6405,-3.6405,-3.6405,-3.6405,-3.6405,-3.6405,-3.6285,-3.451,-3.3431,-3.2595,-2.9168,-2.8007,-2.8063,-2.6318,-2.5693,-2.5693,0.0,0.0,0.0,0.0,0.0,0.0,0.0,0.0,-4.3707,-4.4513,-4.4615,0.0,0.0,0.0,0.0,0.0,-4.0699,-4.0038,-4.0715,-4.0521,-4.0375,-4.0387,-4.1038,-4.0736,-3.9439,-4.1324,-4.1768,-4.0543,-4.352,-4.5049,-4.5112,-4.6054,-4.6077,-4.5332,-4.385,-4.3732,-4.4451,-4.2827,-4.2543,-4.3054,-4.1567,-4.0836,-4.0419,0.0,0.0,0.0,0.0,0.0,0.0,0.0,-3.1271,-3.0477,-2.9808,-2.9093,-2.8363,-2.7703,-2.693,-2.6193,-2.5712,-2.5059,-2.4715,-2.5579,-2.4744,-2.4625,-2.8043,-2.8955,-3.0252,-3.4428,-3.4659,-3.4,-3.3409,-3.4525,-3.5508,-3.5508,-3.6862,-3.799,-3.799,-3.799,-3.799,-3.799,-3.799,-3.7789,-3.7236,-3.7186,-3.696,-3.6455,-3.6405,-3.6405,-3.6405,-3.6405,-3.6405,-3.6405,-3.6405,-3.6405,-3.6405,-3.6405,-3.6405,-3.6405,-3.6405,-3.6405,-3.6405,-3.6405,-3.6405,-3.6405,-3.6405,-3.6405,-3.631,-3.4921,-3.3322,-3.1372,-2.8198,-2.7572,-2.8181,-2.6366,-2.5693,-2.5693,0.0,0.0,0.0,0.0,0.0,0.0,0.0,0.0,-4.4344,-4.4581,-4.4615,0.0,0.0,0.0,0.0,0.0,0.0,-4.0373,-4.0072,-3.9771,-3.9638,-3.9629,-3.9856,-3.9821,-3.9409,-3.9978,-4.1284,-4.331,-4.3407,-4.3958,-4.4951,-4.4379,-4.4035,-4.3794,-4.2763,-4.2543,-4.2929,-4.2328,-4.226,-4.2476,-4.1418,-4.0968,-4.0675,0.0,0.0,0.0,0.0,0.0,0.0,0.0,0.0,0.0,-2.978,-2.9307,-2.8738,-2.7258,-2.6801,-2.6578,-2.5481,-2.6004,-2.66,-2.5624,-2.5958,-2.6936,-2.8441,-2.8188,-2.8716,-3.2466,-3.2792,-3.2459,-3.2501,-3.3967,-3.4945,-3.4197,-3.5664,-3.6985,-3.7362,-3.7086,-3.6883,-3.6883,-3.6883,-3.6784,-3.6681,-3.6656,-3.6581,-3.6405,-3.6405,-3.6405,-3.6405,-3.6405,-3.6405,-3.6405,-3.5981,-3.5981,-3.6405,-3.5981,-3.5981,-3.6405,-3.6405,-3.6405,-3.6405,-3.6405,-3.6405,-3.6405,-3.6405,-3.6405,-3.6191,-3.357,-3.1249,-2.9103,-2.7309,-2.6912,-2.7272,-2.6094,-2.5693,-2.5693,0.0,0.0,0.0,0.0,0.0,0.0,-4.3741,-4.4012,-4.4215,-4.4581,-4.4615,-4.4615,0.0,0.0,0.0,-4.2354,-4.0834,-3.9603,-3.8866,-3.8842,-3.8746,-3.8494,-3.934,-3.9791,-3.9798,-3.9798,-4.0956,-4.329,-4.2392,-4.2222,-4.2747,-4.2645,-4.2469,-4.2237,-4.1944,-4.2076,-4.253,-4.1493,-4.1318,-4.162,-4.0549,-4.0288,-4.0318,0.0,0.0,0.0,0.0,0.0,0.0,0.0,0.0,0.0,-2.9875,-2.9487,-2.9154,-2.7894,-2.684,-2.6097,-2.5876,-2.6017,-2.6171,-2.5944,-2.6677,-2.7708,-2.889,-2.8852,-2.9179,-3.1345,-3.186,-3.1909,-3.1924,-3.3208,-3.4163,-3.3883,-3.4847,-3.5886,-3.6762,-3.6606,-3.6405,-3.6405,-3.6405,-3.6405,-3.6405,-3.6405,-3.6405,-3.6405,-3.6405,-3.6405,-3.6405,-3.6405,-3.6304,-3.6031,-3.5683,-3.5558,-3.5705,-3.5378,-3.5332,-3.5705,-3.5705,-3.5705,-3.5705,-3.5931,-3.6031,-3.6031,-3.6031,-3.5441,-3.4318,-3.2643,-3.041,-2.7949,-2.7012,-2.6699,-2.668,-2.5947,-2.5693,-2.5693,0.0,0.0,-4.0823,-4.2151,0.0,0.0,-4.4276,-4.391,-4.3707,-4.4513,-4.4547,-4.4513,0.0,0.0,0.0,-4.2151,-3.9951,-3.8263,-3.7459,-3.7852,-3.7807,-3.7235,-3.9282,-4.0436,-4.0494,-4.0427,-4.0666,-4.1205,-4.0675,-4.0108,-3.9622,-4.083,-4.1146,-4.071,-4.1191,-4.1833,-4.244,-4.0321,-3.9814,-4.0407,-3.916,-3.9001,-3.9435,-3.874,0.0,0.0,0.0,0.0,0.0,0.0,0.0,0.0,-3.0156,-2.9596,-2.9423,-2.9057,-2.7053,-2.5217,-2.6601,-2.5481,-2.4389,-2.6465,-2.7168,-2.7715,-2.9316,-3.0312,-3.0879,-3.084,-3.1479,-3.1885,-3.1504,-3.2199,-3.3067,-3.3915,-3.4239,-3.4824,-3.6073,-3.631,-3.6405,-3.6405,-3.6405,-3.6405,-3.6405,-3.6405,-3.6405,-3.6405,-3.6405,-3.638,-3.6329,-3.6329,-3.6031,-3.5433,-3.5382,-3.5132,-3.468,-3.4675,-3.4675,-3.468,-3.468,-3.468,-3.4751,-3.5182,-3.5433,-3.5433,-3.5433,-3.3885,-3.1471,-3.1967,-3.0432,-2.7669,-2.7148,-2.6738,-2.6387,-2.5869,-2.5693,-2.5693,0.0,0.0,-4.2794,-4.3132,0.0,0.0,-4.4445,-4.391,-4.3707,-4.4513,-4.4045,-4.3673,-4.3673,-4.2997,0.0,-4.0696,-3.9354,-3.8053,-3.6721,-3.7087,-3.7285,-3.7203,-3.9266,-4.0667,-4.1183,-4.0666,-4.0217,-3.9828,-3.9198,-3.9343,-4.0266,-3.8959,-3.8905,-3.99,-3.9307,-3.9224,-3.9484,-3.8904,-3.8471,-3.8196,-3.7885,-3.7852,-3.7936,-3.7669,-3.7378,0.0,0.0,0.0,0.0,0.0,0.0,0.0,-3.0719,-2.9933,-2.9167,-2.8144,-2.6926,-2.5862,-2.5793,-2.5275,-2.5098,-2.6615,-2.8281,-2.9707,-3.0449,-3.0762,-3.0781,-3.043,-3.0482,-3.0492,-3.0131,-3.0797,-3.1379,-3.1219,-3.3005,-3.4483,-3.4775,-3.5715,-3.6405,-3.6405,-3.6405,-3.6405,-3.6405,-3.6405,-3.6405,-3.6405,-3.6405,-3.6182,-3.5708,-3.5683,-3.5433,-3.4881,-3.4474,-3.4399,-3.468,-3.4299,-3.4299,-3.468,-3.468,-3.468,-3.468,-3.4806,-3.4856,-3.4856,-3.4856,-3.3403,-3.1054,-3.1143,-2.9806,-2.765,-2.6816,-2.666,-2.6777,-2.5966,-2.5693,-2.5693,0.0,0.0,0.0,0.0,0.0,0.0,0.0,0.0,-4.4113,-4.4547,-4.391,-4.3375,-4.3375,-4.2726,0.0,0.0,-3.9387,-3.8095,-3.6989,-3.702,-3.7416,-3.8179,-3.9917,-4.0734,-4.0427,-4.0397,-3.9918,-3.8931,-3.8571,-3.8451,-3.8561,-3.8098,-3.8148,-3.8623,-3.8766,-3.8695,-3.8442,-3.8002,-3.7628,-3.7295,-3.7002,-3.7093,-3.7336,-3.6646,-3.6564,-3.6621,-3.5582,0.0,0.0,0.0,0.0,0.0,0.0,0.0,-2.9821,-2.8993,-2.7519,-2.6134,-2.6427,-2.5958,-2.5885,-2.7799,-2.9082,-3.0019,-3.0449,-3.041,-3.0195,-2.9941,-3.0059,-3.0059,-2.9648,-2.9804,-3.0077,-3.0287,-3.1491,-3.2905,-3.4239,-3.4969,-3.5667,-3.631,-3.6405,-3.6405,-3.6405,-3.6405,-3.6304,-3.5981,-3.5981,-3.573,-3.5132,-3.5107,-3.4856,-3.4349,-3.4048,-3.3897,-3.3922,-3.3646,-3.3646,-3.3922,-3.3922,-3.3922,-3.3947,-3.4198,-3.4198,-3.3947,-3.4223,-3.3339,-3.1687,-3.1115,-3.0012,-2.8522,-2.7021,-2.6523,-2.6641,-2.5927,-2.5693,-2.5693,0.0,0.0,0.0,0.0,0.0,0.0,0.0,0.0,0.0,-4.4581,-4.3775,-4.3206,-4.3206,-4.2455,-4.161,0.0,0.0,0.0,-3.751,-3.7359,-3.7958,-3.9408,-4.06,-4.0766,-3.9768,-4.0068,-3.9619,-3.8392,-3.8272,-3.7734,-3.6802,-3.7767,-3.7943,-3.7551,-3.8591,-3.8551,-3.7741,-3.7118,-3.6755,-3.6546,-3.6042,-3.6264,-3.6787,-3.5736,-3.5622,-3.5852,-3.4691,-3.4262,-3.4237,-3.397,0.0,0.0,0.0,0.0,-3.0471,-3.0217,-2.8229,-2.6357,-2.7438,-2.704,-2.6839,-2.8863,-2.9509,-2.9668,-3.0,-2.9824,-2.9626,-2.9626,-2.9785,-2.9863,-2.9512,-2.9101,-2.905,-2.9816,-3.0172,-3.1081,-3.3353,-3.4068,-3.48,-3.5782,-3.6213,-3.638,-3.6279,-3.6254,-3.6031,-3.5533,-3.5408,-3.5107,-3.46,-3.4575,-3.4324,-3.3771,-3.3746,-3.3545,-3.3093,-3.2993,-3.2918,-3.2918,-3.2842,-3.2842,-3.2943,-3.3395,-3.342,-3.3093,-3.3571,-3.326,-3.2392,-3.1431,-3.0405,-2.9291,-2.7422,-2.6586,-2.6328,-2.5849,-2.5693,-2.5693,0.0,0.0,0.0,0.0,0.0,0.0,0.0,0.0,0.0,0.0,-4.3335,-4.2455,-4.2455,-4.123,-4.0062,-3.9202,-3.8782,-3.8254,-3.7394,0.0,0.0,-4.0102,-4.0411,-4.0731,-4.1123,-4.0098,-3.917,-3.8392,-3.7823,-3.763,-3.7872,-3.7644,-3.7481,-3.7425,-3.7606,-3.694,-3.5702,-3.5597,-3.5161,-3.4493,-3.4388,-3.4718,-3.5205,-3.5033,-3.5095,-3.5233,-3.5033,-3.4975,-3.4898,-3.4394,-3.3671,0.0,0.0,0.0,-2.9919,-2.9879,-2.8299,-2.6782,-2.7617,-2.8009,-2.8175,-2.841,-2.9023,-2.959,-2.9704,-2.9665,-2.9626,-2.9626,-2.9316,-2.9062,-2.9023,-2.8652,-2.8413,-2.8548,-2.9565,-3.0411,-3.0773,-3.2905,-3.4244,-3.3935,-3.5371,-3.6182,-3.5658,-3.5608,-3.5583,-3.5508,-3.5056,-3.46,-3.4048,-3.3997,-3.3746,-3.3194,-3.3237,-3.3144,-3.3111,-3.2566,-3.2315,-3.2315,-3.1838,-3.1863,-3.234,-3.2416,-3.2667,-3.3111,-3.3187,-3.2518,-3.1416,-3.1663,-3.0458,-2.839,-2.807,-2.7337,-2.6328,-2.5849,-2.5693,-2.5693,0.0,0.0,0.0,0.0,0.0,0.0,0.0,0.0,0.0,0.0,0.0,-4.2286,-4.2286,-4.0993,-3.9902,-3.9446,-3.8916,-3.8371,-3.7842,-3.842,-3.8954,-3.9219,-3.9249,-3.9247,-3.9176,-3.8601,-3.7973,-3.7315,-3.7375,-3.7451,-3.7569,-3.8091,-3.8335,-3.834,-3.7961,-3.6851,-3.5277,-3.4895,-3.4313,-3.3578,-3.3578,-3.3963,-3.4439,-3.3764,-3.4156,-3.491,-3.3948,-3.4188,-3.4931,-3.4368,-3.3704,-3.305,-3.2734,0.0,0.0,0.0,-2.9164,-2.8501,-2.8759,-2.8115,-2.7675,-2.8981,-2.8913,-2.8633,-2.9101,-2.9023,-2.8848,-2.8848,-2.8711,-2.8633,-2.8867,-2.8574,-2.8301,-2.8301,-2.8794,-2.946,-3.0203,-3.1756,-3.3059,-3.3908,-3.5106,-3.5931,-3.6006,-3.5683,-3.5382,-3.5056,-3.4575,-3.4022,-3.347,-3.3119,-3.2993,-3.3111,-3.2466,-3.229,-3.2591,-3.2039,-3.1763,-3.1763,-3.1512,-3.1512,-3.1763,-3.1763,-3.224,-3.3111,-3.3111,-3.2959,-3.2592,-3.1083,-3.0028,-2.912,-2.7469,-2.6486,-2.5996,-2.5752,-2.5693,-2.5693,0.0,0.0,0.0,0.0,0.0,0.0,0.0,0.0,0.0,0.0,0.0,-4.2233,-4.2233,0.0,0.0,0.0,-3.9126,-3.8679,-3.8228,-3.8526,-3.8547,-3.8144,-3.8115,-3.7871,-3.737,-3.7221,-3.6922,-3.641,-3.6742,-3.6969,-3.702,-3.8032,-3.8684,-3.8943,-3.8506,-3.7131,-3.5247,-3.4577,-3.395,-3.3446,-3.3316,-3.3621,-3.4116,-3.3391,-3.3822,-3.4627,-3.3181,-3.3472,-3.4446,-3.4032,-3.3475,-3.3002,-3.3055,-3.2241,0.0,0.0,0.0,-2.9716,-2.939,-2.8078,-2.736,-2.9428,-2.8725,-2.7815,-2.884,-2.8475,-2.7921,-2.7795,-2.7649,-2.7688,-2.8109,-2.8226,-2.8301,-2.8301,-2.8301,-2.8654,-2.965,-3.0627,-3.1739,-3.3254,-3.4388,-3.5258,-3.5906,-3.5454,-3.4956,-3.4751,-3.4073,-3.352,-3.3093,-3.2516,-3.2416,-3.2842,-3.1888,-3.1587,-3.1989,-3.1461,-3.1135,-3.0984,-3.0984,-3.106,-3.1185,-3.1185,-3.1712,-3.2709,-3.2792,-3.2996,-3.3049,-3.0806,-2.9712,-2.9324,-2.7058,-2.5965,-2.5693,-2.5693,-2.5693,-2.5693,0.0,0.0,0.0,0.0,0.0,0.0,0.0,0.0,0.0,0.0,0.0,-4.2105,-4.2105,-4.0889,-3.9682,-3.8732,-3.9268,-3.9239,-3.8261,-3.7599,-3.7247,-3.7356,-3.7359,0.0,-3.7198,-3.6768,-3.644,-3.6212,-3.578,-3.6038,-3.6816,-3.6904,-3.751,-3.8567,-3.8686,-3.7458,-3.5142,-3.4488,-3.4241,-3.4198,-3.3611,-3.3734,-3.427,-3.4813,-3.4753,-3.4227,-3.3583,-3.3393,-3.347,-3.3302,-3.2895,-3.252,-3.3055,-3.2324,-3.1278,0.0,0.0,0.0,-2.8629,-2.8089,-2.8107,-2.919,-2.8351,-2.7607,-2.9152,-2.8217,-2.6923,-2.6334,-2.5847,-2.5702,-2.6173,-2.7349,-2.8301,-2.8301,-2.8301,-2.8335,-2.8388,-2.9545,-3.0512,-3.086,-3.2506,-3.3931,-3.4715,-3.4299,-3.4198,-3.4675,-3.3721,-3.3119,-3.3111,-3.2516,-3.2215,-3.2265,-3.1687,-3.1411,-3.1436,-3.0909,-3.0407,-2.988,-2.988,-3.0156,-3.0658,-3.0658,-3.0959,-3.1512,-3.2039,-3.1902,-3.1359,-3.1178,-2.9784,-2.7715,-2.7552,-2.6764,-2.5693,-2.5693,-2.5693,-2.5693,0.0,0.0,0.0,0.0,0.0,0.0,0.0,0.0,0.0,0.0,0.0,0.0,0.0,-4.0793,-3.9757,-3.9239,-3.9335,-3.9096,-3.8313,-3.7985,-3.7476,-3.6753,-3.6679,-3.6414,-3.5945,-3.577,-3.5413,-3.4901,-3.5175,-3.5466,-3.5777,-3.6468,-3.6975,-3.7272,-3.6904,-3.6369,-3.5537,-3.3739,-3.2975,-3.2946,-3.2854,-3.3181,-3.3752,-3.3539,-3.4085,-3.4756,-3.3332,-3.3284,-3.3897,-3.3864,-3.3189,-3.2492,-3.3055,-3.2379,-3.1424,-3.1307,-3.0658,-3.0004,-3.0372,-2.9451,-2.8537,-2.9432,-2.9398,-2.8956,-2.8166,-2.8384,-2.836,-2.6954,-2.5882,-2.525,-2.5595,-2.6316,-2.7222,-2.8121,-2.8301,-2.8301,-2.8301,-2.9164,-2.9968,-3.0384,-3.2222,-3.3601,-3.3905,-3.4226,-3.4349,-3.4198,-3.3495,-3.3111,-3.3111,-3.219,-3.1838,-3.2215,-3.1009,-3.0357,-3.0357,-3.0181,-2.998,-2.9804,-2.9804,-2.9905,-3.008,-3.008,-3.0382,-3.0909,-3.111,-3.1215,-3.1294,-3.0841,-2.9731,-2.8198,-2.7781,-2.6791,-2.5693,-2.5693,-2.5693,-2.5693,0.0,0.0,0.0,-4.0443,0.0,-4.1924,-4.1149,-4.1372,-4.182,-4.2425,0.0,0.0,0.0,0.0,-3.9727,-3.9501,-3.8712,-3.8139,-3.795,-3.747,-3.685,-3.6045,-3.5977,-3.5737,-3.5198,-3.4935,-3.4581,-3.4154,-3.4404,-3.4493,-3.4478,-3.5204,-3.5536,-3.5605,-3.4631,-3.4932,-3.5982,-3.3728,-3.2818,-3.2851,-3.2795,-3.2915,-3.3185,-3.3425,-3.4,-3.4547,-3.3547,-3.3514,-3.3994,-3.416,-3.3599,-3.2831,-3.3139,-3.2456,-3.1482,-3.1336,-3.0896,-3.0592,-3.1303,-3.0294,-2.922,-3.0125,-2.9791,-2.9087,-2.8677,-2.8511,-2.8123,-2.7078,-2.5694,-2.4783,-2.5127,-2.5147,-2.5666,-2.7311,-2.7565,-2.7726,-2.8228,-2.8745,-2.9312,-2.9973,-3.1296,-3.2543,-3.341,-3.3657,-3.39,-3.4154,-3.3495,0.0,-3.2792,-3.1888,-3.1386,-3.1411,-3.0357,-2.9804,-2.9804,-2.9804,-2.9804,-2.9804,-2.9804,-2.9804,-2.9804,-2.9804,-2.998,-3.0331,-3.0331,-3.0533,-3.077,-3.0289,-2.9157,-2.7718,-2.7268,-2.6445,-2.5508,-2.5508,-2.5557,-2.5693,-4.1354,-4.1422,-4.1437,-4.1377,-4.1361,-4.1392,-4.1421,-4.1426,-4.1459,-4.1459,0.0,0.0,0.0,0.0,0.0,-3.9515,-3.7517,-3.6481,-3.7159,-3.5995,-3.5279,-3.5278,-3.5309,-3.5306,-3.5198,-3.4442,-3.4022,-3.3932,-3.3412,-3.3064,-3.2928,-3.2989,-3.3248,-3.3644,-3.2169,-3.3394,-3.6394,-3.4434,-3.3809,-3.4099,-3.3504,-3.2972,-3.2796,-3.4739,-3.4709,-3.3694,-3.4354,-3.4144,-3.3606,-3.4179,-3.3969,-3.3457,-3.3352,-3.2482,-3.1482,-3.1336,-3.1307,-3.1278,0.0,0.0,0.0,-3.1091,-2.9389,-2.8087,-3.0613,-2.8513,-2.6151,-2.6536,-2.5288,-2.4248,-2.4765,-2.3941,-2.3813,-2.5737,-2.61,-2.6608,-2.8014,-2.8281,-2.8602,-2.9362,-2.9504,-3.0543,-3.3122,-3.251,-3.268,-3.4495,-3.3696,-3.2842,-3.229,-3.1712,-3.0909,-2.9829,-2.9804,-2.9804,-2.9804,-2.9804,-2.9804,-2.9804,-2.9804,-2.9804,-2.9804,-2.9804,-2.9804,-2.9804,-2.9804,-2.9721,-2.9606,-2.9587,-2.8221,-2.6148,-2.6104,-2.5666,-2.5106,-2.5106,-2.5332,-2.5674,-4.0756,-4.1482,-4.179,-4.0872,-4.0697,-4.0492,-4.0041,-3.9985,-4.0165,0.0,0.0,0.0,-4.0391,-4.0324,-4.0255,-4.0274,-3.9214,-3.8173,-3.7393,-3.6999,-3.6408,-3.5478,-3.5858,-3.5824,-3.5198,-3.4839,-3.3951,-3.2555,-3.3213,-3.2896,-3.1729,-3.2597,-3.3311,-3.3868,-3.2825,-3.3106,-3.4239,-3.2382,-3.2183,-3.3125,-3.2938,-3.3488,-3.4515,-3.4927,-3.5604,-3.6297,-3.6028,-3.5222,-3.4478,-3.5981,-3.4486,-3.2048,-3.2013,-3.1775,-3.1511,-3.1482,-3.1453,-3.1453,-3.1395,0.0,0.0,0.0,0.0,0.0,-2.8787,-2.8867,-2.8935,-2.7648,-2.5873,-2.4762,-2.5534,-2.391,-2.3087,-2.5237,-2.5847,-2.6264,-2.6662,-2.7618,-2.8402,-2.8582,-2.9486,-3.0197,-3.0543,-3.1752,-3.2672,0.0,-3.3187,-3.3194,-3.342,-3.2516,-3.1311,-2.9854,-3.0181,-3.0206,-2.9804,-2.9804,-2.9804,-2.9804,-2.9804,-2.9804,-2.9804,-2.9804,-2.9804,-2.9804,-2.9804,-2.9799,-2.9717,-2.9268,-2.8207,-2.6801,-2.6402,-2.5553,-2.459,-2.459,-2.4883,-2.5215,-4.1272,-4.1871,-4.2081,-4.0995,-4.0816,-4.0487,-3.9559,-3.9373,-3.9553,0.0,0.0,0.0,-3.9945,-4.0483,-4.0615,-4.0104,-3.9377,-3.8373,-3.7062,-3.6454,-3.5797,-3.5105,-3.5422,-3.5512,-3.5326,-3.4806,-3.3815,-3.2315,-3.243,-3.1813,-3.0563,-3.1366,-3.1936,-3.2254,-3.2001,-3.2059,-3.2225,-3.0877,-3.1087,-3.2353,-3.2511,-3.3306,-3.4448,-3.5085,-3.5833,-3.6626,-3.6806,-3.6357,-3.5884,-3.6998,-3.5297,-3.2706,-3.2407,-3.1959,-3.1511,-3.1511,-3.1511,-3.1511,-3.1511,-3.1424,-3.119,-3.0688,0.0,0.0,-2.9282,-2.9252,-2.9343,-2.8641,-2.7366,-2.6465,-2.7002,-2.5248,-2.4199,-2.5663,-2.5824,-2.6082,-2.6915,-2.778,-2.8301,-2.8301,-2.9166,-2.9752,-2.9817,-3.0893,-3.1931,-3.2629,-3.2644,-3.2753,-3.3151,-3.2365,-3.1336,-3.0181,-3.0457,-3.0357,-2.9804,-2.9804,-2.9804,-2.9804,-2.9804,-2.9804,-2.9804,-2.9804,-2.9804,-2.9804,-2.9804,-2.9521,-2.9013,-2.8238,-2.7759,-2.7451,-2.6689,-2.5732,-2.4756,-2.4323,-2.4434,-2.4766,0.0,-4.247,-4.2252,-4.1594,-4.1414,-4.0965,-3.9672,-3.9433,-3.9403,0.0,-3.9565,-3.9617,-3.9603,-4.0673,-4.0883,-3.953,-3.8756,-3.7751,-3.6374,-3.505,-3.4333,-3.4415,-3.4474,-3.4741,-3.5248,-3.4518,-3.3537,-3.2464,-3.1417,-3.0366,-2.9411,-2.9726,-2.9842,-2.9839,-3.0417,-3.0598,-3.0447,-2.9839,-3.0361,-3.1666,-3.1919,-3.2573,-3.3579,-3.5148,-3.5752,-3.5892,-3.7191,-3.7524,-3.7375,-3.7255,-3.6118,-3.4683,-3.3784,-3.2736,-3.178,-3.157,-3.154,-3.16,-3.154,-3.1424,-3.1307,-3.1307,-3.0628,0.0,-3.0911,-2.9693,-2.8635,-2.9407,-2.9102,-2.8672,-2.8672,-2.7231,-2.626,-2.6646,-2.6115,-2.6194,-2.781,-2.8174,-2.8301,-2.8301,-2.8672,-2.9237,-3.0067,-3.0141,-3.0817,-3.2511,-3.2318,-3.216,-3.2181,-3.1813,-3.1286,-3.0633,-3.0683,-3.0407,-2.9804,-2.9804,-2.9804,-2.9804,-2.9804,-2.9804,-2.9804,-2.9804,-2.9804,-2.9804,-2.9804,-2.9145,-2.8004,-2.7075,-2.7075,-2.7643,-2.6543,-2.5743,-2.5044,-2.4068,-2.3984,-2.4336,-4.2381,-4.2643,-4.2713,-4.2282,-4.1628,-4.0926,-4.03,-3.9593,-3.9407,-4.0091,-4.0631,-4.0934,-4.0993,-4.1221,-4.1085,-4.0262,-3.9125,-3.7655,-3.5732,-3.4881,-3.4238,-3.3725,-3.4234,-3.4261,-3.3746,-3.4404,-3.3268,-3.0311,-3.102,-3.0234,-2.8093,-2.8734,-2.931,-2.9808,-2.9931,-2.9901,-2.9777,-2.9654,-2.9923,-3.0452,-2.995,-3.1541,-3.4247,-3.4674,-3.5889,-3.7484,-3.8614,-3.8332,-3.7255,-3.6237,-3.6297,-3.6447,-3.4203,-3.3694,-3.3604,-3.1959,-3.1869,-3.2168,-3.166,-3.1482,-3.1453,-3.1307,-3.1161,0.0,-3.0358,-3.0275,-3.0135,-2.9624,-2.9376,-2.9188,-2.8944,-2.7783,-2.705,-2.7477,-2.7142,-2.6774,-2.6567,-2.7565,-2.8301,-2.8301,-2.8672,-2.8996,-2.9169,-2.9749,-3.0739,-3.2162,-3.3025,-3.3134,-3.2223,-3.2541,-3.2089,-3.0658,-3.1009,-3.0783,-2.9804,-2.9804,-2.9804,-2.9804,-2.9804,-2.9804,-2.9804,-2.9804,-2.9804,-2.9804,-2.9804,-2.9145,-2.8084,-2.7884,-2.6849,-2.5315,-2.4211,-2.3687,-2.3525,-2.3306,-2.3535,-2.3867,-4.2703,-4.2773,-4.2444,-4.1165,-4.0978,-4.0495,-3.9191,-3.8966,-3.9099,-3.9535,-4.0531,-4.1096,-4.077,-4.1155,-4.0863,-3.9492,-3.8528,-3.7219,-3.5521,-3.4485,-3.3819,-3.3515,-3.3453,-3.3509,-3.3713,-3.4206,-3.3186,-3.0596,-3.0926,-2.9882,-2.7507,-2.8027,-2.8552,-2.9084,-2.9232,-2.9382,-2.9412,-2.8816,-2.8872,-2.9416,-3.0082,-3.1904,-3.4251,-3.4823,-3.5845,-3.7137,-3.8219,-3.85,-3.8302,-3.7674,-3.7225,-3.6716,-3.54,-3.4532,-3.3784,-3.2796,-3.2527,-3.2348,-3.169,-3.1511,-3.1482,-3.1424,-3.1336,0.0,0.0,-3.068,-3.0644,-3.0135,-3.0265,-3.0405,-3.0262,-2.944,-2.8929,-2.9293,-2.8835,-2.8185,-2.7344,-2.7847,-2.8223,-2.8008,-2.8535,-2.8848,-2.8633,-2.9166,-3.0057,-3.1362,-3.237,-3.2838,-3.2649,-3.2918,-3.2566,-3.1436,-3.1411,-3.1009,-3.0206,-2.993,-2.9804,-2.9804,-2.9804,-2.9804,-2.9804,-2.9804,-2.9804,-2.9804,-2.9804,-2.9145,-2.8084,-2.8084,-2.7157,-2.5546,-2.4382,-2.4071,-2.4186,-2.3634,-2.373,-2.4082,-4.2545,-4.2543,-4.1789,-3.9682,-4.008,-4.0022,-3.7997,-3.8385,-3.8996,-3.9113,-4.0601,-4.1347,-4.0537,-4.1224,-4.1092,-3.9314,-3.8336,-3.7219,-3.586,-3.4543,-3.3726,-3.3515,-3.2885,-3.2942,-3.3771,-3.3792,-3.2865,-3.0911,-3.0623,-2.932,-2.7153,-2.7369,-2.7699,-2.815,-2.8544,-2.8801,-2.8899,-2.8019,-2.8072,-2.8912,-3.0704,-3.2093,-3.3198,-3.4272,-3.509,-3.5751,-3.7013,-3.8069,-3.8804,-3.8868,-3.7783,-3.6361,-3.6174,-3.507,-3.3753,-3.3092,-3.2825,-3.2497,-3.1544,-3.1365,-3.1482,-3.1482,-3.1365,-3.125,0.0,0.0,0.0,-3.0611,-3.1037,-3.14,-3.1255,-3.0783,-3.0481,-3.0697,-3.0109,0.0,0.0,-2.861,0.0,-2.7903,-2.8582,-2.8937,-2.8502,-2.8913,-2.9662,-3.0758,-3.1553,-3.2366,-3.3201,-3.3187,-3.2817,-3.224,-3.1687,-3.1135,-3.0633,-3.008,-2.9804,-2.9804,-2.9905,-2.9905,-2.9804,-2.9905,-2.9955,-2.9955,-2.9955,-2.9367,-2.8433,-2.8433,-2.7784,-2.671,-2.5677,-2.5337,-2.5303,-2.4565,-2.4465,-2.4762,-4.0861,-4.1302,-4.0916,-3.8953,-3.9634,-3.9974,-3.8628,-3.8967,-3.9592,-4.0139,-4.2197,-4.3189,-4.1941,-4.2563,-4.2788,-4.2016,-4.022,-3.8597,-3.7237,-3.5977,-3.4715,-3.3544,-3.3425,-3.3003,-3.2253,-3.2812,-3.1706,-2.8823,-2.9378,-2.8591,-2.6575,-2.6627,-2.6977,-2.7635,-2.8148,-2.8129,-2.7735,-2.808,-2.8753,-2.9707,-3.0438,-3.0305,-2.9827,-3.1257,-3.2429,-3.3645,-3.5668,-3.6448,-3.6637,0.0,-3.657,-3.5816,0.0,-3.4981,-3.4673,-3.1686,0.0,0.0,-3.1129,-3.0955,-3.1307,-3.1307,-3.1307,-3.1307,-3.1279,0.0,-3.1219,-3.0483,0.0,-3.1102,-3.0397,0.0,0.0,-3.0076,-2.9635,0.0,-2.8638,-2.9472,-2.9685,-2.8311,-2.9239,-2.9756,-2.925,-2.9864,-3.0624,-3.1354,-3.1878,-3.2646,-3.3746,-3.3345,-3.2817,-3.224,-3.1687,-3.1135,-3.0633,-3.008,-2.9804,-2.9804,-3.0281,-3.0256,-2.9804,-3.0306,-3.0532,-3.0532,-3.0532,-3.0154,-2.9636,-2.9636,-2.8939,-2.7867,-2.7247,-2.6346,-2.5455,-2.5853,-2.6041,-2.6083,-3.9481,-4.0572,-4.04,-3.7845,-3.8557,-3.9024,-3.7613,-3.8796,-4.01,-4.0731,-4.177,-4.2412,-4.2195,-4.21,-4.1909,-4.1611,-4.0263,-3.902,-3.8033,-3.6776,-3.5639,-3.4711,-3.3482,-3.2733,-3.2576,-3.2395,-3.1237,-2.9067,-2.9372,-2.8451,-2.6499,-2.6499,-2.6822,-2.7429,-2.7931,-2.8237,-2.8365,-2.8915,-2.9048,-2.89,-2.9779,-2.9492,-2.885,-3.1727,-3.3305,-3.4112,-3.4995,-3.5694,-3.6235,0.0,-3.5826,0.0,0.0,0.0,0.0,-3.2037,0.0,0.0,0.0,0.0,0.0,0.0,0.0,0.0,-3.1368,0.0,-3.1392,0.0,0.0,0.0,0.0,0.0,0.0,0.0,-3.0749,-3.0439,0.0,0.0,-3.0673,-2.8757,0.0,0.0,-2.9656,-3.0229,-3.1038,-3.2129,-3.2098,-3.2435,-3.3376,-3.3194,-3.2968,-3.2717,-3.2164,-3.1763,-3.1537,-3.1009,-3.0708,-3.0733,-3.0959,-3.0934,-3.0733,-3.0959,-3.106,-3.106,-3.106,-3.0941,-3.0745,-3.0745,-3.0455,-3.0013,-3.011,-2.9005,-2.7392,-2.7677,-2.7918,-2.8114,-3.7577,-3.894,-3.9053,-3.6455,-3.7277,-3.795,-3.6974,-3.8404,-3.9869,-4.0485,-4.092,-4.1427,-4.2096,-4.1785,-4.1719,-4.2337,-4.1192,-4.0173,-3.9559,-3.8093,-3.6896,-3.6058,-3.4017,-3.3029,-3.3254,-3.2366,-3.1005,-2.9236,-2.9236,-2.8292,-2.6499,-2.6499,-2.67,-2.7128,-2.7645,-2.8197,-2.8712,-2.9327,-2.9352,-2.9076,-2.9905,-2.993,-2.9729,-3.2265,-3.3632,-3.4236,-3.4079,-3.4468,-3.5103,-3.5219,-3.4562,0.0,-3.5036,-3.3937,-3.2226,0.0,0.0,0.0,-2.9487,0.0,0.0,0.0,0.0,0.0,0.0,0.0,0.0,0.0,0.0,0.0,0.0,0.0,0.0,0.0,0.0,-3.1366,0.0,-3.1246,0.0,0.0,0.0,0.0,0.0,-3.0347,-3.1087,-3.2369,-3.2187,-3.2381,-3.3251,-3.3169,-3.3111,-3.3111,-3.2516,-3.2215,-3.2215,-3.1662,-3.1386,-3.1386,-3.1537,-3.1537,-3.1386,-3.1537,-3.1612,-3.1612,-3.1612,-3.1712,-3.1863,-3.1863,-3.1863,-3.1888,-3.229,-3.1436,-2.9929,-2.9596,-2.9646,-2.9897,-3.4638,-3.5773,-3.625,-3.4737,-3.5704,-3.6851,-3.7268,-3.7993,-3.8635,-3.919,-3.9984,-4.0875,-4.1807,-4.2244,-4.3353,-4.5661,-4.4182,-4.2947,-4.2303,-4.0397,-3.8721,-3.7404,-3.5459,-3.4286,-3.3965,-3.2665,-3.0871,-2.8519,-2.8519,-2.7829,-2.6499,-2.6499,-2.6499,-2.6549,-2.7102,-2.762,-2.8172,-2.8687,-2.9854,-3.1286,-3.1311,-3.1964,-3.2817,0.0,-3.2181,-3.3079,-3.2483,0.0,0.0,-3.275,-3.2514,0.0,0.0,0.0,0.0,0.0,0.0,0.0,0.0,0.0,0.0,-2.9109,0.0,0.0,0.0,0.0,-3.1307,0.0,0.0,0.0,0.0,0.0,0.0,0.0,0.0,0.0,0.0,0.0,0.0,0.0,0.0,0.0,0.0,-3.0197,-3.0693,0.0,-3.2068,-3.2699,-3.3822,-3.337,-3.3111,-3.3111,-3.2516,-3.2215,-3.2215,-3.1662,-3.1386,-3.1411,-3.1938,-3.1913,-3.1411,-3.1938,-3.219,-3.219,-3.219,-3.2516,-3.3061,-3.3061,-3.3061,-3.3061,-3.3043,-3.3043,-3.2828,-3.1577,-3.111,-3.1134,-3.4229,-3.4486,-3.471,-3.446,-3.5136,-3.5902,-3.6442,-3.7913,-3.94,-4.0673,-4.0792,-4.1439,-4.3307,-4.302,-4.3058,-4.3957,-4.393,-4.3286,-4.1826,-4.1113,-4.0307,-3.9439,-3.7075,-3.5687,-3.5322,-3.3581,-3.1504,-2.9149,-2.8741,-2.7987,-2.7027,-2.6675,-2.67,-2.7052,-2.757,-2.8348,-2.9277,-3.0181,-3.0884,-3.1386,-3.1386,-3.1838,-3.2516,0.0,-3.2516,-3.2491,-3.229,-3.2215,0.0,-3.2336,-3.2281,-3.2245,-3.2931,-3.2406,-3.1487,-3.1393,-3.1177,0.0,0.0,0.0,-3.0736,-2.9337,0.0,0.0,0.0,0.0,0.0,0.0,0.0,0.0,0.0,0.0,0.0,0.0,0.0,0.0,0.0,0.0,-3.1032,0.0,0.0,0.0,0.0,0.0,0.0,0.0,-3.3255,0.0,-3.3847,-3.337,-3.3111,-3.3111,-3.2893,-3.2792,-3.2792,-3.2591,-3.2558,-3.2516,-3.2692,-3.2692,-3.2516,-3.2692,-3.2792,-3.2792,-3.2792,-3.2893,-3.3111,-3.3111,-3.3111,-3.3111,-3.3111,-3.3111,-3.3025,-3.2612,-3.2481,-3.2239,-3.4262,-3.4022,-3.3947,-3.417,-3.453,-3.4986,-3.551,-3.6925,-3.853,-4.0461,-4.0408,-4.1108,-4.3531,-4.3061,-4.2808,-4.3339,-4.3669,-4.3125,-4.1424,-4.1598,-4.1429,-4.0703,-3.8865,-3.766,-3.7144,-3.5123,-3.2807,-3.0269,-2.9508,-2.8622,-2.757,-2.7052,-2.6977,-2.7329,-2.7444,-2.8373,-2.9829,-3.0532,-3.1286,-3.1989,0.0,-3.219,0.0,0.0,-3.2717,-3.2215,0.0,-3.2215,-3.2215,-3.2215,-3.2215,-3.2315,-3.2893,-3.234,-3.1562,-3.1888,-3.1512,-3.0884,-3.0482,-3.0859,0.0,-2.969,-3.0151,0.0,-2.9201,0.0,-3.0182,0.0,0.0,0.0,0.0,0.0,0.0,0.0,0.0,0.0,0.0,-3.1426,0.0,-3.124,-3.1606,-3.1903,0.0,0.0,0.0,-3.3981,-3.3064,-3.2817,0.0,-3.3269,-3.3111,-3.3111,-3.3111,-3.3111,-3.3111,-3.3111,-3.3111,-3.3111,-3.3111,-3.3111,-3.3111,-3.3111,-3.3111,-3.3111,-3.3111,-3.3111,-3.3111,-3.3111,-3.3111,-3.3111,-3.3111,-3.3111,-3.3111,-3.3111,-3.3111,-3.2766,-3.4731,-3.4349,-3.3972,-3.3947,-3.3947,-3.4123,-3.4675,-3.5232,-3.6411,-3.8693,-3.9095,-4.0083,-4.271,-4.2557,-4.2699,-4.3801,-4.3501,-4.265,-4.1326,-4.1967,-4.2026,-4.1231,-4.0718,-4.0107,-3.9341,-3.7232,-3.4669,-3.1743,-3.0774,-2.9548,-2.817,-2.758,-2.7293,-2.7304,-2.6751,-2.7731,-2.9804,-2.9804,-3.106,-3.3111,-3.3111,-3.3068,-3.3086,-3.3111,-3.2717,-3.2215,-3.2215,-3.2215,-3.2215,-3.2215,-3.224,-3.234,-3.2893,-3.3111,-3.3111,-3.3111,-3.3111,-3.2842,-3.1763,-3.1461,-3.121,-3.0131,0.0,0.0,0.0,0.0,-3.0405,0.0,0.0,0.0,0.0,0.0,0.0,0.0,0.0,0.0,0.0,0.0,-3.0836,-3.0806,-3.1105,-3.1499,0.0,-3.1362,-3.1293,-3.2205,-3.1703,-3.1863,0.0,-3.3043,-3.3043,-3.3162,-3.3093,-3.3093,-3.3162,-3.3093,-3.3111,-3.3111,-3.3111,-3.3111,-3.3111,-3.3111,-3.3111,-3.3111,-3.3111,-3.3111,-3.3111,-3.3111,-3.3111,-3.3111,-3.3111,-3.3111,-3.3111,-3.3119,-3.3093,-3.2766,-3.5282,-3.5182,-3.4956,-3.4575,-3.45,-3.47,-3.5207,-3.6461,-3.8165,-4.04,-4.1404,-4.2494,-4.4035,-4.3708,-4.3189,-4.2697,-4.3388,-4.3169,-4.1474,-4.1983,-4.2446,-4.2778,-4.172,-4.1211,-4.1356,-3.8773,-3.6283,-3.3896,-3.1495,-2.9827,-2.8973,-2.783,-2.7293,-2.7304,-2.6751,-2.7731,-2.9804,-2.9804,-3.106,-3.3111,-3.3111,-3.2817,-3.2491,0.0,-3.2717,-3.2215,-3.2215,-3.2215,-3.2215,-3.2215,-3.2491,-3.2893,-3.3043,-3.3111,-3.3111,-3.3111,-3.3111,-3.3061,-3.2717,-3.2641,-3.2365,-3.126,-3.112,-3.0961,0.0,0.0,0.0,0.0,0.0,0.0,0.0,0.0,0.0,0.0,0.0,0.0,0.0,0.0,0.0,-3.0836,0.0,0.0,-3.1614,-3.1666,-3.215,-3.3158,-3.1727,-3.1662,-3.3596,0.0,-3.239,-3.3646,-3.3294,-3.3269,-3.3696,-3.3294,-3.3111,-3.3111,-3.3111,-3.3111,-3.3111,-3.3111,-3.3111,-3.3111,-3.3111,-3.3111,-3.3111,-3.3111,-3.3111,-3.3111,-3.3111,-3.3111,-3.3162,-3.3545,-3.342,-3.2816,-3.5855,-3.6107,-3.6157,-3.5855,-3.6207,-3.6558,-3.6609,-3.701,-3.8266,-4.0924,-4.1656,-4.2333,-4.3438,-4.3689,-4.3363,-4.2313,-4.2585,-4.2268,-4.0932,-4.1554,-4.2125,-4.243,-4.2623,-4.2549,-4.2216,-4.011,0.0,-3.5568,-3.2463,-3.0519,-2.9624,-2.8038,-2.7293,-2.7304,-2.7002,-2.7795,-2.9478,-3.0432,-3.1562,-3.2717,-3.2968,-3.2893,0.0,-3.2943,-3.2867,-3.2591,-3.2591,-3.2591,-3.2591,-3.2591,-3.2817,-3.3111,-3.3111,-3.3111,-3.3111,-3.3111,-3.3111,-3.3111,-3.3111,-3.3111,-3.296,-3.229,-3.2114,-3.1838,-3.0733,-3.0773,-3.1086,0.0,0.0,-3.1813,0.0,0.0,0.0,0.0,0.0,0.0,0.0,0.0,0.0,0.0,-3.1176,0.0,-3.1209,-3.1178,-3.1479,-3.2308,-3.1048,-3.0809,0.0,0.0,-3.219,-3.3144,-3.3093,-3.3345,-3.3897,-3.3345,-3.3111,-3.3111,-3.3111,-3.3111,-3.3111,-3.3111,-3.3111,-3.3111,-3.3111,-3.3111,-3.3111,-3.3111,-3.3111,-3.3111,-3.3111,-3.3111,-3.3144,-3.3696,-3.3545,-3.2791,-3.643,-3.6958,-3.7236,-3.7111,-3.8114,-3.8768,-3.8492,-3.7764,-3.8291,-4.1225,-4.1379,-4.1505,-4.2439,-4.3263,-4.3388,-4.2414,-4.1756,-4.1094,-4.028,-4.0989,-4.1417,-4.1245,-4.3052,-4.3462,-4.2338,-4.0984,-3.9064,-3.6598,-3.3446,-3.1235,-2.9954,-2.8216,-2.7318,-2.7203,-2.7203,-2.7871,-2.9139,-3.1235,-3.224,-3.2466,-3.2893,-3.3162,-3.3212,-3.3136,-3.3111,-3.3136,-3.3169,-3.3187,-3.3111,-3.3111,-3.3111,-3.3111,-3.3111,-3.3111,-3.3111,-3.3111,-3.3111,-3.3111,-3.3111,-3.3111,-3.3111,-3.3111,-3.3111,-3.286,-3.1838,-3.1612,-3.1612,-3.1612,-3.1352,-3.1772,0.0,0.0,0.0,0.0,0.0,0.0,0.0,0.0,0.0,0.0,0.0,0.0,0.0,-3.0471,-3.0418,-3.0808,-3.0138,0.0,0.0,0.0,-3.2089,-3.2516,-3.2893,-3.337,-3.3997,0.0,-3.3111,-3.3111,-3.3111,-3.3111,-3.3111,-3.3111,-3.3111,-3.3111,-3.3111,-3.3111,-3.3111,-3.3111,-3.3111,-3.3111,-3.3111,-3.3111,-3.3187,-3.3621,-3.3495,-3.2766,-3.701,-3.7487,-3.7588,-3.6707,-3.7863,-3.9295,-4.0551,-4.1354,-4.2183,-4.3237,-4.4091,-4.4518,-4.4217,-4.3966,-4.3539,-4.2886,-4.2389,-4.1735,-4.114,-4.0866,-4.0952,-4.1523,-4.187,-4.2032,-4.1841,-4.0327,-3.842,-3.614,-3.3674,-3.1418,-2.9415,-2.8446,-2.7469,-2.665,-2.665,-2.7781,-2.9729,-3.0984,0.0,-3.3571,-3.3219,-3.3345,-3.3696,-3.3244,-3.3111,-3.3187,-3.3596,-3.347,-3.3111,-3.3111,-3.3111,-3.3111,-3.3111,-3.3111,-3.3111,-3.3111,-3.3111,-3.3111,-3.3111,-3.3111,-3.3111,-3.3111,-3.3111,-3.3061,-3.286,-3.2792,-3.2792,-3.2792,-3.2743,-3.2566,-3.2051,0.0,0.0,0.0,0.0,0.0,0.0,0.0,0.0,0.0,0.0,-3.1387,0.0,0.0,-3.108,-3.1123,-3.0042,-3.0125,0.0,0.0,0.0,0.0,-3.3495,0.0,0.0,0.0,-3.3111,-3.3111,-3.3111,-3.3111,-3.3111,-3.3111,-3.3111,-3.3111,-3.3111,-3.3111,-3.3111,-3.3111,-3.3111,-3.3111,-3.3111,-3.3111,-3.3136,-3.3237,-3.3169,-3.2971,-3.7536,-3.734,-3.7242,-3.7612,-3.926,-4.1028,-4.2409,-4.3815,-4.4493,-4.389,-4.3765,-4.3664,-4.3363,-4.3363,-4.3263,-4.3011,-4.2539,-4.2112,-4.1781,-4.0978,-4.0637,-4.1004,-4.1376,-4.144,-4.1133,-4.0172,-3.8573,-3.6387,-3.3695,-3.1448,-2.9702,-2.8318,-2.7394,-2.6952,-2.7494,-2.8499,0.0,0.0,0.0,-3.3068,-3.337,-3.3495,-3.3495,-3.3822,-3.3746,-3.3571,-3.4123,-3.3972,-3.3495,-3.3495,-3.3319,-3.3111,-3.3111,-3.3111,-3.3111,-3.3111,-3.3111,-3.3111,-3.3111,-3.3111,-3.3111,-3.3111,-3.3111,-3.3111,-3.3111,-3.3111,-3.3111,-3.3111,-3.3111,-3.2742,-3.1587,-3.1177,0.0,0.0,0.0,0.0,0.0,0.0,-3.5023,0.0,0.0,0.0,0.0,0.0,0.0,0.0,0.0,-2.9736,-3.0982,0.0,-3.121,0.0,0.0,0.0,0.0,0.0,0.0,-3.2108,-3.2785,-3.2742,-3.2152,-3.281,-3.3111,-3.3111,-3.3111,-3.3111,-3.3111,-3.3111,-3.3111,-3.3111,-3.3111,-3.3244,-3.3495,-3.3495,-3.3495,-3.3321,-3.7998,-3.7488,-3.7473,-3.9072,-4.1112,-4.2785,-4.3664,-4.5221,-4.5799,-4.4342,-4.3288,-4.269,-4.2564,-4.2841,-4.2986,-4.2986,-4.2539,-4.2213,-4.2213,-4.1128,-4.0526,-4.0526,-4.0951,-4.0908,-4.0236,-3.9734,-3.8477,-3.6354,-3.3698,-3.1584,-3.001,-2.8363,-2.7645,0.0,0.0,0.0,0.0,0.0,-3.2491,-3.2993,-3.3771,-3.3822,-3.352,-3.4399,-3.4374,-3.3997,-3.465,-3.455,-3.4098,-3.4198,-3.3721,-3.3111,-3.3111,-3.3111,-3.3111,-3.3111,-3.3111,-3.3111,-3.3111,-3.3111,-3.3111,-3.3111,-3.3111,-3.3111,-3.3111,-3.3111,-3.3111,-3.3111,-3.3111,-3.2742,-3.1587,-3.1431,0.0,0.0,0.0,0.0,0.0,0.0,0.0,0.0,0.0,0.0,-3.1618,0.0,0.0,0.0,0.0,-2.9611,-3.0203,-3.0237,-3.0738,0.0,0.0,-3.2882,-3.3214,0.0,-3.2196,-3.1223,-3.2239,-3.2152,-3.1223,-3.2525,-3.3111,-3.3111,-3.3111,-3.3111,-3.3111,-3.3111,-3.3111,-3.3111,-3.3111,-3.342,-3.3897,-3.3897,-3.3972,-3.3865,-3.8605,-3.9014,-3.9655,-4.0827,-4.2529,-4.3689,-4.379,-4.5221,-4.6075,-4.5422,-4.4769,-4.4192,-4.3689,-4.3237,-4.2986,-4.2986,-4.2539,-4.2213,-4.2213,-4.1128,-4.0526,-4.0526,-4.0077,-3.9625,-3.907,-3.849,-3.7076,0.0,0.0,-3.1905,0.0,-2.9114,0.0,0.0,0.0,0.0,0.0,-3.2139,-3.337,-3.5157,-3.4756,-3.4625,-3.4575,-3.4675,-3.4374,-3.4048,-3.5056,-3.5082,-3.468,-3.5182,-3.4349,-3.3111,-3.3111,-3.3111,-3.3111,-3.3111,-3.3111,-3.3111,-3.3111,-3.3111,-3.3111,-3.3111,-3.3111,-3.3111,-3.3111,-3.3111,-3.3111,-3.3111,-3.3111,-3.2742,-3.1587,-3.2223,-3.2877,0.0,0.0,0.0,0.0,0.0,-3.5659,-3.4416,0.0,0.0,-3.2037,-3.0895,0.0,0.0,-3.0732,-3.0616,-3.1546,-2.9982,-2.9638,-3.0912,0.0,-3.1439,-3.1105,-3.1297,-3.1311,-3.1223,-3.1311,-3.1311,-3.1223,-3.2525,-3.3111,-3.3111,-3.3111,-3.3111,-3.3111,-3.3111,-3.3111,-3.3111,-3.3111,-3.342,-3.3897,-3.3897,-3.4223,-3.458,-4.0708,-4.0395,-4.0507,-4.2038,-4.3109,-4.4141,-4.5146,-4.5874,-4.6125,-4.5573,-4.4995,-4.4418,-4.3865,-4.3313,-4.2986,-4.2986,-4.2816,-4.2715,-4.2715,-4.163,-4.0949,-4.0949,-4.0174,-3.9597,-3.9371,-3.8818,-3.7437,0.0,0.0,0.0,0.0,0.0,0.0,0.0,0.0,-3.1386,-3.229,-3.3294,-3.4179,-3.5006,-3.5132,-3.4981,-3.4801,-3.5454,-3.5353,-3.4931,-3.5755,-3.568,-3.5207,-3.5433,-3.4831,-3.4073,-3.4073,-3.4073,-3.3997,-3.3671,-3.3571,-3.3495,-3.3212,-3.3111,-3.3111,-3.3111,-3.3111,-3.3111,-3.3111,-3.3111,-3.3111,-3.3111,-3.2481,-3.2049,-3.2339,-3.1642,-3.1459,0.0,0.0,0.0,0.0,0.0,0.0,-3.4726,0.0,-3.289,0.0,-3.1368,0.0,0.0,0.0,-3.0781,-3.1156,-3.0701,0.0,-3.009,0.0,-3.1264,-3.033,-3.0423,-3.0468,-3.0468,-3.0963,-3.1223,-3.1223,-3.2525,-3.3111,-3.3111,-3.3111,-3.3111,-3.3111,-3.3111,-3.3111,-3.3111,-3.3111,-3.3621,-3.4399,-3.4399,-3.4751,-3.5182,-4.2262,-4.1827,-4.1885,-4.3608,-4.4392,-4.5121,-4.615,-4.6301,-4.6125,-4.5573,-4.4995,-4.4418,-4.3865,-4.3313,-4.2986,-4.2986,-4.2986,-4.2911,-4.2816,-4.1856,-4.12,-4.105,-4.0199,0.0,-3.9697,-3.9145,-3.8015,-3.6235,-3.5002,0.0,0.0,0.0,0.0,0.0,-3.219,-3.2893,-3.3226,-3.4405,-3.5052,-3.5228,-3.5629,-3.5454,-3.5031,-3.6053,-3.6031,-3.5583,-3.6157,-3.6107,-3.578,-3.578,-3.5529,-3.5152,-3.4826,-3.468,-3.458,-3.4073,-3.3676,-3.3306,-3.3133,-3.2853,-3.2612,-3.3025,-3.3111,-3.3111,-3.3111,-3.3111,-3.2982,-3.2612,-3.1821,-3.1356,-3.1933,-3.0932,-3.0625,-3.2247,0.0,0.0,0.0,-3.5334,0.0,-3.4121,-3.3384,-3.2631,-3.1641,-3.1484,0.0,0.0,0.0,0.0,0.0,0.0,0.0,0.0,0.0,0.0,-2.9864,-2.9952,-3.0206,-3.0649,-3.1011,-3.1223,-3.1223,-3.2673,-3.3395,-3.3545,-3.3395,-3.342,-3.3545,-3.3395,-3.342,-3.3571,-3.3571,-3.4148,-3.4931,-3.4931,-3.5282,-3.578,-4.2673,-4.3276,-4.4171,-4.5935,-4.6667,-4.6928,-4.6401,-4.6301,-4.6125,-4.5573,-4.4995,-4.4418,-4.3865,-4.3313,-4.2986,-4.2986,-4.2986,-4.2816,-4.2263,-4.1656,-4.105,0.0,0.0,-3.9697,-3.9697,-3.9145,-3.8567,-3.7965,0.0,0.0,-3.3847,0.0,-3.2767,-3.3847,-3.3872,-3.4474,-3.5458,-3.5483,-3.5855,-3.638,-3.6405,-3.6031,-3.5558,-3.6157,-3.6031,-3.5583,-3.6157,-3.6405,-3.6405,-3.6405,-3.638,-3.6204,-3.5077,-3.468,-3.458,-3.4073,-3.3073,-3.2253,-3.2916,-3.2196,-3.1557,-3.281,-3.3111,-3.3111,-3.3111,-3.3111,-3.2742,-3.1488,-3.1223,-3.0866,-2.967,-3.0395,-3.1199,-3.1223,0.0,0.0,0.0,0.0,0.0,-3.229,-3.1286,-3.0834,-3.1377,-3.0909,0.0,0.0,0.0,0.0,0.0,0.0,0.0,-2.879,-2.8945,0.0,-2.9624,-2.9889,-3.0696,-3.2077,-3.1484,-3.1223,-3.1291,-3.3069,-3.4198,-3.4675,-3.4123,-3.4198,-3.465,-3.4123,-3.4198,-3.4655,-3.4655,-3.5006,-3.5483,-3.5483,-3.5881,-3.6405,-4.5136,-4.536,-4.5654,-4.6215,-4.6451,-4.6527,-4.6326,-4.6301,-4.625,-4.6075,-4.5221,-4.4543,-4.4392,-4.3539,-4.2986,0.0,-4.2986,-4.2735,0.0,-4.1656,-4.105,-4.0551,-3.9998,-3.9697,-3.9697,-3.9521,-3.8969,-3.8015,0.0,0.0,0.0,-3.3721,-3.3771,-3.4474,-3.4806,-3.5182,-3.5533,-3.5956,-3.6207,-3.6405,-3.6405,-3.6304,-3.6107,-3.6355,-3.6304,-3.6132,-3.6355,-3.6405,-3.6405,-3.6405,-3.6405,-3.6355,-3.5956,-3.583,-3.5515,-3.372,-3.2947,-3.2318,-3.0966,-3.0259,-3.0079,-3.0463,-3.0598,-3.0598,-3.0598,-3.1223,-3.1909,-3.237,-3.1134,-3.0124,-3.053,-2.9579,-2.9438,-3.1473,-3.2442,0.0,0.0,0.0,-3.3847,-3.2918,-3.2491,-3.219,-3.1964,-3.2164,0.0,0.0,0.0,0.0,0.0,0.0,0.0,0.0,-2.9072,0.0,-2.9676,-2.9336,-3.0293,-3.2484,-3.2031,-3.2436,-3.3637,-3.4195,-3.455,-3.468,-3.4525,-3.455,-3.47,-3.4525,-3.4575,-3.468,-3.468,-3.5006,-3.5508,-3.5508,-3.5881,-3.6405,-4.6301,-4.6476,-4.6552,-4.6351,-4.6476,-4.6552,-4.6351,-4.6301,-4.6225,-4.6024,-4.5196,-4.4543,-4.4342,-4.3514,0.0,-4.2986,-4.2986,-4.2735,-4.2238,-4.1656,-4.105,-4.0551,-3.9998,-3.9697,-3.9697,-3.9697,0.0,-3.8642,-3.7864,-3.696,-3.5931,-3.5177,-3.5127,-3.5655,-3.578,-3.5855,-3.5881,-3.6254,-3.6405,-3.6405,-3.6405,-3.6531,-3.6707,-3.648,-3.6531,-3.6681,-3.648,-3.6405,-3.6405,-3.6405,-3.6405,-3.631,-3.581,-3.5519,-3.5032,-3.3406,-3.2441,-3.1507,-2.985,-2.9096,-2.8819,-2.928,-2.9396,-2.9396,-2.9396,-2.9988,-3.0777,-3.1557,-3.0147,-2.8958,-2.9715,-2.8634,-2.8293,-3.0302,-3.1136,-3.1854,-3.2637,0.0,0.0,0.0,0.0,0.0,0.0,-3.1096,-3.1048,0.0,0.0,0.0,0.0,0.0,0.0,-2.8842,-2.8944,0.0,-2.9908,-2.9325,-3.0116,-3.2249,-3.2323,-3.3247,-3.4981,-3.4981,-3.5152,-3.5328,-3.5127,-3.5152,-3.5328,-3.5082,-3.5152,-3.5328,-3.5328,-3.5554,-3.5855,-3.5855,-3.6081,-3.6405,-4.624,-4.6728,-4.6903,-4.6401,-4.6728,-4.6903,-4.6401,-4.6276,-4.6075,-4.5547,-4.4945,-4.4367,-4.3865,-4.3313,-4.2986,-4.2986,0.0,0.0,-4.2238,-4.1656,-4.105,-4.0551,-3.9998,-3.9697,-3.9697,-3.9697,-3.9697,-3.9697,-3.8592,-3.8065,-3.804,-3.7033,-3.6782,-3.7161,-3.6732,-3.6505,-3.6455,-3.6505,-3.6531,-3.6531,-3.6531,-3.6832,-3.7186,-3.6732,-3.6832,-3.7111,-3.6656,-3.643,-3.6405,-3.6405,-3.6358,-3.6073,-3.4775,-3.4029,-3.3434,-3.2818,-3.1436,-2.9952,-2.93,-2.8308,-2.772,-2.8866,-2.912,-2.9166,-2.9258,-2.928,-2.9304,-2.935,-2.8495,-2.7673,-2.7647,-2.76,-2.7746,-2.8181,-2.8842,-2.9753,-3.0858,0.0,0.0,0.0,0.0,0.0,-2.8611,-2.8521,-2.8922,0.0,0.0,0.0,0.0,0.0,-2.8903,-2.9492,-2.8713,-2.8953,-3.0276,-2.9764,-3.017,-3.1493,-3.2249,-3.3618,-3.5419,-3.5419,-3.5787,-3.638,-3.583,-3.5881,-3.638,-3.5805,-3.5906,-3.6405,-3.6405,-3.6405,-3.6405,-3.6405,-3.6405,-3.6405,0.0,0.0,-4.6476,-4.6326,-4.6426,-4.6451,-4.6326,-4.5949,-4.5623,-4.5497,-4.4618,-4.394,-4.3815,-4.3313,-4.2986,-4.2986,-4.2986,-4.2735,-4.2238,-4.1656,-4.105,-4.0551,-3.9998,-3.9697,-3.9697,-3.9697,-3.9697,-3.9697,-3.8994,-3.8668,-3.8642,-3.7939,-3.7462,-3.7186,-3.7487,-3.7387,-3.701,-3.7437,-3.7613,-3.7613,-3.7613,-3.7688,-3.7789,-3.7663,-3.7437,-3.7161,-3.7036,-3.6757,-3.6405,-3.6405,-3.5715,-3.4824,-3.4483,-3.3324,-3.1747,-3.0351,-2.9386,-2.8503,-2.6962,-2.638,-2.6207,-2.6524,-2.6572,-2.6839,-2.7814,-2.8049,-2.8262,-2.9235,-2.9166,-2.868,-2.7767,-2.76,-2.7851,-2.8698,-2.8688,-2.9471,-3.1948,-3.1205,0.0,0.0,-3.0285,-2.9962,-2.9637,-2.9925,-2.9878,0.0,0.0,0.0,0.0,-2.8021,-2.8341,-2.9441,-2.8713,-2.8953,-3.0276,-2.9764,-3.017,-3.1493,-3.1675,-3.2781,-3.4655,-3.4655,-3.5305,-3.6405,-3.6279,-3.6279,-3.6405,-3.6279,-3.6279,-3.6405,-3.6405,-3.6405,-3.6405,-3.6405,-3.6405,-3.6405,-4.5999,-4.6301,-4.6301,-4.6301,-4.6301,-4.6301,-4.6301,-4.605,-4.5673,-4.5171,-4.4568,-4.3991,-4.3489,-4.3162,-4.2986,-4.2986,-4.2986,-4.2861,-4.2615,-4.2007,-4.158,-4.1279,-4.0752,-4.0325,-4.0074,-4.0074,-3.9948,-3.9697,-3.9396,-3.9245,-3.922,-3.8668,-3.8241,-3.7965,-3.799,-3.7839,-3.7588,-3.7889,-3.8015,-3.8015,-3.8015,-3.8165,-3.8366,-3.8115,-3.799,-3.7914,-3.7663,-3.7211,-3.6686,-3.606,-3.5211,-3.419,-3.2905,-3.1667,-3.0378,-2.8858,-2.8371,-2.7987,-2.6418,-2.5849,-2.5693,-2.5693,-2.5693,-2.5868,-2.6572,-2.6716,-2.7078,-2.8308,-2.8121,-2.7673,-2.7579,-2.729,-2.7232,-2.7749,-2.7648,-2.8042,-2.9589,-2.9385,0.0,-2.8729,-2.9128,-2.9225,-2.8663,-2.9034,-2.9048,-2.8446,-2.8278,0.0,-2.7754,-2.7874,-2.8215,-2.8938,-2.8516,-2.8654,-2.9355,-2.9112,-2.959,-3.0947,-3.0947,-3.1834,-3.3453,-3.4141,-3.4483,-3.4605,-3.5858,-3.6048,-3.5523,-3.6168,-3.6405,-3.6405,-3.6405,-3.6405,-3.6405,-3.6405,-3.6405,-3.6405,-4.5914,-4.6301,-4.6301,-4.6301,-4.6301,-4.6301,-4.6301,-4.6175,-4.5748,-4.4869,-4.4543,-4.4041,-4.3187,-4.3037,-4.2986,-4.2986,-4.2986,-4.2986,-4.2986,-4.2514,-4.2213,-4.2213,-4.163,-4.1075,-4.0651,-4.0551,-4.0249,-3.9697,-3.9697,-3.9697,-3.9697,-3.922,-3.8994,-3.8894,-3.8442,-3.8216,-3.814,-3.8216,-3.8266,-3.8266,-3.8266,-3.8542,-3.8944,-3.8442,-3.8517,-3.8818,-3.8316,-3.7616,-3.6824,-3.5594,-3.4639,-3.3469,-3.1051,-2.9901,-2.925,-2.81,-2.7934,-2.7893,-2.6784,-2.6172,-2.581,-2.5869,-2.5791,-2.5713,-2.5771,-2.5732,-2.6014,-2.7078,-2.6661,-2.6335,-2.7228,-2.7037,-2.6744,-2.6586,-2.6544,-2.6547,-2.6763,0.0,-2.7062,-2.6187,-2.7528,-2.8136,-2.7212,-2.75,-2.7806,-2.7806,-2.7806,-2.7806,-2.7806,-2.8105,-2.8301,-2.8301,-2.8301,-2.8301,-2.8301,-2.8301,-2.8847,-3.0016,-3.0016,-3.0721,-3.2028,-3.3254,-3.3254,-3.2431,-3.4993,-3.5475,-3.4483,-3.5858,-3.6405,-3.6405,-3.6405,-3.6405,-3.6405,-3.6405,-3.6405,-3.6405,-4.5671,-4.6301,-4.6301,-4.6301,-4.6301,-4.6301,-4.6301,-4.5497,-4.4995,-4.5321,-4.4116,-4.3338,-4.3639,-4.3263,-4.2986,-4.2986,-4.2986,-4.2986,-4.2986,-4.2514,-4.2213,-4.2213,-4.163,-4.125,-4.1175,-4.0752,-4.0249,-3.9697,-3.9697,-3.9697,-3.9697,-3.9597,-3.932,-3.8944,-3.927,-3.917,-3.8768,-3.9245,-3.9446,-3.9446,-3.9446,-3.9496,-3.9546,-3.9471,-3.9195,-3.8919,-3.8768,-3.7588,-3.5944,-3.5365,-3.3589,-3.1358,-3.0537,-2.9472,-2.8502,-2.8256,-2.799,-2.7621,-2.7063,-2.6602,-2.6367,-2.6719,-2.622,-2.5791,-2.6211,-2.5996,-2.5791,-2.5965,-2.6952,-2.7536,-2.6764,-2.758,-2.8219,-2.7574,-2.6892,-2.6907,-2.8293,0.0,-2.6456,-2.7669,-2.7532,-2.7353,-2.7591,-2.7949,-2.8203,-2.8203,-2.8203,-2.8203,-2.8203,-2.8262,-2.8301,-2.8301,-2.8301,-2.8301,-2.8301,-2.8301,-2.8388,-2.8601,-2.8601,-2.9303,-3.0618,-3.0824,-3.144,-3.2381,-3.4019,-3.4581,-3.4483,-3.5858,-3.6405,-3.6405,-3.6405,-3.6405,-3.6405,-3.6405,-3.6405,-3.6405,-4.4436,-4.5671,-4.6301,-4.6301,-4.6301,-4.6301,-4.6301,-4.5623,-4.5171,-4.5447,-4.4267,-4.3514,-4.3765,-4.3313,-4.2986,-4.2986,-4.2986,-4.2986,-4.2986,-4.2791,-4.2665,-4.2665,-4.2359,-4.2082,-4.1781,-4.0953,-4.04,-4.0149,-3.9848,-3.9697,-3.9697,-3.9697,-3.9546,-3.932,-3.9572,-3.9546,-3.932,-3.9597,-3.9697,-3.9697,-3.9697,-3.9697,-3.9697,-3.9697,-3.9032,-3.8164,-3.8164,-3.6839,-3.4909,-3.3974,-3.2519,-3.0819,-2.9868,-2.8993,-2.8301,-2.8301,-2.7988,-2.763,-2.7129,-2.6875,-2.6777,-2.6973,-2.6719,-2.6484,-2.668,-2.6562,-2.6426,-2.6426,-2.7013,-2.7382,-2.682,-2.756,-2.8005,-2.7432,-2.7051,0.0,0.0,-2.6527,-2.6061,-2.6794,-2.6735,-2.6758,-2.6953,-2.7363,-2.7598,-2.7598,-2.7598,-2.7598,-2.7598,-2.7832,-2.7949,-2.7949,-2.7949,-2.8066,-2.8301,-2.8066,-2.8066,-2.8301,-2.8301,-2.8601,-2.925,-2.9964,-3.0224,-3.0307,-3.3155,-3.397,-3.3403,-3.5547,-3.6405,-3.6405,-3.6405,-3.6405,-3.6405,-3.6405,-3.6405,-3.6405,-4.3247,-4.4767,-4.5793,-4.624,-4.6301,-4.6276,-4.6125,-4.5648,-4.5296,-4.5296,-4.4317,-4.3664,-4.379,-4.3313,-4.2986,-4.2986,-4.2986,-4.2986,-4.2986,-4.2986,-4.2986,-4.2986,-4.2986,-4.2766,-4.2213,-4.1329,-4.0827,-4.0701,-4.0275,-4.0023,-3.9898,-3.9898,-3.9823,-3.9697,-3.9697,-3.9697,-3.9697,-3.9697,-3.9697,-3.9697,-3.9697,-3.9697,-3.9645,-3.931,-3.8477,-3.7477,-3.7079,-3.5725,-3.3923,-3.2793,-3.1704,-3.0635,-2.9411,-2.8789,-2.8437,-2.8437,-2.8144,-2.7734,-2.7402,-2.7246,-2.7187,-2.7285,-2.7168,-2.7031,-2.7148,-2.709,-2.7012,-2.7012,-2.709,-2.7168,-2.7168,-2.7519,-2.7702,-2.7258,0.0,0.0,0.0,-2.6081,-2.5872,-2.583,-2.6191,-2.6426,-2.6523,-2.6836,-2.7012,-2.7012,-2.7012,-2.7012,-2.7012,-2.7324,-2.7611,-2.7708,-2.7806,-2.793,-2.8144,-2.793,-2.7969,-2.8301,-2.8301,-2.8301,-2.8354,-2.9355,-2.925,-2.8495,-3.1949,-3.2855,-3.2028,-3.48,-3.5906,-3.5978,-3.6413,-3.6606,-3.6606,-3.6606,-3.6606,-3.6581,-4.2989,-4.3793,-4.4436,-4.5999,-4.6301,-4.6125,-4.5623,-4.5045,-4.4694,-4.4694,-4.374,-4.3237,-4.374,-4.3313,-4.2986,-4.2986,-4.2986,-4.2986,-4.2986,-4.2986,-4.2986,-4.2986,-4.2986,-4.2766,-4.2213,-4.2137,-4.1781,-4.1225,-4.1175,-4.0953,-4.045,-4.045,-4.0174,-3.9697,-3.9697,-3.9697,-3.9697,-3.9697,-3.9697,-3.9697,-3.9697,-3.9697,-3.9517,-3.819,-3.7583,-3.7293,-3.5945,-3.4493,-3.3121,-3.2566,-3.1472,-3.0209,-2.9704,-2.9219,-2.8867,-2.8867,-2.8574,-2.8242,-2.8203,-2.791,-2.7767,-2.8105,-2.7598,-2.7129,-2.7519,-2.7305,-2.7012,-2.7012,-2.7344,-2.7669,-2.7669,-2.7969,-2.8094,-2.7729,0.0,0.0,-2.6478,-2.5984,-2.5849,-2.6289,-2.6367,-2.6543,-2.6934,-2.6992,-2.7012,-2.7012,-2.7012,-2.7012,-2.7012,-2.7051,-2.7246,-2.7708,-2.8047,-2.8066,-2.7767,-2.8066,-2.8262,-2.8301,-2.8301,-2.8301,-2.8301,-2.8388,-2.8388,-2.8388,-2.9911,-3.0514,-3.0669,-3.3403,-3.4532,-3.4726,-3.6476,-3.7136,-3.7136,-3.7136,-3.7136,-3.7061,-4.0168,-4.2074,-4.362,-4.451,-4.5586,-4.6125,-4.5573,-4.4995,-4.4618,-4.4618,-4.3664,-4.3187,-4.374,-4.3313,-4.2986,-4.2986,-4.2986,-4.2986,-4.2986,-4.2986,-4.2986,-4.2986,-4.2986,-4.2886,-4.2715,-4.2389,-4.2112,-4.1856,-4.1505,-4.1175,-4.0974,-4.0676,-4.04,-4.0199,-3.9848,-3.9697,-3.9697,-3.9697,-3.9697,-3.9697,-3.9697,-3.9129,-3.8295,-3.769,-3.6356,-3.4714,-3.4125,-3.2964,-3.169,-3.1509,-3.0869,-3.0176,-3.0,-2.9668,-2.9277,-2.9004,-2.8809,-2.8633,-2.8359,-2.8184,-2.8086,-2.8262,-2.8047,-2.7851,-2.8008,-2.793,-2.7812,-2.7812,-2.7734,-2.7728,-2.7728,-2.7578,-2.7447,-2.7291,0.0,-2.6545,-2.6426,-2.5976,-2.5752,-2.5957,-2.5996,-2.6055,-2.6161,-2.6181,-2.6181,-2.6181,-2.6181,-2.6181,-2.6181,-2.6719,-2.7226,-2.7708,-2.8066,-2.8223,-2.8047,-2.7949,-2.8027,-2.8301,-2.8301,-2.8301,-2.8301,-2.8301,-2.8301,-2.8388,-2.9702,-3.0995,-3.2237,-3.4117,-3.5597,-3.6653,-3.7042,-3.7186,-3.7186,-3.7186,-3.7186,-3.7211,-3.8381,-4.0272,-4.2101,-4.3473,-4.456,-4.5225,-4.5237,-4.4895,-4.4493,-4.4141,-4.3589,-4.3313,-4.3514,-4.3212,-4.2986,-4.2986,-4.2986,-4.2986,-4.2986,-4.2986,-4.2986,-4.2986,-4.2986,-4.2986,-4.2986,-4.2665,-4.2464,-4.2464,-4.2032,-4.1756,-4.158,-4.1028,-4.0777,-4.0752,-4.0199,-4.0049,-4.0199,-4.0023,-3.9948,-3.9948,-3.9772,-3.8792,-3.7477,-3.6972,-3.5266,-3.3021,-3.2587,-3.1767,-3.0898,-3.0898,-3.0684,-3.041,-3.041,-3.0117,-2.9687,-2.9258,-2.9121,-2.9062,-2.8769,-2.8691,-2.8633,-2.8359,-2.8301,-2.8301,-2.8301,-2.8301,-2.8301,-2.8301,-2.8066,-2.7871,-2.7871,-2.7617,-2.7363,-2.7246,-2.6855,-2.6543,-2.6406,-2.6016,-2.5693,-2.5693,-2.5693,-2.5693,-2.5693,-2.5693,-2.5693,-2.5693,-2.5693,-2.5752,-2.5937,-2.6621,-2.7226,-2.7708,-2.7949,-2.8164,-2.8301,-2.8008,-2.8008,-2.8301,-2.8301,-2.8301,-2.8301,-2.8301,-2.8301,-2.8388,-2.9702,-3.0809,-3.1837,-3.4013,-3.5447,-3.6282,-3.7144,-3.7337,-3.7236,-3.7588,-3.7487,-3.7262,-3.8117,-3.8597,-3.9671,-4.3083,-4.3217,-4.3265,-4.4403,-4.4618,-4.4217,-4.3137,-4.3463,-4.3589,-4.3037,-4.2986,-4.2986,-4.2986,-4.2986,-4.2986,-4.2986,-4.2986,-4.2986,-4.2986,-4.2986,-4.2986,-4.2986,-4.2986,-4.2986,-4.2986,-4.2986,-4.2766,-4.2213,-4.1605,-4.13,-4.1275,-4.0777,-4.0774,-4.125,-4.0752,-4.0526,-4.0475,-3.9923,-3.8792,-3.7293,-3.5836,-3.4403,-3.2907,-3.1441,-3.0898,-3.0898,-3.0898,-3.0898,-3.0898,-3.0898,-3.0566,-3.0117,-2.9707,-2.957,-2.957,-2.9626,-2.9626,-2.9375,-2.8516,-2.8301,-2.8301,-2.8301,-2.8301,-2.8301,-2.8301,-2.8301,-2.8281,-2.8281,-2.8281,-2.8144,-2.7787,-2.7305,-2.6875,-2.6445,-2.6016,-2.5693,-2.5693,-2.5693,-2.5693,-2.5693,-2.5693,-2.5693,-2.5693,-2.5693,-2.5937,-2.6367,-2.6797,-2.7226,-2.7708,-2.7728,-2.7924,-2.8281,-2.8301,-2.8301,-2.8301,-2.8301,-2.8301,-2.8301,-2.8301,-2.8301,-2.8408,-2.9723,-2.9565,-2.8654,-3.2728,-3.3575,-3.2695,-3.6479,-3.7688,-3.7337,-3.8467,-3.8165,-3.7287,-3.6137,-3.6855,-3.8058,-4.0457,-4.1766,-4.2855,-4.3886,-4.4041,-4.3915,-4.3589,-4.3363,-4.3313,-4.3539,-4.3212,-4.2986,-4.2986,-4.2986,-4.2986,-4.2986,-4.2986,-4.3162,-4.3539,-4.3187,-4.2986,-4.2986,-4.2986,-4.2986,-4.2986,-4.2986,-4.2886,-4.2766,-4.2158,-4.1907,-4.1882,-4.1329,-4.1125,-4.125,-4.0752,-4.0526,-4.0475,-3.9923,-3.819,-3.589,-3.5453,-3.3754,-3.1498,-3.1054,-3.0898,-3.0898,-3.0898,-3.0898,-3.0898,-3.0898,-3.0801,-3.0586,-3.0137,-3.0,-2.9941,-2.9704,-2.9626,-2.9434,-2.8867,-2.873,-2.8652,-2.8359,-2.8301,-2.8301,-2.8301,-2.8066,-2.7851,-2.7851,-2.7598,-2.7363,-2.7226,-2.709,-2.6973,-2.6836,-2.6719,-2.6523,-2.623,-2.6191,-2.6074,-2.5713,-2.6016,-2.6074,-2.5713,-2.6016,-2.6523,-2.7246,-2.7454,-2.7656,-2.8086,-2.8105,-2.8164,-2.8301,-2.8301,-2.8301,-2.8301,-2.8594,-2.873,-2.873,-2.873,-2.873,-2.873,-2.9144,-2.9662,-3.0376,-3.2233,-3.3982,-3.5592,-3.6645,-3.7636,-3.8417,-3.8793,-3.8668,-3.8442,-3.5332,-3.5701,-3.6497,-3.8391,-3.9975,-4.14,-4.2641,-4.3365,-4.3714,-4.3514,-4.3363,-4.3338,-4.3463,-4.3162,-4.2986,-4.2986,-4.2986,-4.3062,-4.3288,-4.3112,-4.3212,-4.379,-4.3263,-4.3087,-4.3288,-4.3313,-4.3187,-4.2986,-4.2986,-4.2986,-4.2961,-4.2464,-4.2313,-4.2514,-4.1907,-4.1781,-4.1932,-4.1178,-4.0852,-4.0724,-3.9374,-3.7423,-3.5233,-3.4626,-3.2985,-3.0898,-3.0898,-3.0898,-3.0898,-3.0898,-3.0898,-3.0898,-3.0898,-3.0898,-3.084,-3.0547,-3.0469,-3.041,-3.0156,-3.0098,-2.998,-2.9531,-2.918,-2.8809,-2.8398,-2.8301,-2.8301,-2.8301,-2.8086,-2.791,-2.791,-2.7695,-2.7519,-2.7519,-2.7383,-2.7285,-2.7285,-2.7129,-2.6914,-2.666,-2.6641,-2.6543,-2.622,-2.6484,-2.6523,-2.6269,-2.6641,-2.7129,-2.7689,-2.7832,-2.8027,-2.8281,-2.8457,-2.8535,-2.8535,-2.8711,-2.8633,-2.8301,-2.8711,-2.8926,-2.8926,-2.8926,-2.9004,-2.9215,-2.9565,-3.0018,-3.0689,-3.2836,-3.4448,-3.5759,-3.7036,-3.7959,-3.8592,-3.9019,-3.8919,-3.8642,-3.5273,-3.4902,-3.5137,-3.6875,-3.7957,-3.9258,-4.107,-4.2576,-4.3394,-4.3112,-4.3438,-4.3564,-4.3162,-4.3037,-4.2986,-4.3037,-4.3011,-4.3187,-4.3689,-4.3263,-4.3237,-4.384,-4.3338,-4.3338,-4.394,-4.3815,-4.3514,-4.3062,-4.3011,-4.3011,-4.3037,-4.2539,-4.259,-4.3037,-4.2539,-4.2564,-4.2911,-4.1856,-4.1326,-4.1068,-3.8728,-3.6858,-3.5343,-3.3845,-3.2379,-3.1054,-3.0957,-3.0898,-3.0898,-3.0898,-3.0898,-3.0898,-3.0898,-3.0898,-3.0898,-3.0898,-3.0898,-3.0898,-3.0898,-3.0898,-3.0781,-3.0312,-2.9609,-2.8906,-2.8457,-2.832,-2.8301,-2.8301,-2.8301,-2.8301,-2.8301,-2.8301,-2.8301,-2.8301,-2.7969,-2.7767,-2.7767,-2.7383,-2.7109,-2.709,-2.707,-2.7051,-2.7012,-2.7012,-2.7051,-2.7129,-2.7461,-2.7728,-2.7767,-2.8086,-2.832,-2.834,-2.8711,-2.8945,-2.8984,-2.9375,-2.918,-2.8418,-2.8828,-2.9043,-2.9043,-2.9043,-2.9258,-2.9721,-3.0581,-3.0404,-2.9905,-3.3899,-3.4814,-3.4027,-3.7424,-3.8467,-3.8116,-3.9269,-3.9044,-3.8291,-3.4355,-3.4004,-3.4179,-3.5873,-3.6324,-3.7456,-4.0352,-4.1071,-4.1882,-4.3394,-4.3338,-4.3438,-4.4192,-4.3489,-4.3162,-4.3589,-4.3212,-4.3037,-4.3162,-4.3037,-4.3413,-4.4392,-4.3915,-4.4091,-4.5095,-4.384,-4.3313,-4.3614,-4.3187,-4.3187,-4.3614,-4.3062,-4.3087,-4.3589,-4.3037,-4.2861,-4.2936,-4.2313,-4.1731,-4.1225,-4.0259,-3.8737,-3.6865,-3.5398,-3.3923,-3.2473,-3.1325,-3.0898,-3.0898,-3.0898,-3.0898,-3.0898,-3.0898,-3.0898,-3.0898,-3.0898,-3.0898,-3.0898,-3.0898,-3.0898,-3.0781,-3.0312,-3.0059,-2.9726,-2.8965,-2.8535,-2.8301,-2.8301,-2.8301,-2.8301,-2.8301,-2.8301,-2.8301,-2.8301,-2.8223,-2.8164,-2.8164,-2.8066,-2.7891,-2.7559,-2.7519,-2.7383,-2.7051,-2.7012,-2.7285,-2.7969,-2.7793,-2.7865,-2.8144,-2.8242,-2.8437,-2.8769,-2.8867,-2.9082,-2.9434,-2.9531,-2.9528,-2.9297,-2.9726,-2.9922,-2.9922,-2.9922,-2.9961,-3.0059,-3.03,-3.0066,-2.9833,-3.258,-3.3329,-3.3028,-3.649,-3.7714,-3.7746,-3.9158,-3.9546,-3.9371,-3.4082,-3.373,-3.365,-3.4487,-3.5273,-3.6335,-3.8082,-3.9639,-4.1,-4.2119,-4.2687,-4.2906,-4.2683,-4.3084,-4.3489,-4.379,-4.3288,-4.3087,-4.3363,-4.3112,-4.3463,-4.4568,-4.4091,-4.4192,-4.5045,-4.3966,-4.3514,-4.379,-4.3514,-4.3514,-4.379,-4.3514,-4.3514,-4.379,-4.3212,-4.2986,-4.2936,-4.2439,-4.1831,-4.1171,-3.9931,-3.8674,-3.724,-3.5068,-3.3789,-3.2907,-3.1441,-3.1016,-3.1152,-3.0957,-3.1016,-3.1152,-3.0957,-3.0898,-3.0898,-3.0898,-3.0898,-3.0898,-3.0898,-3.0898,-3.084,-3.0586,-3.0351,-3.0019,-2.9375,-2.9062,-2.8906,-2.8906,-2.873,-2.8594,-2.8594,-2.8437,-2.8301,-2.8301,-2.8301,-2.8301,-2.8301,-2.8301,-2.8203,-2.7988,-2.7969,-2.7871,-2.7656,-2.7617,-2.7812,-2.8262,-2.8086,-2.8144,-2.8574,-2.8594,-2.8789,-2.9219,-2.9434,-2.9629,-2.9863,-3.0098,-3.0195,-3.0195,-3.0195,-3.0195,-3.0195,-3.0195,-3.0312,-3.0508,-3.0293,-3.0195,-3.0348,-3.2267,-3.338,-3.4054,-3.6533,-3.7902,-3.8635,-3.9413,-3.9697,-3.9697,-3.3965,-3.3672,-3.3418,-3.3418,-3.4487,-3.5499,-3.5745,-3.832,-4.0303,-4.0534,-4.2012,-4.2425,-4.0884,-4.2068,-4.3029,-4.3241,-4.2818,-4.2881,-4.3639,-4.3313,-4.3539,-4.4443,-4.4041,-4.3976,-4.4311,-4.3844,-4.3714,-4.379,-4.379,-4.379,-4.379,-4.379,-4.379,-4.379,-4.3212,-4.2986,-4.2936,-4.2539,-4.1982,-4.1322,-3.9545,-3.8503,-3.7702,-3.4925,-3.3677,-3.3304,-3.1825,-3.1328,-3.1367,-3.1094,-3.1191,-3.1348,-3.0996,-3.0898,-3.0898,-3.0898,-3.0898,-3.0898,-3.0898,-3.0898,-3.0898,-3.0898,-3.0605,-3.0215,-2.9883,-2.9744,-2.9626,-2.9626,-2.9277,-2.9023,-2.9023,-2.875,-2.8516,-2.8516,-2.8516,-2.8516,-2.8516,-2.8437,-2.8398,-2.8398,-2.834,-2.8301,-2.8301,-2.8301,-2.832,-2.8398,-2.8398,-2.8574,-2.9004,-2.9023,-2.9238,-2.9668,-3.0019,-3.0234,-3.0312,-3.0703,-3.0898,-3.0879,-3.0508,-3.0312,-3.0312,-3.0312,-3.0527,-3.0859,-3.0488,-3.0527,-3.0995,-3.2473,-3.3698,-3.4736,-3.6433,-3.769,-3.8635,-3.9129,-3.9465,-3.9697,-3.3516,-3.3457,-3.3418,-3.3418,-3.3607,-3.4195,-3.556,-3.7363,-3.8994,-4.0419,-4.2012,-4.2549,-4.141,-4.03,-4.0042,-4.0966,-4.0985,-4.1582,-4.3031,-4.3463,-4.3765,-4.3915,-4.384,-4.3606,-4.3131,-4.3128,-4.3313,-4.379,-4.379,-4.379,-4.379,-4.379,-4.379,-4.379,-4.3212,-4.2986,-4.2961,-4.2886,-4.2615,-4.2007,-4.1214,-4.0557,-3.9851,-3.7697,-3.6108,-3.4792,-3.336,-3.2018,-3.1016,-3.1328,-3.123,-3.0957,-3.0918,-3.0898,-3.0898,-3.0898,-3.0898,-3.0898,-3.0898,-3.0898,-3.0898,-3.0898,-3.084,-3.0781,-3.0723,-3.0117,-2.9626,-2.9626,-2.9531,-2.9492,-2.9492,-2.9434,-2.9394,-2.9394,-2.9394,-2.9394,-2.9394,-2.9062,-2.8828,-2.8828,-2.8516,-2.8301,-2.8301,-2.8301,-2.8437,-2.8809,-2.8828,-2.9023,-2.9453,-2.9492,-2.9668,-3.0098,-3.0176,-3.0391,-3.0801,-3.0859,-3.0898,-3.0898,-3.082,-3.0801,-3.0801,-3.0801,-3.084,-3.0879,-3.082,-3.084,-3.0995,-3.2473,-3.2473,-3.1767,-3.4515,-3.4958,-3.4292,-3.6865,-3.8582,-3.9697,-3.3418,-3.3418,-3.3418,-3.3418,-3.3418,-3.365,-3.4383,-3.6599,-3.8461,-3.917,-4.1419,-4.211,-3.9823,-3.8176,-3.8259,-4.0845,-4.0758,-4.0904,-4.1615,-4.2102,-4.2394,-4.2476,-4.2043,-4.2026,-4.2434,-4.179,-4.1435,-4.1387,-4.3029,-4.3539,-4.2915,-4.2598,-4.2476,-4.2452,-4.1915,-4.215,-4.2986,-4.2986,-4.2715,-4.2187,-4.1882,-4.1455,-4.0661,-3.8044,-3.6496,-3.5391,-3.2784,-3.1759,-3.1601,-3.1543,-3.1562,-3.1562,-3.1309,-3.1074,-3.0898,-3.0898,-3.0898,-3.0898,-3.0898,-3.0898,-3.0898,-3.0898,-3.0898,-3.0898,-3.0898,-3.0586,-3.0312,-3.0312,-3.0098,-2.9922,-2.9922,-2.9726,-2.9626,-2.9626,-2.9626,-2.9626,-2.9626,-2.9394,-2.9277,-2.9277,-2.8906,-2.875,-2.8984,-2.9004,-2.9082,-2.9277,-2.9277,-2.9473,-2.9902,-2.9922,-3.0117,-3.0566,-3.0586,-3.0684,-3.0898,-3.0898,-3.0898,-3.0898,-3.0898,-3.0898,-3.0898,-3.0898,-3.0898,-3.0898,-3.0898,-3.0898,-3.0937,-3.1594,-3.1977,-3.2264,-3.3586,-3.4181,-3.457,-3.6703,-3.7902,-3.8582]},{"header":{"parameterUnit":"m.s-1","parameterCategory":1,"la1":30.6,"la2":28.766,"lo1":-90.7593,"lo2":-88.6598,"dy":0.0162,"dx":0.0183,"nx":116,"ny":114,"refTime":"2024-05-05T06:00:00:Z","depth":0,"parameterNumber":3,"parameterNumberName":"V-component_of_WINDS"},"data":[0.0,0.0,0.0,0.0,0.0,0.0,0.0,0.0,0.0,0.0,0.0,0.0,0.0,0.0,0.0,0.0,0.0,0.0,0.0,0.0,0.0,0.0,0.0,0.0,0.0,0.0,0.0,0.0,0.0,0.0,0.0,0.0,0.0,0.0,0.0,0.0,0.0,0.0,0.0,0.0,0.0,0.0,0.0,0.0,0.0,0.0,0.0,0.0,0.0,0.0,0.0,0.0,0.0,0.0,0.0,0.0,0.0,0.0,0.0,0.0,0.0,0.0,0.0,0.0,0.0,0.0,0.0,0.0,0.0,0.0,0.0,0.0,0.0,0.0,0.0,0.0,0.0,0.0,0.0,0.0,0.0,0.0,0.0,0.0,0.0,0.0,0.0,0.0,0.0,0.0,0.0,0.0,0.0,0.0,0.0,0.0,0.0,0.0,0.0,0.0,0.0,0.0,0.0,0.0,0.0,0.0,0.0,0.0,0.0,0.0,0.0,0.0,0.0,0.0,0.0,0.0,0.0,0.0,0.0,0.0,0.0,0.0,0.0,0.0,0.0,0.0,0.0,0.0,0.0,0.0,0.0,0.0,0.0,0.0,0.0,0.0,0.0,0.0,0.0,0.0,0.0,0.0,0.0,0.0,0.0,0.0,0.0,0.0,0.0,0.0,0.0,0.0,0.0,0.0,0.0,0.0,0.0,0.0,0.0,0.0,0.0,0.0,0.0,0.0,0.0,0.0,0.0,0.0,0.0,0.0,0.0,0.0,0.0,0.0,0.0,0.0,0.0,0.0,0.0,0.0,0.0,0.0,0.0,0.0,0.0,0.0,0.0,0.0,0.0,0.0,0.0,0.0,0.0,0.0,0.0,0.0,0.0,0.0,0.0,0.0,0.0,0.0,0.0,0.0,0.0,0.0,0.0,0.0,0.0,0.0,0.0,0.0,0.0,0.0,0.0,0.0,0.0,0.0,0.0,0.0,0.0,0.0,0.0,0.0,0.0,0.0,0.0,0.0,0.0,0.0,0.0,0.0,0.0,0.0,0.0,0.0,0.0,0.0,0.0,0.0,0.0,0.0,0.0,0.0,0.0,0.0,0.0,0.0,0.0,0.0,0.0,0.0,0.0,0.0,0.0,0.0,0.0,0.0,0.0,0.0,0.0,0.0,0.0,0.0,0.0,0.0,0.0,0.0,0.0,0.0,0.0,0.0,0.0,0.0,0.0,0.0,0.0,0.0,0.0,0.0,0.0,0.0,0.0,0.0,0.0,0.0,0.0,0.0,0.0,0.0,0.0,0.0,0.0,0.0,0.0,0.0,0.0,0.0,0.0,0.0,0.0,0.0,0.0,0.0,0.0,0.0,0.0,0.0,0.0,0.0,0.0,0.0,0.0,0.0,0.0,0.0,0.0,0.0,0.0,0.0,0.0,0.0,0.0,0.0,0.0,0.0,0.0,0.0,0.0,0.0,0.0,0.0,0.0,0.0,0.0,0.0,0.0,0.0,0.0,0.0,0.0,0.0,0.0,0.0,0.0,0.0,0.0,0.0,0.0,0.0,0.0,0.0,0.0,0.0,0.0,0.0,0.0,0.0,0.0,0.0,0.0,0.0,0.0,0.0,0.0,0.0,0.0,0.0,0.0,0.0,0.0,0.0,0.0,0.0,0.0,0.0,0.0,0.0,0.0,0.0,0.0,0.0,0.0,0.0,0.0,0.0,0.0,0.0,0.0,0.0,0.0,0.0,0.0,0.0,0.0,0.0,0.0,0.0,0.0,0.0,0.0,0.0,0.0,0.0,0.0,0.0,0.0,0.0,0.0,0.0,0.0,0.0,0.0,0.0,0.0,0.0,0.0,0.0,0.0,0.0,0.0,0.0,0.0,0.0,0.0,0.0,0.0,0.0,0.0,0.0,0.0,0.0,0.0,0.0,0.0,0.0,0.0,0.0,0.0,0.0,0.0,0.0,0.0,0.0,0.0,0.0,0.0,0.0,0.0,0.0,0.0,0.0,0.0,0.0,0.0,0.0,0.0,0.0,0.0,0.0,0.0,0.0,0.0,0.0,0.0,0.0,0.0,0.0,0.0,0.0,0.0,0.0,0.0,0.0,0.0,0.0,0.0,0.0,0.0,0.0,0.0,0.0,0.0,0.0,0.0,0.0,0.0,0.0,0.0,0.0,0.0,0.0,0.0,0.0,0.0,0.0,0.0,0.0,0.0,0.0,0.0,0.0,0.0,0.0,0.0,0.0,0.0,0.0,0.0,0.0,0.0,0.0,0.0,0.0,0.0,0.0,0.0,0.0,0.0,0.0,0.0,0.0,0.0,0.0,0.0,0.0,0.0,0.0,0.0,0.0,0.0,0.0,0.0,0.0,0.0,0.0,0.0,0.0,0.0,0.0,0.0,0.0,0.0,0.0,0.0,0.0,0.0,0.0,0.0,0.0,0.0,0.0,0.0,0.0,0.0,0.0,0.0,0.0,0.0,0.0,0.0,0.0,0.0,0.0,0.0,0.0,0.0,0.0,0.0,0.0,0.0,0.0,0.0,0.0,0.0,0.0,0.0,0.0,0.0,0.0,0.0,0.0,0.0,0.0,0.0,0.0,0.0,0.0,0.0,0.0,0.0,0.0,0.0,0.0,0.0,0.0,0.0,0.0,0.0,0.0,0.0,0.0,0.0,0.0,0.0,0.0,0.0,0.0,0.0,0.0,0.0,0.0,0.0,0.0,0.0,0.0,0.0,0.0,0.0,0.0,0.0,0.0,0.0,0.0,0.0,0.0,0.0,0.0,0.0,0.0,0.0,0.0,0.0,0.0,0.0,0.0,0.0,0.0,0.0,0.0,0.0,0.0,0.0,0.0,0.0,0.0,0.0,0.0,0.0,0.0,0.0,0.0,0.0,0.0,0.0,0.0,0.0,0.0,0.0,0.0,0.0,0.0,0.0,0.0,0.0,0.0,0.0,0.0,0.0,0.0,0.0,0.0,0.0,0.0,0.0,0.0,0.0,0.0,0.0,0.0,0.0,0.0,0.0,0.0,0.0,0.0,0.0,0.0,0.0,0.0,0.0,0.0,0.0,0.0,0.0,0.0,0.0,0.0,0.0,0.0,0.0,0.0,0.0,0.0,0.0,0.0,0.0,0.0,0.0,0.0,0.0,0.0,0.0,0.0,0.0,0.0,0.0,0.0,0.0,0.0,0.0,0.0,0.0,0.0,0.0,0.0,0.0,0.0,0.0,0.0,0.0,0.0,0.0,0.0,0.0,0.0,0.0,0.0,0.0,0.0,0.0,0.0,0.0,0.0,0.0,0.0,0.0,0.0,0.0,0.0,0.0,0.0,0.0,0.0,0.0,0.0,0.0,0.0,0.0,0.0,0.0,0.0,0.0,0.0,0.0,0.0,0.0,0.0,0.0,0.0,0.0,0.0,0.0,0.0,0.0,0.0,0.0,0.0,0.0,0.0,0.0,0.0,0.0,0.0,0.0,0.0,0.0,0.0,0.0,0.0,0.0,0.0,0.0,0.0,0.0,0.0,0.0,0.0,0.0,0.0,0.0,0.0,0.0,0.0,0.0,0.0,0.0,0.0,0.0,0.0,0.0,0.0,0.0,0.0,0.0,0.0,0.0,0.0,0.0,0.0,0.0,0.0,0.0,0.0,0.0,0.0,0.0,0.0,0.0,0.0,0.0,0.0,0.0,0.0,0.0,0.0,0.0,0.0,0.0,0.0,0.0,0.0,0.0,0.0,0.0,0.0,0.0,0.0,0.0,0.0,0.0,0.0,0.0,0.0,0.0,0.0,0.0,0.0,0.0,0.0,0.0,0.0,0.0,0.0,0.0,0.0,0.0,0.0,0.0,0.0,0.0,0.0,0.0,0.0,0.0,0.0,0.0,0.0,0.0,0.0,0.0,0.0,0.0,0.0,0.0,0.0,0.0,0.0,0.0,0.0,0.0,0.0,0.0,0.0,0.0,0.0,0.0,0.0,0.0,0.0,0.0,0.0,0.0,0.0,0.0,0.0,0.0,0.0,0.0,0.0,0.0,0.0,0.0,0.0,0.0,0.0,0.0,0.0,0.0,0.0,0.0,0.0,0.0,0.0,0.0,0.0,0.0,0.0,0.0,0.0,0.0,0.0,0.0,0.0,0.0,0.0,0.0,0.0,0.0,0.0,0.0,0.0,0.0,0.0,0.0,0.0,0.0,0.0,0.0,0.0,0.0,0.0,0.0,0.0,0.0,0.0,0.0,0.0,0.0,0.0,0.0,0.0,0.0,0.0,0.0,0.0,0.0,0.0,0.0,0.0,0.0,0.0,0.0,0.0,0.0,0.0,0.0,0.0,0.0,0.0,0.0,0.0,0.0,0.0,0.0,0.0,0.0,0.0,0.0,0.0,0.0,0.0,0.0,0.0,0.0,0.0,0.0,0.0,0.0,0.0,0.0,0.0,0.0,0.0,0.0,0.0,0.0,0.0,0.0,0.0,0.0,0.0,0.0,0.0,0.0,0.0,0.0,0.0,0.0,0.0,0.0,0.0,0.0,0.0,0.0,0.0,0.0,0.0,0.0,0.0,0.0,0.0,0.0,0.0,0.0,0.0,0.0,0.0,0.0,0.0,0.0,0.0,0.0,0.0,0.0,0.0,0.0,0.0,0.0,0.0,0.0,0.0,0.0,0.0,0.0,0.0,0.0,0.0,0.0,0.0,0.0,0.0,0.0,0.0,0.0,0.0,0.0,0.0,0.0,0.0,0.0,0.0,0.0,0.0,0.0,0.0,0.0,0.0,0.0,0.0,0.0,0.0,0.0,0.0,0.0,0.0,0.0,0.0,0.0,0.0,0.0,0.0,0.0,0.0,0.0,0.0,0.0,0.0,0.0,0.0,0.0,0.0,0.0,0.0,0.0,0.0,0.0,0.0,0.0,0.0,0.0,0.0,0.0,0.0,0.0,0.0,0.0,0.0,0.0,0.0,0.0,0.0,0.0,0.0,0.0,0.0,0.0,0.0,0.0,0.0,0.0,0.0,0.0,0.0,0.0,0.0,0.0,0.0,0.0,0.0,0.0,0.0,0.0,0.0,0.0,0.0,0.0,0.0,0.0,0.0,0.0,0.0,0.0,0.0,0.0,0.0,0.0,0.0,0.0,0.0,0.0,0.0,0.0,0.0,0.0,0.0,0.0,0.0,0.0,0.0,0.0,0.0,0.0,0.0,0.0,0.0,0.0,0.0,0.0,0.0,0.0,0.0,0.0,0.0,0.0,0.0,0.0,0.0,0.0,0.0,0.0,0.0,0.0,0.0,0.0,0.0,0.0,0.0,0.0,0.0,0.0,0.0,0.0,0.0,0.0,0.0,0.0,0.0,0.0,0.0,0.0,0.0,0.0,0.0,0.0,0.0,0.0,0.0,0.0,0.0,0.0,0.0,0.0,0.0,0.0,0.0,0.0,0.0,0.0,0.0,0.0,0.0,0.0,0.0,0.0,0.0,0.0,0.0,0.0,0.0,0.0,0.0,0.0,0.0,0.0,0.0,0.0,0.0,0.0,0.0,0.0,0.0,0.0,0.0,0.0,0.0,0.0,0.0,0.0,0.0,0.0,0.0,0.0,0.0,0.0,0.0,0.0,0.0,0.0,0.0,0.0,0.0,0.0,0.0,0.0,0.0,0.0,0.0,0.0,0.0,0.0,0.0,0.0,0.0,0.0,0.0,0.0,0.0,0.0,0.0,0.0,0.0,0.0,0.0,0.0,0.0,0.0,0.0,0.0,0.0,0.0,0.0,0.0,0.0,0.0,0.0,0.0,0.0,0.0,0.0,0.0,0.0,0.0,0.0,0.0,0.0,0.0,0.0,0.0,0.0,0.0,0.0,0.0,0.0,0.0,0.0,0.0,0.0,0.0,0.0,0.0,0.0,0.0,0.0,0.0,0.0,0.0,0.0,0.0,0.0,0.0,0.0,0.0,0.0,0.0,0.0,0.0,0.0,0.0,0.0,0.0,0.0,0.0,0.0,0.0,0.0,0.0,0.0,0.0,0.0,0.0,0.0,0.0,0.0,0.0,0.0,0.0,0.0,0.0,0.0,0.0,0.0,0.0,0.0,0.0,0.0,0.0,0.0,0.0,0.0,2.2814,0.0,0.0,0.0,0.0,0.0,0.0,0.0,0.0,0.0,0.0,0.0,0.0,0.0,0.0,0.0,0.0,0.0,0.0,0.0,0.0,0.0,0.0,0.0,0.0,2.0287,1.9811,1.8882,1.7908,1.7848,1.9077,0.0,0.0,0.0,0.0,0.0,2.1273,2.114,2.1389,2.2042,2.3523,2.5409,2.7688,2.7284,2.5876,2.3601,0.0,0.0,0.0,0.0,0.0,0.0,0.0,0.0,0.0,0.0,0.0,0.0,0.0,0.0,0.0,0.0,0.0,0.0,0.0,0.0,0.0,0.0,0.0,0.0,0.0,0.0,0.0,0.0,0.0,0.0,0.0,0.0,0.0,0.0,0.0,0.0,0.0,0.0,0.0,0.0,0.0,0.0,0.0,0.0,0.0,0.0,0.0,0.0,0.0,0.0,0.0,0.0,0.0,0.0,0.0,0.0,0.0,0.0,0.0,0.0,0.0,0.0,0.0,0.0,0.0,0.0,0.0,0.0,0.0,0.0,0.0,2.4872,0.0,0.0,0.0,0.0,0.0,0.0,0.0,0.0,0.0,0.0,0.0,0.0,0.0,0.0,0.0,0.0,0.0,0.0,0.0,0.0,0.0,2.1058,2.1006,2.1214,2.0824,1.9497,1.8724,1.8564,1.9278,1.9317,0.0,0.0,2.166,2.2084,2.1297,2.1756,2.2466,2.348,2.603,2.8845,3.1838,3.1787,3.0249,2.7329,2.4218,0.0,0.0,0.0,0.0,0.0,0.0,0.0,0.0,0.0,0.0,0.0,0.0,0.0,0.0,0.0,0.0,0.0,0.0,0.0,0.0,0.0,0.0,0.0,0.0,0.0,0.0,0.0,0.0,0.0,0.0,0.0,0.0,0.0,0.0,0.0,0.0,0.0,0.0,0.0,0.0,0.0,0.0,0.0,0.0,0.0,0.0,0.0,0.0,0.0,0.0,0.0,0.0,0.0,0.0,0.0,0.0,0.0,0.0,0.0,0.0,0.0,0.0,0.0,3.2274,3.2414,3.27,3.2201,3.2568,3.35,3.1427,3.036,2.9918,2.718,0.0,0.0,0.0,0.0,0.0,0.0,0.0,0.0,0.0,0.0,0.0,0.0,0.0,0.0,0.0,0.0,0.0,0.0,0.0,2.1006,2.0899,2.1868,2.2055,2.0994,1.9959,1.9745,2.0508,1.989,1.9947,2.102,2.1568,2.2023,2.2467,2.1828,2.2783,2.5422,3.0074,3.3307,3.5179,3.4934,3.4569,3.3908,2.9337,2.6469,2.4912,0.0,0.0,0.0,0.0,0.0,0.0,0.0,0.0,0.0,0.0,0.0,0.0,0.0,0.0,0.0,0.0,0.0,0.0,0.0,0.0,0.0,0.0,0.0,0.0,0.0,0.0,0.0,0.0,0.0,0.0,0.0,0.0,0.0,0.0,0.0,0.0,0.0,0.0,0.0,0.0,0.0,2.6525,2.6943,0.0,0.0,0.0,0.0,0.0,0.0,0.0,0.0,0.0,0.0,0.0,0.0,0.0,3.2293,3.2554,3.5248,3.637,3.6007,3.7714,3.829,3.7892,3.7294,3.7143,3.734,3.8093,0.0,3.1601,3.1153,0.0,0.0,0.0,0.0,0.0,0.0,0.0,0.0,0.0,0.0,0.0,0.0,0.0,0.0,0.0,0.0,0.0,0.0,0.0,0.0,0.0,2.3875,2.412,2.4847,2.3771,2.3073,2.3052,2.2364,2.1774,2.1318,2.1843,2.2198,2.2321,2.3395,2.5867,2.9749,3.318,3.5806,3.7533,3.7868,3.7997,3.7873,3.4685,3.1463,2.8267,2.5677,0.0,0.0,0.0,0.0,0.0,0.0,0.0,0.0,0.0,0.0,0.0,0.0,0.0,0.0,0.0,0.0,0.0,0.0,0.0,0.0,0.0,0.0,0.0,0.0,0.0,0.0,0.0,0.0,0.0,0.0,0.0,0.0,0.0,0.0,0.0,0.0,0.0,0.0,0.0,2.7144,2.7766,2.6802,2.6903,2.6513,0.0,0.0,0.0,0.0,0.0,0.0,0.0,0.0,0.0,3.4479,3.5125,3.5999,3.7185,3.8795,3.9374,3.8854,3.9715,3.9873,3.932,3.9069,3.9322,4.0018,4.0582,3.977,3.7806,3.5731,3.4117,3.2654,0.0,0.0,0.0,0.0,3.029,3.106,0.0,0.0,0.0,0.0,0.0,0.0,0.0,0.0,0.0,0.0,0.0,0.0,2.5797,2.6227,2.6974,2.836,2.74,2.651,2.6012,2.5335,2.4423,2.322,2.3357,2.3735,2.4229,2.7049,3.0286,3.3923,3.6221,3.8163,3.978,4.0316,4.055,4.049,3.8931,3.5925,3.1868,2.9046,2.7385,2.6457,0.0,0.0,0.0,0.0,0.0,0.0,0.0,0.0,0.0,0.0,0.0,0.0,0.0,0.0,0.0,0.0,0.0,0.0,0.0,0.0,0.0,0.0,0.0,0.0,0.0,0.0,0.0,0.0,0.0,0.0,0.0,0.0,0.0,0.0,0.0,0.0,0.0,2.9245,2.9911,2.7962,2.9845,3.0176,0.0,0.0,0.0,0.0,0.0,0.0,3.4445,3.461,3.5798,3.8218,3.8712,3.9643,4.1153,4.1555,4.148,4.0927,4.0802,4.0583,4.0389,4.0236,4.0895,4.2133,4.2398,4.2876,4.3128,3.9793,3.8203,3.7685,3.4552,3.3257,3.3227,3.3599,3.4034,3.4723,0.0,0.0,0.0,0.0,0.0,0.0,0.0,0.0,0.0,0.0,0.0,2.6539,2.5434,2.8713,3.0814,3.041,2.9668,2.9207,2.9177,2.8329,2.784,2.797,2.6835,2.7488,3.0192,3.3566,3.5861,3.698,3.944,4.1165,4.2146,4.2095,4.2078,4.2048,4.1203,3.9092,3.5995,3.2735,3.0404,2.8771,2.6748,0.0,0.0,0.0,0.0,0.0,0.0,0.0,0.0,0.0,0.0,0.0,0.0,0.0,0.0,0.0,0.0,0.0,0.0,0.0,0.0,0.0,0.0,0.0,0.0,0.0,0.0,0.0,0.0,0.0,0.0,0.0,0.0,0.0,0.0,0.0,0.0,0.0,0.0,3.3096,3.4469,0.0,0.0,0.0,0.0,3.3586,3.4567,3.6223,3.8728,3.931,4.0526,4.263,4.2705,4.2785,4.2861,4.2886,4.2665,4.2112,4.1555,4.1588,4.2257,4.1755,4.223,4.3456,4.4674,4.5252,4.5063,4.2604,4.0974,3.9938,3.8561,3.782,3.754,3.7663,3.8254,3.8984,0.0,0.0,0.0,0.0,0.0,1.6727,1.8344,2.0405,2.265,2.5252,2.6976,2.9117,3.213,3.3002,3.4136,3.6128,3.4867,3.3846,3.3536,3.1988,3.01,2.7882,2.8482,3.0286,3.3401,3.6401,3.8699,4.0241,4.2565,4.3898,4.422,4.4678,4.4698,4.4313,4.393,4.2974,4.131,3.7083,3.4715,3.3614,3.0646,2.8245,0.0,0.0,0.0,0.0,0.0,0.0,0.0,0.0,0.0,0.0,0.0,0.0,0.0,0.0,0.0,0.0,0.0,0.0,0.0,0.0,0.0,0.0,0.0,0.0,0.0,0.0,0.0,0.0,0.0,0.0,0.0,0.0,0.0,0.0,0.0,0.0,0.0,3.5282,3.7689,0.0,3.5548,3.6677,3.7738,3.8099,3.9451,4.0819,4.209,4.2339,4.2899,4.4016,4.3689,4.3514,4.3514,4.3162,4.2924,4.2837,4.263,4.2729,4.3085,4.2895,4.3504,4.4748,4.5207,4.5869,4.6506,4.5201,4.4237,4.3286,4.1661,4.091,4.0754,4.082,4.0757,4.0715,0.0,0.0,0.0,1.4221,1.5349,1.697,1.9261,2.1322,2.3846,2.7286,2.9173,3.1632,3.5391,3.6285,3.7511,3.9686,3.8265,3.7211,3.7147,3.4423,3.187,2.9798,3.1283,3.3575,3.6594,3.9321,4.1594,4.3343,4.487,4.5792,4.6105,4.6613,4.6762,4.6644,4.6531,4.6169,4.5332,4.1882,3.9423,3.7575,3.4603,3.2182,3.0058,0.0,0.0,0.0,0.0,0.0,0.0,0.0,0.0,0.0,0.0,0.0,0.0,0.0,0.0,0.0,0.0,0.0,0.0,0.0,0.0,0.0,0.0,0.0,0.0,0.0,0.0,0.0,0.0,0.0,0.0,0.0,0.0,0.0,0.0,3.684,3.8922,3.7488,4.0738,4.2061,3.9357,4.0734,4.1892,4.2178,4.3212,4.4066,4.4618,4.4644,4.4819,4.5171,4.4468,4.4091,4.4091,4.3817,4.3504,4.3229,4.3666,4.3976,4.4116,4.4116,4.484,4.6032,4.6032,4.6359,4.692,4.6262,4.5574,4.4825,4.3539,4.3069,4.3,4.2761,4.2402,4.2073,0.0,1.3256,1.3318,1.4175,1.5278,1.6798,1.9076,2.1744,2.419,2.6287,3.0795,3.4068,3.474,3.835,4.075,4.0765,3.9491,3.9011,3.9673,3.5473,3.3332,3.4148,3.5448,3.7381,4.0019,4.2676,4.4758,4.6308,4.6308,4.6837,4.7808,4.7808,4.8198,4.8933,4.8968,4.8543,4.7781,4.6948,4.4266,4.0474,3.8546,3.6574,3.4349,0.0,0.0,0.0,0.0,0.0,0.0,0.0,0.0,0.0,0.0,0.0,0.0,0.0,0.0,0.0,0.0,0.0,0.0,0.0,0.0,0.0,0.0,0.0,0.0,0.0,0.0,0.0,0.0,0.0,0.0,0.0,0.0,0.0,3.6037,3.8344,4.006,3.9944,4.374,4.5296,4.2665,4.4267,4.5522,4.5522,4.5522,4.5773,4.6276,4.6301,4.6301,4.6301,4.5221,4.4644,4.4676,4.4915,4.4414,4.3333,4.4702,4.5388,4.5434,4.5434,4.6121,4.7309,4.7309,4.692,4.6262,4.5574,4.4915,4.4317,4.4287,4.4257,4.4167,4.3499,4.323,4.311,1.3279,1.3603,1.4104,1.4844,1.5913,1.7503,2.0041,2.1588,2.4301,2.9424,3.2298,3.5316,3.9125,4.061,4.1495,4.1849,3.9799,3.8426,3.8287,3.5819,3.5505,3.8083,3.8985,4.1015,4.4404,4.6174,4.7462,4.8161,4.8753,4.9338,4.9965,4.9965,4.9822,4.9585,5.0101,4.9699,4.8612,4.8901,4.7726,4.5395,4.2711,4.0676,3.8966,0.0,0.0,0.0,0.0,0.0,0.0,0.0,0.0,0.0,0.0,0.0,0.0,0.0,0.0,0.0,0.0,0.0,0.0,0.0,0.0,0.0,0.0,0.0,0.0,0.0,0.0,0.0,0.0,0.0,0.0,0.0,3.4703,3.7138,3.8958,4.1947,4.4228,4.4962,4.6502,4.7179,4.6401,4.6527,4.6527,4.6125,4.6451,4.6577,4.6326,4.6301,4.6301,4.6301,4.5623,4.5545,4.6117,4.5802,4.5816,4.6083,4.6498,4.672,4.677,4.677,4.6975,4.7309,4.7309,4.692,4.6262,4.5574,4.4915,4.4257,4.3738,4.3299,4.292,4.274,4.2013,4.1115,1.316,1.3314,1.3778,1.4991,1.5807,1.7126,1.9792,2.1327,2.4141,2.9503,3.2293,3.5479,3.9785,4.0736,4.105,4.1022,3.875,3.7199,3.6922,3.5462,3.6112,3.9522,4.0348,4.2713,4.7005,4.79,4.8738,4.9696,4.9969,5.0581,5.1543,5.14,5.1261,5.1253,5.1667,5.1263,5.0232,5.0406,4.9735,4.8435,4.6444,4.4659,4.2886,4.0171,3.8443,3.7134,3.4554,3.3038,3.1944,3.0245,0.0,0.0,0.0,0.0,0.0,0.0,0.0,0.0,0.0,0.0,0.0,0.0,0.0,0.0,0.0,0.0,0.0,0.0,0.0,0.0,0.0,0.0,0.0,0.0,3.7019,3.9699,4.1626,4.3765,4.5698,4.728,4.7933,4.836,4.8586,4.7908,4.733,4.7004,4.6853,4.6652,4.6326,4.6301,4.6301,4.6301,4.6374,4.6513,4.6708,4.7379,4.7531,4.7213,4.7835,4.7788,4.7309,4.7309,4.7309,4.7279,4.701,4.6501,4.5843,4.5155,4.4496,0.0,0.0,0.0,0.0,0.0,4.1294,4.0337,1.3118,1.2768,1.3025,1.4851,1.5349,1.6332,1.889,2.0831,2.3522,2.7679,3.112,3.4519,3.795,3.9281,3.9553,3.8707,3.6731,3.5547,3.5569,3.4972,3.6157,3.9623,4.0859,4.361,4.8321,4.8537,4.938,5.0988,5.0541,5.1148,5.2733,5.2313,5.2527,5.3203,5.3203,5.2791,5.2065,5.1469,5.0743,4.9947,4.9376,4.8063,4.6164,4.3032,4.2162,4.2176,3.8685,3.7576,3.7302,3.387,0.0,0.0,0.0,0.0,0.0,0.0,0.0,0.0,0.0,0.0,0.0,0.0,0.0,0.0,0.0,0.0,0.0,0.0,0.0,0.0,0.0,0.0,0.0,0.0,3.973,4.2715,4.384,4.4468,4.5573,4.7657,4.836,4.8862,4.9364,4.8435,4.7782,4.7732,4.6903,4.6376,4.6301,4.6481,0.0,0.0,0.0,4.7708,4.7207,4.9174,4.9288,4.7431,4.8725,4.8566,4.7309,4.7309,4.7309,4.7279,4.6681,4.5992,4.5244,4.4676,4.3947,4.329,4.314,4.2761,4.2201,4.1482,4.0786,4.0277,1.3026,1.3168,1.3644,1.476,1.5596,1.68,1.877,1.9403,2.1473,2.653,2.8928,3.1624,3.5525,3.6856,3.6881,3.5391,3.4416,3.3951,3.4175,3.6027,3.8408,4.1388,4.4288,4.6897,4.912,4.9869,5.0887,5.2245,5.1775,5.2223,5.3553,5.3142,5.3078,5.3203,5.3203,5.2791,5.2089,5.1934,5.1189,5.0004,4.9833,4.9278,4.8253,4.6288,4.5996,4.6223,4.3443,4.2271,4.1799,3.979,3.7507,3.5073,3.2615,3.0687,0.0,0.0,0.0,0.0,0.0,0.0,0.0,0.0,0.0,0.0,0.0,0.0,0.0,0.0,0.0,0.0,0.0,0.0,0.0,3.8791,4.1175,4.3363,4.4945,4.5623,4.6451,4.7757,4.8008,4.8109,4.8234,4.7657,4.7104,4.6652,4.6853,4.6778,4.6326,4.7416,4.8094,4.8094,4.8886,4.9579,5.0186,5.0074,4.9679,4.8907,0.0,0.0,4.7309,4.7309,4.7309,4.7309,4.716,4.6411,4.5274,4.5155,4.4407,4.32,4.2162,4.1683,4.1482,4.0247,3.9709,3.9619,1.2977,1.2991,1.3317,1.4135,1.4673,1.5649,1.7503,1.8234,1.9894,2.3634,2.5647,2.8021,3.121,3.2199,3.2375,3.1714,3.1518,3.1815,3.2683,3.591,3.9211,4.2463,4.5077,4.7302,4.9126,4.9537,5.0673,5.2603,5.191,5.235,5.3777,5.34,5.3203,5.3203,5.3203,5.298,5.2658,5.2687,5.229,5.1635,5.1318,5.1006,5.0484,4.8534,4.7964,4.7933,4.6156,4.5304,4.4725,4.2872,4.1053,3.9117,3.6646,3.4684,3.2496,0.0,0.0,0.0,0.0,0.0,0.0,0.0,0.0,0.0,0.0,0.0,0.0,0.0,0.0,3.9169,3.9234,0.0,4.1004,4.1667,4.3137,4.4518,4.5372,4.62,4.7309,4.8926,4.9348,4.9528,4.9528,4.9013,4.817,4.6813,4.7401,4.7666,4.7442,4.8793,4.9621,4.9621,5.0405,5.0885,5.0989,5.1058,5.0478,4.9299,4.9299,4.8566,4.7309,4.7309,4.7309,4.7279,4.6591,4.5933,4.5244,4.4586,4.3888,4.317,4.1893,4.1422,4.1235,3.9918,3.9373,3.9373,1.3017,1.2783,1.2893,1.3535,1.3665,1.435,1.6175,1.7203,1.8538,2.0783,2.2564,2.4526,2.6784,2.7494,2.7965,2.8364,2.9078,3.0305,3.2089,3.5776,3.9419,4.2882,4.4624,4.641,4.8314,4.858,4.9848,5.2245,5.1598,5.2101,5.3553,5.3187,5.298,5.298,5.285,5.2878,5.3016,5.3039,5.3095,5.3049,5.2593,5.229,5.1977,5.0144,4.9256,4.8917,4.7967,4.7322,4.6656,4.4912,4.3803,4.2749,4.0219,3.8307,3.6025,3.1508,3.0608,0.0,0.0,0.0,0.0,0.0,0.0,0.0,0.0,3.7519,3.8659,4.1394,4.2453,4.3115,4.3726,4.4186,4.4492,4.4755,4.5178,4.5522,4.5623,4.6401,4.779,4.9988,5.065,5.1028,5.1603,5.0857,4.9713,4.8111,4.8583,4.8908,4.8908,5.0214,5.1014,5.1153,5.1704,5.1853,5.1447,5.1835,5.1079,4.9299,4.9299,4.8566,4.7309,4.7309,4.7309,4.7249,4.5873,4.5304,4.5185,4.3828,4.329,4.317,4.1893,4.1422,4.1235,3.9918,3.9373,3.9373,1.32,1.3017,1.3003,1.3462,1.3608,1.4243,1.5824,1.6235,1.7337,1.9903,2.0896,2.2079,2.4016,2.4823,2.5489,2.6199,2.8248,3.0808,3.3885,3.6919,3.9742,4.2298,4.3794,4.5189,4.6494,4.7735,4.9211,5.0988,5.1187,5.1803,5.2715,5.2382,5.2206,5.2183,5.1593,5.1683,5.2332,5.2325,5.2345,5.2416,5.2344,5.1901,5.1312,5.1046,5.0794,5.0429,4.942,4.8464,4.7586,4.7044,4.6062,4.4911,4.411,4.2047,3.9051,3.4612,3.1712,2.9399,2.6609,2.8341,3.2146,3.7374,3.9068,4.1751,0.0,4.9725,4.8564,5.239,5.191,5.0838,5.0921,4.8978,4.7483,4.8052,4.6649,4.5673,4.615,4.6326,4.7358,5.0022,4.9825,5.0489,5.3014,5.1673,5.0764,5.1172,5.0736,5.0435,5.0435,5.1327,5.2096,5.2722,5.2356,5.2394,5.2949,5.1852,5.0631,4.9299,4.9299,4.8566,4.7309,4.7309,4.7309,4.7249,4.5873,4.5304,4.5185,4.3828,4.329,4.317,4.1893,4.1422,4.1235,3.9918,3.9373,3.9373,1.3236,1.3127,1.3039,1.3003,1.2915,1.3462,1.5117,1.5407,1.6133,1.8112,1.8633,1.934,2.0614,2.2075,2.3126,2.3548,2.6536,2.946,3.1954,3.5288,3.8229,4.0641,4.1446,4.292,4.5148,4.542,4.6745,4.9306,4.9648,5.0264,5.1098,5.1395,5.1246,5.0717,5.0398,5.0437,5.0787,5.1242,5.1997,5.293,5.2984,5.3076,5.3049,5.2001,5.0441,4.8644,4.7367,4.6137,0.0,4.4489,4.3938,4.3443,4.329,4.161,3.8852,3.4486,3.2489,3.163,3.1207,3.2686,3.5085,3.7958,4.1394,4.508,4.8749,4.9577,5.0443,5.372,5.4111,5.3774,5.3232,5.1682,5.0351,4.9717,4.8069,4.6878,4.6803,4.6803,4.7409,4.9185,4.9033,5.0072,5.3193,5.2178,5.1432,5.168,5.1929,5.2051,5.2051,5.2856,5.3398,5.3663,5.2732,5.2336,5.2606,5.1319,5.0182,4.9299,4.891,4.8207,4.7309,4.7309,4.689,4.6112,4.5544,4.4855,4.4107,4.3529,4.329,4.32,4.2312,4.1752,4.1235,3.9918,3.9373,3.9373,1.3309,1.3236,1.3127,1.282,1.2562,1.2842,1.4294,1.4545,1.5053,1.6333,1.6853,1.7434,1.8352,2.0112,2.1438,2.19,2.5272,2.826,3.0317,3.3601,3.6414,3.8459,3.9003,4.0417,4.2826,4.258,4.3687,4.6369,4.7212,4.7996,4.87,4.9604,4.9671,4.8983,4.8809,4.8855,4.9093,4.9668,5.072,5.2032,5.2272,5.2697,5.2974,5.1274,4.903,4.6557,4.53,4.3563,4.1773,4.1087,4.0746,4.063,4.0764,3.9369,3.7097,3.3707,3.215,3.1763,3.3018,3.4703,3.6563,3.8447,4.3035,4.7212,4.7926,4.9612,5.1704,5.4233,5.5256,5.5589,5.5124,5.378,5.2438,5.1352,4.9351,4.7732,4.7205,4.7068,4.7329,4.7938,4.7847,4.8927,5.2116,5.2181,5.2322,5.2876,5.3362,5.3623,5.3623,5.3841,5.4012,5.4192,5.2725,5.1917,5.1917,5.0764,4.9823,4.903,4.8506,4.7938,4.7309,4.713,4.6501,4.5574,4.5185,4.4496,4.3559,4.3379,4.329,4.32,4.2402,4.1841,4.1235,3.9918,3.9373,3.9373,1.3492,1.3346,1.32,1.32,1.2856,1.282,1.3462,1.3644,1.4027,1.4851,1.593,1.6973,1.792,1.942,2.0775,2.1889,2.4962,2.783,3.0256,3.2567,3.448,3.5875,3.6924,3.7897,3.8772,3.9344,4.0319,4.1693,4.3672,4.4929,4.5465,4.6715,4.7308,4.7243,4.6601,4.6667,4.7377,4.7377,4.783,4.861,4.9282,4.9534,4.9405,4.8055,4.648,4.4893,4.4197,4.161,3.8439,3.7768,3.7111,3.6675,3.7119,3.5781,3.3837,3.2782,3.0131,2.7857,2.9503,3.1992,3.5291,4.0342,4.4359,4.8213,5.2422,5.3573,5.4388,5.6464,5.7009,5.7244,5.7879,5.5504,5.3478,5.342,5.0314,4.7732,4.7205,4.7068,4.6928,4.6436,4.5883,4.667,4.9323,5.1654,5.3809,5.5901,5.5517,5.5128,5.5128,5.3922,5.3533,5.4192,5.2276,5.1259,5.1259,5.0524,4.9583,4.8327,4.8297,4.7938,4.7279,4.6651,4.6279,4.619,4.4915,4.4317,4.4227,4.3559,4.329,4.317,4.1923,4.1422,4.1235,3.9918,3.9373,3.9373,1.3492,1.3455,1.3528,1.3876,1.3579,1.3392,1.3601,1.3608,1.3937,1.5029,1.6446,0.0,0.0,0.0,0.0,0.0,2.4154,2.6277,2.8728,2.9706,3.0886,3.2431,3.2482,3.3266,3.5003,3.5358,3.6248,3.7709,4.0077,4.1308,4.1579,4.3751,4.4212,4.3304,4.3418,4.3618,4.3938,4.4752,4.5638,4.6576,4.808,4.7631,4.6021,4.5284,4.3025,4.0017,0.0,3.6743,3.5524,3.4435,3.3863,3.3551,3.3735,3.2872,3.1368,2.9149,2.8715,2.9302,3.0959,3.4072,3.7554,4.0386,4.4407,4.8076,4.9549,5.1598,5.3427,5.414,5.3675,5.3264,5.3503,5.2514,5.1504,5.085,5.0318,4.9518,4.8422,4.8209,4.7606,4.5974,4.5924,4.6348,4.7103,4.8592,5.0519,5.3039,5.355,5.3756,5.3756,5.3416,5.3294,5.3533,5.1618,5.0524,5.0524,4.9494,4.8716,4.8267,4.7848,4.7519,4.7309,4.707,4.6501,4.5603,4.5155,4.4466,4.3618,4.3379,4.306,4.2641,4.2231,4.1542,4.0666,4.0217,3.9798,3.9373,0.0,1.3695,1.4051,1.4574,1.4593,0.0,0.0,0.0,0.0,0.0,0.0,0.0,0.0,0.0,0.0,0.0,0.0,2.46,2.6536,2.7065,2.7797,2.905,2.8851,2.9365,3.0788,3.0803,3.1337,3.255,3.5143,3.6511,3.6783,3.9997,4.0986,4.0096,4.0915,4.1312,4.1327,4.143,4.1736,4.2279,4.3274,4.2573,4.0871,4.0529,3.8644,0.0,3.3711,3.2782,3.2426,3.1344,3.0756,3.044,3.0405,2.9857,2.9065,2.8053,2.8724,3.0357,3.2993,3.5628,3.8193,4.0513,4.3413,4.5883,4.6599,4.9072,5.1243,5.1243,5.1239,5.1139,5.0853,5.0447,4.9768,4.8556,4.8771,4.8778,4.7875,4.7467,4.6903,4.5899,4.5924,4.5986,4.5844,4.6773,4.8478,5.126,5.2227,5.274,5.3055,5.2941,5.2815,5.2815,5.1139,5.0076,4.9883,4.8835,4.8177,4.7938,4.7519,4.7309,4.7309,4.707,4.6352,4.5274,4.5035,4.4317,4.326,4.309,4.2731,4.2351,4.1871,4.1145,4.0367,4.0127,3.9798,3.9373,0.0,0.0,1.4764,0.0,0.0,0.0,0.0,0.0,0.0,0.0,0.0,0.0,0.0,0.0,0.0,0.0,0.0,0.0,2.3949,2.4675,2.5301,2.5769,2.6125,2.627,2.6225,2.5864,2.5927,2.6416,2.9103,3.0649,3.1177,3.5379,3.7284,3.7277,3.8715,3.9321,3.9168,3.7331,3.627,3.5828,3.5413,3.4938,3.4403,3.4112,3.3592,3.2779,3.1082,3.007,2.938,2.8744,2.8177,2.7747,2.7743,2.7498,2.7564,2.9656,3.0238,3.1155,3.5273,3.648,3.7346,4.0671,4.1541,4.2069,4.3931,4.6296,4.8096,4.8009,4.9427,5.0491,4.9761,4.9143,4.8275,4.669,4.6246,4.6051,4.6086,4.5372,4.5221,4.6225,4.5874,4.5556,4.5565,4.628,4.7975,5.0851,5.1609,5.2268,5.299,5.2528,5.2187,5.2157,5.0823,4.9883,4.9269,4.8566,4.7908,4.7309,4.7309,4.7309,4.7279,4.6651,4.5992,4.5244,4.4646,4.3917,4.323,4.2641,4.2381,4.2231,4.0905,4.0367,4.0277,3.9649,3.9373,3.9373,0.0,0.0,0.0,0.0,0.0,0.0,0.0,0.0,0.0,0.0,0.0,0.0,0.0,0.0,0.0,0.0,0.0,0.0,2.3222,2.317,2.31,2.3106,2.3206,2.3072,2.2649,2.2574,2.2515,2.2555,2.4861,2.582,2.5571,2.9573,3.0711,2.9433,3.0903,3.1357,3.1069,3.165,3.1746,3.159,3.2958,3.2515,3.0998,3.1374,3.0931,3.0147,3.0211,2.9883,2.9473,2.9286,3.0044,3.1316,3.3137,3.3643,3.3574,3.3701,3.4895,3.6191,3.6358,3.7612,3.907,3.9982,4.0895,4.1743,4.2221,4.3965,4.5096,4.3891,4.3675,4.3341,4.2082,4.4516,4.6576,4.6158,4.8636,5.0617,5.0419,4.8876,4.7531,4.6979,4.6426,4.6222,4.6512,4.7066,4.8272,5.0277,5.0925,5.1075,5.065,5.1599,5.1977,5.1498,5.0182,4.9194,4.8536,4.7878,4.7489,4.7309,4.7309,4.7309,4.7309,4.713,4.6411,4.5274,4.5125,4.4377,4.323,4.2641,4.2111,4.1602,4.0726,4.0098,3.9649,3.9433,3.9373,3.9373,0.0,0.0,0.0,0.0,0.0,0.0,0.0,0.0,0.0,0.0,0.0,0.0,0.0,0.0,0.0,0.0,0.0,0.0,0.0,2.1755,2.1508,2.1331,2.1225,2.0806,2.0012,1.9853,1.9578,1.9158,2.1047,2.1858,2.1701,2.5259,2.6396,2.5428,2.7238,2.791,2.768,2.8075,2.804,0.0,0.0,2.8019,2.6862,2.7977,2.8094,2.7848,2.9241,3.0772,3.2275,3.3119,3.3699,3.4312,3.6043,3.6475,3.6448,3.6518,3.7386,3.8254,3.7927,3.8743,3.9697,3.9697,4.0211,4.0587,3.9837,4.1196,4.2011,4.0031,3.9609,3.9284,3.825,4.1683,4.453,4.4162,4.7466,5.0211,5.0638,4.854,4.7079,4.7431,4.6778,4.6408,4.6598,4.7236,4.7987,4.8915,5.0233,5.0823,5.0389,5.1229,5.1468,5.0764,4.9793,4.885,4.7878,4.7489,4.7309,4.7309,4.7309,4.7309,4.7309,4.701,4.6292,4.5274,0.0,4.4287,4.323,4.2641,4.2021,4.1324,4.0666,4.0008,3.9373,3.9373,3.9373,3.9373,0.0,0.0,0.0,0.0,0.0,0.0,0.0,0.0,0.0,0.0,1.6478,1.7536,1.8718,1.9766,0.0,0.0,0.0,0.0,0.0,0.0,2.0489,2.0294,2.002,1.9432,1.843,1.7822,1.7203,1.6583,1.7854,1.8549,1.8752,2.1728,2.3036,2.2934,2.5091,2.6023,2.5958,2.5267,2.4811,2.4461,2.3677,2.3231,2.3187,0.0,0.0,2.6188,2.8536,3.2022,3.5776,3.7849,3.8003,3.7481,3.8447,3.8646,3.8694,3.9156,3.9211,3.9203,3.9626,3.9697,3.9697,3.9697,3.9697,3.9245,3.7563,3.8527,3.9011,3.6507,3.6493,3.6776,3.6236,3.9451,4.2222,4.2223,4.5021,4.7718,4.9338,4.7094,4.591,4.7682,4.6954,4.6361,4.6601,4.7244,4.7744,4.7953,4.9861,5.0975,5.1048,5.1075,5.0704,4.9956,4.9344,4.8446,4.7309,4.7309,4.7309,4.7309,4.7309,4.7309,4.7279,4.6621,4.5933,4.5244,4.4586,4.3917,4.323,4.2641,4.2081,4.1482,4.0786,4.0127,3.9523,3.9523,3.9499,3.9373,0.0,0.0,0.0,0.0,0.0,0.0,0.0,0.0,0.0,0.0,1.5545,1.6642,0.0,0.0,0.0,0.0,0.0,0.0,0.0,0.0,0.0,2.0294,2.002,1.9576,1.8874,1.7349,1.6384,1.6037,1.6126,1.5894,1.5461,1.7878,1.8473,1.7531,1.9286,1.9926,1.9659,2.0564,2.1097,2.1401,2.1478,2.2126,2.3038,0.0,0.0,0.0,2.9065,3.2298,3.5727,3.8329,4.0547,4.2595,4.4852,4.5951,4.5991,4.4022,4.3423,4.2895,4.0389,3.9697,3.9697,3.9697,3.9697,3.9245,3.7563,3.743,3.6785,3.3614,3.3597,3.371,3.241,3.564,3.9815,4.3718,4.6186,4.8792,5.2139,5.0228,4.8325,4.7931,4.6954,4.6755,4.7977,4.8221,4.8913,5.0307,5.0761,5.0745,5.0246,5.0319,4.9853,4.8656,4.7997,4.7549,4.7309,4.7309,4.7309,4.7309,4.7309,4.7309,4.7279,4.6621,4.5933,4.5244,4.4586,0.0,4.323,4.2641,4.2321,4.2171,4.1512,4.0816,4.0217,4.0217,3.9888,3.9373,0.0,0.0,0.0,0.0,0.0,0.0,0.0,1.7449,1.6597,1.4782,1.5303,1.624,1.735,1.8559,1.9648,0.0,0.0,0.0,0.0,0.0,0.0,0.0,0.0,0.0,1.8668,1.7349,1.6365,1.5808,0.0,1.4928,1.4902,1.6431,1.666,1.5828,1.7542,1.817,1.8071,1.9241,2.0192,2.0961,2.1469,2.2116,0.0,0.0,0.0,0.0,0.0,3.1268,3.4838,3.6213,3.9453,4.3404,4.6386,4.7519,4.7377,4.5499,4.4517,4.3478,4.1298,4.0211,3.9697,3.9697,3.9697,3.8944,3.6132,3.5705,3.4876,3.122,3.104,3.1331,3.0739,3.4007,3.7821,4.0879,4.3504,4.6234,4.9572,4.82,4.701,4.7417,4.6803,4.6601,4.7324,4.7748,4.8476,4.9771,5.0235,5.0514,5.0642,5.005,4.9284,4.8327,4.7638,4.7309,4.7309,4.7309,4.7309,4.7309,4.7309,4.7309,4.7279,4.6621,4.5933,4.5244,4.4586,4.3917,4.326,4.3,4.2671,4.2381,4.2051,4.1542,4.0905,4.0905,4.0487,3.9918,0.0,0.0,0.0,0.0,0.0,0.0,1.7658,1.7366,1.6685,1.4991,1.5276,1.6087,1.736,1.8621,1.9725,0.0,0.0,0.0,0.0,0.0,0.0,0.0,0.0,0.0,0.0,0.0,0.0,1.6103,1.5304,0.0,0.0,0.0,0.0,0.0,1.7513,1.8278,1.8359,1.9411,2.0411,0.0,0.0,2.2304,0.0,0.0,0.0,0.0,0.0,3.0166,3.3378,3.3921,3.709,4.1354,4.4352,4.6126,4.6794,4.5227,4.4047,4.3053,4.191,4.0642,3.9722,3.9848,3.9798,3.8718,3.4926,3.4399,3.3577,2.969,2.9377,2.9856,3.0011,3.2658,3.55,3.7585,3.9953,4.2735,4.6111,4.5555,4.5219,4.6577,4.6401,4.6075,4.5974,4.6791,4.7548,4.8164,4.9098,4.9941,5.0747,4.9823,4.894,4.8087,4.7578,4.7309,4.7309,4.7309,4.7309,4.7309,4.7309,4.7309,4.7279,4.6621,4.5933,4.5244,4.4586,4.3917,4.329,4.329,4.303,4.262,4.262,4.2201,4.1632,4.1632,4.1175,4.0613,0.0,0.0,0.0,0.0,0.0,0.0,1.7066,1.726,1.7017,1.5284,1.5362,1.6262,1.8037,1.9025,1.9993,0.0,0.0,0.0,0.0,0.0,0.0,0.0,0.0,0.0,0.0,0.0,0.0,1.7538,1.6885,0.0,0.0,0.0,0.0,0.0,0.0,1.9173,1.9253,2.0352,0.0,0.0,0.0,0.0,0.0,0.0,0.0,0.0,0.0,2.9736,3.129,3.319,3.4666,3.6043,3.8189,4.2327,4.5888,4.34,4.2632,4.2438,4.1777,4.0642,3.9823,4.0325,4.0074,3.8818,3.5403,3.463,3.3577,2.969,2.9377,2.9804,2.9818,3.0291,3.2056,3.63,3.7402,3.9489,4.4626,4.526,4.5288,4.5599,4.5598,4.5347,4.4819,4.5964,4.6605,4.6187,4.7549,4.8679,4.9418,4.9389,4.8686,4.7429,4.7339,4.7309,4.7309,4.7309,4.7309,4.7309,4.7309,4.7309,4.7279,4.6621,4.5933,4.5244,4.4586,4.3917,0.0,4.329,4.326,4.32,4.32,4.2851,4.2321,4.2321,4.1901,4.1355,0.0,0.0,0.0,0.0,0.0,0.0,1.622,1.6586,1.653,1.5418,1.6488,1.7806,1.9093,2.0386,2.1178,2.1186,2.119,0.0,0.0,0.0,0.0,0.0,0.0,0.0,0.0,0.0,1.9273,1.8181,1.7096,0.0,0.0,0.0,0.0,0.0,0.0,1.899,1.9332,1.9902,0.0,0.0,0.0,0.0,0.0,0.0,0.0,0.0,0.0,0.0,2.9223,3.0645,3.2209,3.3495,3.3294,3.6105,3.9931,4.2225,4.2697,4.2469,4.2719,4.2103,4.1234,4.0231,3.9094,3.7487,3.4826,3.3696,3.239,2.949,2.9377,2.9804,2.9804,2.9856,3.0722,3.3173,3.3959,3.552,3.9357,4.0438,4.154,4.3299,4.3765,4.4141,4.4593,4.6281,4.7906,4.9016,4.9291,4.936,4.9284,4.894,4.8267,4.7339,4.7309,4.7309,4.7309,4.7309,4.7309,4.7309,4.7309,4.7309,4.7309,4.704,4.6322,4.5274,4.5005,4.4317,0.0,4.329,4.329,4.329,4.329,4.314,4.294,4.294,4.2636,4.2193,0.0,0.0,0.0,0.0,0.0,1.5611,1.5381,1.5902,1.6174,1.5706,1.7199,1.8752,1.9904,2.1239,2.2031,2.1914,2.168,0.0,0.0,0.0,0.0,0.0,0.0,0.0,0.0,0.0,2.0018,1.8846,1.7734,1.6887,0.0,0.0,1.7303,1.7396,0.0,0.0,0.0,0.0,0.0,0.0,0.0,0.0,0.0,0.0,0.0,0.0,0.0,0.0,0.0,0.0,0.0,3.1156,2.9969,3.1411,3.4454,3.9176,4.09,4.1426,4.2113,4.2318,4.192,4.0336,3.8542,3.6659,3.46,3.3144,3.1587,2.9339,2.9377,2.9804,2.9804,2.993,3.0281,3.1035,3.1763,3.3068,3.5554,3.686,3.8391,4.0651,4.1279,4.2007,4.3288,4.5418,4.7903,5.0726,4.9723,4.9024,4.8985,4.8356,4.7788,4.7309,4.7309,4.7309,4.7309,4.7309,4.7309,4.7309,4.7309,4.7309,4.7309,4.7309,4.6561,4.5304,4.5304,4.4556,0.0,4.329,4.329,4.329,4.329,4.329,4.3329,4.3615,4.3426,4.3015,0.0,0.0,0.0,0.0,0.0,1.5419,1.4613,1.5497,1.6198,1.6174,1.7122,1.851,2.0376,2.1261,2.2183,2.3387,2.2863,0.0,0.0,0.0,0.0,0.0,0.0,0.0,2.2794,2.2511,2.1473,1.9571,1.9288,1.8306,1.66,1.7395,1.7766,1.7747,0.0,0.0,0.0,0.0,0.0,0.0,0.0,0.0,0.0,0.0,0.0,0.0,0.0,0.0,0.0,0.0,0.0,0.0,0.0,2.9187,3.062,3.3556,3.635,3.8699,3.9285,4.0489,4.14,4.0664,3.8843,3.6759,3.5102,3.342,3.1587,2.9339,2.9377,2.9804,2.9804,3.0231,3.0608,3.0633,3.1512,0.0,3.4455,3.5705,3.6835,3.7914,3.8065,3.8718,4.04,4.2734,4.5805,4.9889,4.777,4.6828,4.8252,4.7668,4.7309,4.7309,4.7309,4.7309,4.7309,4.7309,4.7309,4.7309,4.7309,4.7309,4.7309,4.7309,4.6561,4.5304,4.5304,4.4556,0.0,4.329,4.329,4.329,4.329,4.329,4.3409,4.4396,4.4341,4.3847,0.0,0.0,0.0,0.0,0.0,0.0,1.3873,1.4972,1.6046,1.6629,1.8458,2.0122,2.1243,2.2428,2.3351,2.3905,2.3509,0.0,0.0,0.0,0.0,0.0,0.0,2.3057,2.3013,2.3082,2.2117,2.0166,1.9974,1.8953,1.7227,1.7492,1.7739,1.8087,1.9547,2.0321,0.0,0.0,0.0,0.0,0.0,0.0,2.5049,0.0,0.0,0.0,0.0,0.0,0.0,0.0,0.0,0.0,0.0,0.0,0.0,3.1135,3.3933,3.6825,3.7343,3.8166,3.849,3.6915,3.5152,3.3646,3.3119,3.1738,3.0357,2.9654,2.9654,2.9804,2.9804,2.993,3.0281,3.1035,3.1436,3.2114,3.342,3.4876,3.631,3.7839,4.044,4.2398,4.297,4.4952,4.6951,4.869,4.8093,4.7837,4.8297,4.7668,4.7309,4.7309,4.7309,4.7309,4.7309,4.7309,4.7309,4.7309,4.686,4.686,4.7279,4.6352,4.5693,4.5274,4.4825,4.4137,4.329,4.329,4.329,4.3369,4.4082,4.3927,4.3497,4.5159,4.4946,4.4071,0.0,0.0,0.0,0.0,0.0,0.0,1.3667,1.4568,1.5767,1.7218,1.8985,2.0604,2.187,2.3063,2.3924,2.4302,2.4202,0.0,0.0,0.0,0.0,0.0,2.3304,2.331,2.3379,2.3384,2.2815,2.1667,2.0884,1.9834,1.8556,1.8039,1.7932,1.8204,1.9851,2.0664,0.0,0.0,0.0,0.0,0.0,0.0,2.555,0.0,0.0,0.0,0.0,0.0,0.0,0.0,0.0,0.0,0.0,0.0,0.0,0.0,3.2081,3.418,3.4971,3.6198,3.6841,3.5091,3.347,3.2215,3.2215,3.0959,2.9804,2.9804,2.9804,2.9804,2.9804,2.9955,3.0256,3.0708,3.1311,3.2014,3.2943,3.4324,3.5658,3.6935,4.0056,4.2447,4.3322,4.5018,4.6681,4.8132,4.803,4.7908,4.7908,4.7519,4.7309,4.7309,4.7309,4.7309,4.7309,4.707,4.707,4.7309,4.6651,4.6531,4.689,4.6052,4.5394,4.4915,4.4496,4.3917,0.0,4.329,4.329,4.3369,4.4004,4.4082,4.4051,4.5602,4.5484,4.4658,0.0,0.0,0.0,0.0,0.0,0.0,0.0,1.4445,1.5544,1.8009,1.8981,2.0231,2.233,2.3301,2.3969,2.446,2.4927,0.0,0.0,0.0,0.0,2.4297,2.3855,2.3659,2.3828,2.3622,2.3551,2.3647,2.1946,2.0865,2.0234,1.8969,1.8254,1.8113,2.0394,2.1258,0.0,0.0,0.0,0.0,2.557,2.5948,0.0,0.0,0.0,0.0,0.0,0.0,0.0,0.0,0.0,0.0,0.0,0.0,0.0,0.0,0.0,0.0,0.0,3.4397,3.5798,3.4654,3.3169,3.2039,3.203,3.0874,0.0,2.9767,2.9793,2.9818,2.9818,3.0206,3.0407,2.993,3.111,3.2382,3.3189,3.4357,3.5269,3.5558,3.776,3.9959,4.1672,4.3499,4.5506,4.8001,4.7625,4.7309,4.7309,4.7309,4.7309,4.7309,4.7309,4.7309,4.7309,4.6711,4.6681,4.7219,4.6561,4.6219,4.6262,4.61,4.5412,0.0,4.4257,4.3898,0.0,4.329,4.329,4.329,4.3369,4.3927,4.4849,4.5857,4.5825,4.5431,0.0,0.0,0.0,0.0,0.0,0.0,0.0,0.0,0.0,0.0,2.0283,2.1323,2.2785,2.3477,2.3969,0.0,0.0,0.0,0.0,0.0,0.0,2.4982,2.4635,2.4408,2.4258,2.4543,2.4174,2.3183,2.2079,2.0928,1.9747,1.8608,1.806,1.8113,2.0357,2.2227,0.0,0.0,0.0,0.0,2.6967,2.7247,0.0,0.0,0.0,0.0,2.7023,2.7372,0.0,0.0,0.0,0.0,0.0,0.0,0.0,0.0,3.1046,3.0986,3.1284,0.0,3.11,3.079,3.0685,3.0505,0.0,3.0101,2.9923,2.9643,2.9935,3.0216,3.0049,3.0112,3.025,3.0382,3.0733,3.198,3.4779,3.7599,3.8696,3.7029,4.0496,4.2339,4.0596,4.4169,4.662,4.6679,4.7037,4.7309,4.7309,4.7309,4.7309,4.7309,4.7309,4.7309,4.7309,4.716,4.689,4.6561,4.5873,4.5544,4.5514,4.4456,4.4097,4.4287,4.3738,4.3439,4.329,4.329,4.329,4.3369,4.4159,4.409,4.3874,4.5736,4.5536,4.4495,0.0,0.0,0.0,0.0,0.0,0.0,0.0,0.0,0.0,0.0,2.0686,2.1457,2.294,2.3535,2.3969,0.0,0.0,0.0,0.0,2.7003,2.6692,2.6617,2.5989,2.5594,2.5568,2.527,2.4919,2.4553,2.2891,2.165,2.0789,1.9146,1.8321,1.8274,2.07,2.2858,2.4651,2.452,2.4866,2.5588,2.7026,0.0,0.0,0.0,0.0,0.0,2.7261,2.7496,0.0,2.8174,2.8354,2.8838,0.0,0.0,0.0,0.0,3.129,3.07,3.069,3.0319,2.9975,2.9975,2.9877,2.9757,2.9562,2.9696,2.9803,2.96,3.0293,3.0907,3.0797,3.1532,3.1894,3.1138,3.2804,3.4735,3.6316,3.7873,3.8428,3.7354,4.0065,4.1951,4.1599,4.4505,4.6491,4.6708,4.7065,4.7309,4.7309,4.7309,4.716,4.686,4.686,4.686,4.686,4.6531,4.6202,4.5843,4.5155,4.4855,4.4825,4.4107,4.3768,4.3798,4.3439,4.329,4.329,4.329,4.329,4.3339,4.3593,4.4082,4.4732,4.5612,4.5865,4.5826,0.0,0.0,0.0,0.0,0.0,0.0,0.0,0.0,0.0,0.0,0.0,0.0,0.0,0.0,0.0,0.0,0.0,0.0,2.805,2.8207,2.8455,2.9037,2.7767,2.707,2.7062,2.6034,2.5768,2.6339,2.3954,2.2635,2.2324,2.0189,1.9088,1.9072,2.1445,2.3411,2.4907,2.4876,2.4958,2.5221,2.6506,0.0,0.0,0.0,0.0,0.0,0.0,0.0,0.0,2.8001,2.7971,2.8438,3.0472,0.0,0.0,0.0,0.0,0.0,3.0703,3.0963,3.1119,3.0601,3.0233,2.9943,2.972,2.9812,2.9915,2.9728,3.0766,3.173,3.1923,3.3245,3.3817,3.2223,3.5719,3.8505,3.8014,3.7916,3.7838,3.7822,3.9289,4.1113,4.3185,4.4807,4.6166,4.7222,4.7309,4.7309,4.7309,4.7219,4.689,4.6352,4.619,4.6112,4.6022,4.5544,4.5244,4.5125,4.4586,4.4257,4.4167,4.4167,4.3828,4.329,0.0,0.0,4.329,4.32,4.3259,4.3286,4.2694,4.3926,4.5952,4.5289,4.6159,4.7585,0.0,0.0,0.0,0.0,0.0,0.0,0.0,0.0,0.0,0.0,0.0,0.0,0.0,0.0,0.0,0.0,0.0,0.0,2.8768,2.9147,3.0191,3.2253,3.0409,2.8829,2.776,2.7379,2.6846,2.6161,2.472,2.3494,2.2532,2.1071,2.0831,2.1574,2.3114,2.4369,2.5317,2.5177,2.5473,2.6033,2.641,0.0,0.0,0.0,0.0,0.0,0.0,0.0,0.0,2.794,2.7936,2.8307,2.9417,0.0,0.0,0.0,0.0,0.0,3.202,3.3372,3.3882,3.1081,3.1384,3.1998,3.061,3.0908,3.1301,3.0438,3.1232,3.2416,3.3378,3.335,3.339,3.4029,3.7317,3.9927,4.0376,4.2531,4.3116,4.0728,4.2806,4.4081,4.3085,4.5418,4.7062,4.7309,4.7309,4.7309,4.7309,4.677,4.6399,4.6279,4.5753,4.5185,4.4616,4.5065,4.5005,4.4466,4.4377,4.4018,4.3439,4.3439,4.3379,4.329,0.0,4.329,4.326,4.2731,4.2962,4.3587,4.291,4.3756,4.5184,4.4626,4.5369,4.6609,0.0,0.0,0.0,0.0,0.0,0.0,0.0,0.0,0.0,0.0,0.0,0.0,0.0,0.0,0.0,0.0,2.5271,2.6434,2.8514,2.9398,3.0704,3.2656,3.199,3.1,2.9715,2.8686,2.786,2.7235,2.5824,2.4687,2.386,2.2459,2.2328,2.3333,2.389,2.4511,2.5248,2.5285,2.5464,2.5706,0.0,0.0,0.0,0.0,0.0,0.0,0.0,0.0,0.0,0.0,2.8158,2.8161,2.9154,0.0,0.0,0.0,0.0,0.0,3.178,3.3119,3.4136,3.3343,3.4237,3.4973,3.3861,3.3994,3.4002,3.2868,3.3623,3.47,3.5212,3.6206,3.7804,4.0506,4.0477,4.0607,4.1867,4.238,4.2223,4.1139,4.2923,4.4211,4.4239,4.6107,4.7309,4.7309,4.7309,4.716,4.68,4.6501,4.595,4.5244,4.4915,4.4436,4.3738,4.4077,4.4077,4.3738,4.3738,4.3589,4.329,4.329,4.329,4.329,0.0,4.329,4.323,4.2641,4.265,4.291,4.1876,4.2718,4.4645,4.5357,4.5848,4.6012,0.0,0.0,0.0,0.0,0.0,0.0,0.0,0.0,0.0,0.0,0.0,0.0,0.0,0.0,0.0,0.0,2.5585,2.651,2.8147,2.9464,3.0831,3.2346,3.2964,3.2698,3.1502,3.0007,2.8895,2.8247,2.6963,2.5918,2.5081,2.3982,2.3789,2.4412,2.4572,2.4876,2.5262,2.5453,2.5538,2.5522,0.0,0.0,0.0,0.0,0.0,0.0,0.0,0.0,0.0,0.0,0.0,0.0,0.0,0.0,0.0,3.0357,3.0602,3.0881,3.154,3.2826,3.4265,3.5314,3.6118,3.6733,3.6991,3.6765,3.6334,3.5766,3.6437,3.7165,3.7165,3.8931,4.1444,4.4646,4.2949,4.1898,4.365,4.2767,4.2099,4.2435,4.3444,4.4541,4.552,4.6519,4.701,4.683,4.683,4.6621,4.6112,4.5933,4.5364,4.4347,4.4167,4.3798,4.329,4.329,4.329,4.329,4.329,4.329,4.329,4.329,4.329,4.329,4.329,4.329,4.323,4.2641,4.265,4.2879,4.1503,4.2248,4.4366,4.6143,4.621,4.5466,0.0,0.0,0.0,0.0,0.0,0.0,0.0,0.0,0.0,0.0,0.0,0.0,0.0,0.0,0.0,0.0,2.5312,2.6464,2.8006,2.9418,3.0831,3.2346,3.3336,3.3355,3.2343,3.1463,3.0147,2.8279,2.813,2.7142,2.5378,2.5587,2.535,2.479,2.5779,2.5995,2.5684,2.5954,2.6176,2.6383,2.5793,0.0,0.0,0.0,0.0,0.0,0.0,0.0,0.0,0.0,0.0,0.0,0.0,0.0,3.0355,3.0472,3.0925,3.157,3.2228,3.3936,3.5563,3.5653,3.5289,3.5639,3.8519,3.7883,3.7117,3.8745,3.9134,3.92,3.92,3.9858,4.0696,4.1594,4.3021,4.4713,4.6715,4.6894,4.6791,4.6824,4.694,4.6804,4.6314,4.6296,4.6142,4.5484,4.5424,4.5424,4.5364,4.4796,4.4407,4.4317,4.3678,4.3349,4.329,4.329,4.329,4.329,4.329,4.329,4.329,4.329,4.329,4.329,4.329,4.329,4.323,4.2641,4.3383,4.4738,4.3132,4.3273,4.4479,4.6189,4.5872,4.4784,0.0,0.0,0.0,0.0,0.0,0.0,0.0,0.0,0.0,0.0,0.0,2.543,2.5206,0.0,0.0,0.0,2.5451,2.6034,2.6645,2.8896,3.0604,3.1481,3.273,3.3389,3.3316,3.308,3.2299,3.1019,2.9996,2.8676,2.7072,2.6716,2.6321,2.5817,2.5896,2.5898,2.5693,2.582,2.5856,2.5777,2.541,2.5778,0.0,0.0,0.0,0.0,0.0,0.0,0.0,0.0,2.7988,2.7709,2.8335,2.9132,2.9935,3.0357,3.0955,3.157,3.1809,3.3695,3.5587,3.5683,3.5824,3.6967,4.0816,4.1476,4.1213,4.114,4.2037,4.2358,4.0935,4.1833,4.291,4.315,4.4167,4.5334,4.6531,4.6322,4.6052,4.6052,4.6052,4.5963,4.5693,4.5693,4.5574,4.5304,4.5304,4.5125,4.4706,4.4436,4.4137,4.3678,4.3409,4.329,4.329,4.329,4.329,4.329,4.329,4.329,4.329,4.329,4.329,4.329,4.329,4.329,4.3309,4.3313,4.3685,4.4283,4.3901,4.4008,4.4436,4.5144,4.5089,4.4649,0.0,0.0,0.0,0.0,0.0,0.0,0.0,0.0,2.5165,0.0,0.0,0.0,0.0,2.5215,0.0,0.0,2.5073,2.5223,2.541,2.7846,2.9647,3.0514,3.2067,3.309,3.3646,3.4167,3.3807,3.2363,3.0872,2.9587,2.8482,2.7538,2.6878,2.6447,2.5879,2.5654,2.5674,2.5497,2.5405,2.5397,2.496,2.5149,0.0,0.0,0.0,0.0,0.0,0.0,0.0,0.0,2.7781,2.749,2.8254,2.8967,2.9628,3.0299,3.1486,3.2485,3.2273,3.3906,3.5799,3.6384,3.6869,3.8448,4.3259,4.3901,4.3705,4.4594,4.4851,4.4366,4.2514,4.3033,4.3688,4.3688,4.4586,4.5454,4.5933,4.5603,4.5304,4.5304,4.5304,4.5214,4.5005,4.4975,4.4915,4.4676,4.4676,4.4466,4.3977,4.3977,4.3768,4.329,4.329,4.329,4.329,4.329,4.329,4.329,4.329,4.329,4.329,4.329,4.329,4.329,4.329,4.329,4.3339,4.3874,4.4164,4.4252,4.4915,4.4821,4.437,4.4567,4.4615,4.4615,0.0,0.0,0.0,0.0,0.0,0.0,0.0,0.0,2.5234,2.5635,2.5693,0.0,0.0,0.0,0.0,0.0,2.4033,2.3998,2.4464,2.6252,2.7944,2.941,3.1347,3.2621,3.3093,3.4675,3.4202,3.1605,3.0331,2.9606,2.9366,2.8015,2.7141,2.6636,2.5765,2.5503,2.5664,2.5039,2.506,2.5424,2.4485,2.4415,2.4951,0.0,0.0,0.0,0.0,0.0,0.0,0.0,2.785,2.7623,2.8287,2.8967,2.9628,3.0299,3.2524,3.4602,3.3889,3.4809,3.6384,3.7922,3.8286,3.9794,4.5763,4.4587,4.3812,4.9283,4.7486,4.4713,4.4034,4.3114,4.241,4.241,4.4028,4.5274,4.5274,4.5274,4.5274,4.5274,4.5274,4.5035,4.4377,4.4317,4.4047,4.3349,4.329,4.329,4.329,4.329,4.329,4.329,4.329,4.329,4.329,4.329,4.329,4.329,4.329,4.329,4.329,4.329,4.329,4.329,4.329,4.329,4.3369,4.4396,4.4929,4.5223,4.6355,4.5775,4.4342,4.4539,4.4615,4.4615,0.0,0.0,0.0,0.0,0.0,0.0,0.0,0.0,2.5538,2.5674,2.5693,0.0,0.0,0.0,0.0,0.0,0.0,2.4199,2.4018,2.5828,2.7498,2.8925,3.0513,3.1888,3.3068,3.3545,3.3806,3.3837,3.2488,3.1067,2.9682,2.8341,2.7051,2.5861,2.5378,2.506,2.4785,2.4809,2.4769,2.4709,2.4275,2.4192,2.438,0.0,0.0,0.0,0.0,0.0,0.0,0.0,0.0,0.0,2.9328,3.0019,3.035,3.1013,3.2225,3.3264,3.2983,3.4745,3.678,3.7371,3.9593,4.2587,4.6298,4.6224,4.6404,4.9993,4.8275,4.6035,4.567,4.5179,4.4526,4.3574,4.365,4.4077,4.4526,4.4197,4.3858,4.3858,4.3858,4.3838,4.3618,4.3589,4.3499,4.329,4.329,4.329,4.329,4.329,4.329,4.329,4.288,4.288,4.329,4.288,4.288,4.329,4.329,4.329,4.329,4.329,4.329,4.329,4.329,4.329,4.3418,4.4549,4.6112,4.7725,4.6477,4.6031,4.5954,4.497,4.4615,4.4615,0.0,0.0,0.0,0.0,0.0,0.0,2.5254,2.541,2.5527,2.5674,2.5693,2.5693,0.0,0.0,0.0,2.4453,2.4113,2.3737,2.3295,2.4745,2.6381,2.8161,2.9578,3.1298,3.3395,3.3395,3.3836,3.4744,3.3046,3.1529,3.0141,2.8495,2.7121,2.5946,2.5452,2.5157,2.4927,2.4686,2.4521,2.4394,2.3826,2.3731,2.3987,0.0,0.0,0.0,0.0,0.0,0.0,0.0,0.0,0.0,2.9231,3.0007,3.0655,3.1598,3.2851,3.4087,3.4889,3.6813,3.8983,4.0626,4.2796,4.5327,4.8082,4.9104,4.9909,5.1528,5.001,4.8209,4.7777,4.6989,4.5959,4.4458,4.4006,4.3922,4.3908,4.3529,4.329,4.329,4.329,4.329,4.329,4.329,4.329,4.329,4.329,4.329,4.329,4.329,4.317,4.294,4.262,4.247,4.2551,4.2162,4.2201,4.2551,4.2551,4.2551,4.2551,4.2821,4.294,4.294,4.294,4.3378,4.4123,4.5136,4.6716,4.8409,4.6786,4.6244,4.621,4.5055,4.4615,4.4615,0.0,0.0,2.351,2.4336,0.0,0.0,2.5499,2.5352,2.5234,2.5635,2.5654,2.5635,0.0,0.0,0.0,2.4336,2.3533,2.2934,2.2452,2.3309,2.4906,2.7302,2.9001,3.1168,3.3903,3.3922,3.4123,3.4575,3.2572,3.1336,3.0817,2.8656,2.7363,2.6818,2.5927,2.5635,2.569,2.4588,2.4219,2.4219,2.3182,2.3145,2.3637,2.3277,0.0,0.0,0.0,0.0,0.0,0.0,0.0,0.0,2.843,2.9403,3.0668,3.1919,3.3934,3.6181,3.8168,3.9901,4.203,4.5838,4.7056,4.8003,5.0777,5.2503,5.3484,5.3416,5.2131,5.078,5.0051,4.8532,4.6897,4.5315,4.4924,4.4472,4.3566,4.3369,4.329,4.329,4.329,4.329,4.329,4.329,4.329,4.329,4.329,4.326,4.32,4.32,4.294,4.2321,4.2261,4.1961,4.1422,4.1324,4.1324,4.1422,4.1422,4.1422,4.1414,4.2021,4.2321,4.2321,4.2321,4.3371,4.5154,4.576,4.6749,4.7804,4.7022,4.6312,4.5703,4.4919,4.4615,4.4615,0.0,0.0,2.4707,2.4902,0.0,0.0,2.5596,2.5352,2.5234,2.5635,2.543,2.5215,2.5215,2.4824,0.0,2.3496,2.3239,2.2752,2.201,2.2838,2.4562,2.7279,3.0955,3.3449,3.448,3.4123,3.3746,3.342,3.2529,3.1859,3.1388,2.9692,2.8592,2.7873,2.6389,2.5594,2.5336,2.4133,2.3345,2.2894,2.2651,2.2631,2.2794,2.2858,2.2961,0.0,0.0,0.0,0.0,0.0,0.0,0.0,2.8458,2.9673,3.0535,3.0848,3.2882,3.5433,3.6922,3.8919,4.1565,4.5751,4.8984,5.1454,5.2739,5.3281,5.3315,5.2706,5.2269,5.1765,5.1025,4.9526,4.809,4.7167,4.5742,4.4737,4.451,4.381,4.329,4.329,4.329,4.329,4.329,4.329,4.329,4.329,4.329,4.312,4.265,4.262,4.2321,4.1662,4.1085,4.0995,4.1422,4.0876,4.0876,4.1422,4.1422,4.1422,4.1422,4.1572,4.1632,4.1632,4.1632,4.2658,4.4349,4.4477,4.5897,4.777,4.6447,4.6177,4.638,4.5089,4.4615,4.4615,0.0,0.0,0.0,0.0,0.0,0.0,0.0,0.0,2.5469,2.5654,2.5352,2.5106,2.5106,2.4668,0.0,0.0,2.3259,2.2833,2.2171,2.2797,2.4648,2.793,3.1327,3.3429,3.3922,3.3897,3.3495,3.2667,3.2365,3.1838,3.1087,3.0101,2.9338,2.8645,2.7651,2.6594,2.5504,2.4679,2.3742,2.2798,2.2453,2.2453,2.2656,2.2955,2.2792,2.2551,2.3384,0.0,0.0,0.0,0.0,0.0,0.0,0.0,2.9951,3.0753,3.2079,3.4058,3.7479,3.9593,4.2137,4.7548,5.0371,5.1995,5.2739,5.2672,5.23,5.186,5.2063,5.2063,5.1352,5.022,4.8961,4.777,4.6797,4.5814,4.4924,4.4358,4.3849,4.3369,4.329,4.329,4.329,4.329,4.317,4.288,4.288,4.2581,4.1961,4.1931,4.1632,4.0935,4.0576,4.0397,4.0427,4.0098,4.0098,4.0427,4.0427,4.0427,4.0457,4.0756,4.0756,4.0457,4.0786,4.1912,4.3513,4.3924,4.5342,4.7118,4.6102,4.594,4.6143,4.5021,4.4615,4.4615,0.0,0.0,0.0,0.0,0.0,0.0,0.0,0.0,0.0,2.5674,2.5273,2.5008,2.5008,2.4512,2.4023,0.0,0.0,0.0,2.2594,2.3288,2.5243,2.8763,3.1083,3.2645,3.337,3.3621,3.3244,3.2215,3.2114,3.1662,3.0949,3.0515,3.0046,2.947,2.9014,2.7817,2.6121,2.551,2.4443,2.3114,2.2522,2.2386,2.2654,2.2931,2.2748,2.2457,2.2961,2.311,2.3148,2.3401,0.0,0.0,0.0,0.0,2.9233,3.0549,3.1351,3.284,3.7765,4.0564,4.3477,4.9369,5.0982,5.1386,5.1961,5.1657,5.1185,5.1185,5.1589,5.1725,5.1116,5.0405,4.9441,4.8065,4.7704,4.707,4.5488,4.5005,4.4441,4.3503,4.3349,4.326,4.314,4.311,4.294,4.244,4.2291,4.1931,4.1235,4.1205,4.0905,4.0247,4.0217,3.9978,3.9439,3.932,3.923,3.923,3.914,3.914,3.926,3.9798,3.9828,3.9439,4.0008,4.1073,4.2501,4.3361,4.4655,4.6089,4.5637,4.5587,4.5602,4.4886,4.4615,4.4615,0.0,0.0,0.0,0.0,0.0,0.0,0.0,0.0,0.0,0.0,2.5019,2.4512,2.4512,2.3744,2.3188,2.3034,2.313,2.3099,2.2859,0.0,0.0,2.9404,3.1009,3.269,3.443,3.3646,3.2867,3.2215,3.1738,3.1786,3.2345,3.1587,3.1173,3.1057,2.9779,2.8602,2.7457,2.6101,2.4563,2.3047,2.2923,2.2492,2.1945,2.1998,2.2628,2.3486,2.3575,2.3591,2.3705,2.4363,2.4632,0.0,0.0,0.0,2.8454,2.8666,3.0547,3.2999,3.5032,4.0281,4.5865,4.8593,5.027,5.1251,5.132,5.1252,5.1185,5.1185,5.0777,5.0338,5.027,4.9627,4.9089,4.8829,4.8129,4.7506,4.7273,4.5814,4.4527,4.3828,4.3486,4.312,4.259,4.253,4.25,4.241,4.1871,4.1235,4.0576,4.0516,4.0217,3.9559,3.9523,3.9499,3.9373,3.8811,3.8512,3.8512,3.7943,3.7973,3.8542,3.8631,3.8931,3.9373,3.9463,4.0066,4.1034,4.1828,4.3097,4.4671,4.4596,4.505,4.5602,4.4886,4.4615,4.4615,0.0,0.0,0.0,0.0,0.0,0.0,0.0,0.0,0.0,0.0,0.0,2.4414,2.4414,2.3608,2.3153,2.3236,2.321,2.3284,2.3474,2.4535,2.6213,2.8625,2.9308,3.0663,3.28,3.239,3.1863,3.1311,3.1361,3.1634,3.2158,3.2389,3.2525,3.2458,3.1572,2.9908,2.7748,2.6776,2.5275,2.3621,2.3621,2.3616,2.3614,2.3697,2.375,2.3825,2.4383,2.3772,2.2738,2.3511,2.3985,2.4289,2.4779,0.0,0.0,0.0,2.9228,3.1104,3.4965,3.9874,4.4613,4.7525,4.8841,4.9593,5.0405,5.027,4.9965,4.9965,4.9729,4.9593,4.9999,4.9492,4.9018,4.9018,4.8639,4.8193,4.7638,4.6097,4.4881,4.439,4.3449,4.2821,4.291,4.262,4.2261,4.1871,4.1205,4.0546,3.9888,3.9469,3.932,3.9373,3.8691,3.8482,3.8841,3.8182,3.7853,3.7853,3.7554,3.7554,3.7853,3.7853,3.8422,3.9373,3.9373,3.9805,4.0609,4.1531,4.2587,4.3684,4.4281,4.474,4.5026,4.4716,4.4615,4.4615,0.0,0.0,0.0,0.0,0.0,0.0,0.0,0.0,0.0,0.0,0.0,2.4506,2.4506,0.0,0.0,0.0,2.3393,2.3529,2.3888,2.4074,2.5273,2.7713,2.7819,2.8994,3.1427,3.1301,3.105,3.0687,3.0899,3.1297,3.1898,3.2698,3.3259,3.3556,3.3106,3.1226,2.8352,2.7751,2.6465,2.4805,2.4653,2.4765,2.5015,2.5334,2.5084,2.4642,2.5288,2.4374,2.2907,2.3172,2.3768,2.442,2.4348,2.5417,0.0,0.0,0.0,2.9393,3.4488,3.8119,4.1336,4.4885,4.6306,4.7221,4.8839,4.8827,4.8606,4.9127,4.912,4.9188,4.9937,4.9511,4.9018,4.9018,4.9018,4.8767,4.8031,4.6714,4.5539,4.4736,4.3523,4.2771,4.2791,4.2252,4.1752,4.1414,4.0606,3.9948,3.9439,3.8751,3.8631,3.914,3.8003,3.7644,3.8123,3.7494,3.7105,3.6926,3.6926,3.7015,3.7165,3.7165,3.7793,3.8895,3.908,3.9673,4.054,4.1348,4.2237,4.317,4.3939,4.4412,4.4615,4.4615,4.4615,4.4615,0.0,0.0,0.0,0.0,0.0,0.0,0.0,0.0,0.0,0.0,0.0,2.4802,2.4802,2.3786,2.3142,2.3215,2.3536,2.3811,2.3908,2.3494,2.4478,2.7203,2.733,0.0,3.163,3.0989,3.0712,3.086,3.0223,3.0643,3.2074,3.2151,3.2823,3.4047,3.3852,3.2347,2.9948,2.939,2.8226,2.6719,2.6201,2.5594,2.507,2.5584,2.6188,2.6681,2.6238,2.5973,2.5682,2.4474,2.4564,2.5123,2.4348,2.5311,2.6714,0.0,0.0,0.0,3.2147,3.4151,3.6137,3.9629,4.213,4.4288,4.6315,4.6845,4.7466,4.9528,4.9388,4.9111,4.9878,4.9466,4.9018,4.9018,4.9018,4.8954,4.8923,4.8095,4.665,4.4484,4.3929,4.3137,4.1648,4.0876,4.0756,4.1324,4.0187,3.9469,3.9373,3.8751,3.8392,3.8452,3.7764,3.7434,3.7464,3.6836,3.6237,3.5609,3.5609,3.5938,3.6537,3.6537,3.6896,3.7554,3.8182,3.9308,4.0684,4.0724,4.1755,4.3295,4.3353,4.3889,4.4615,4.4615,4.4615,4.4615,0.0,0.0,0.0,0.0,0.0,0.0,0.0,0.0,0.0,0.0,0.0,0.0,0.0,2.4029,2.3477,2.3811,2.4104,2.4489,2.506,2.4199,2.4981,2.7947,2.7265,2.8005,3.0632,3.0416,3.0112,2.9809,2.9909,3.0291,3.0828,3.1701,3.2426,3.2976,3.2507,3.1755,3.0688,2.8944,2.7853,2.734,2.7022,2.693,2.6968,2.6798,2.7052,2.74,2.6992,2.6239,2.5312,2.483,2.4953,2.5158,2.4348,2.524,2.6602,2.6679,2.7364,2.8535,3.0505,3.2141,3.4084,3.7084,3.9912,4.2428,4.4212,4.5645,4.6851,4.7763,4.8042,4.8377,4.9167,4.9493,4.9492,4.9077,4.9018,4.9018,4.9018,4.7825,4.6815,4.6453,4.4862,4.3592,4.3008,4.1798,4.0935,4.0756,3.9918,3.9373,3.9373,3.8362,3.7943,3.8392,3.6956,3.6178,3.6178,3.5968,3.5729,3.5519,3.5519,3.5639,3.5848,3.5848,3.6207,3.6836,3.7075,3.7699,3.8645,3.9653,4.0734,4.1904,4.2881,4.3827,4.4615,4.4615,4.4615,4.4615,0.0,0.0,0.0,3.1669,0.0,3.0881,2.9623,2.9715,2.9624,2.8751,0.0,0.0,0.0,0.0,2.4285,2.4206,2.4366,2.4827,2.5537,2.4919,2.5623,2.8162,2.7419,2.7921,3.0062,3.0368,3.0061,2.93,2.9907,2.9984,2.9643,3.0535,3.1164,3.15,3.0773,3.0905,3.1486,2.9255,2.8278,2.8119,2.7824,2.7742,2.7846,2.8047,2.8027,2.7913,2.7839,2.7078,2.6025,2.5742,2.5898,2.6056,2.5085,2.5586,2.6533,2.6645,2.7095,2.7788,2.8747,3.0031,3.161,3.3901,3.6544,3.9219,4.1435,4.3384,4.5116,4.6431,4.7077,4.7607,4.8397,4.9353,4.9833,4.9398,4.9346,4.9256,4.9015,4.8077,4.7367,4.7276,4.5749,4.4484,4.3837,4.2408,4.1308,4.0793,3.9918,0.0,3.908,3.8003,3.7404,3.7434,3.6178,3.5519,3.5519,3.5519,3.5519,3.5519,3.5519,3.5519,3.5519,3.5519,3.5729,3.6148,3.6148,3.6793,3.7913,3.8943,4.004,4.1191,4.219,4.326,4.4181,4.4181,4.4378,4.4615,3.47,3.468,3.4234,3.2693,3.2461,3.1977,3.051,3.0306,3.026,3.026,0.0,0.0,0.0,0.0,0.0,2.4333,2.4422,2.4781,2.5242,2.5616,2.6464,2.7811,2.7835,2.8527,3.0062,3.0809,3.0634,2.9497,3.0085,2.9771,2.8687,2.8677,2.9093,2.9766,2.8838,2.9871,3.2199,3.0465,2.952,2.9124,2.8678,2.8037,2.758,2.9214,2.9189,2.8273,2.8762,2.8587,2.8012,2.7248,2.7446,2.7826,2.653,2.6304,2.6533,2.6645,2.6679,2.6714,0.0,0.0,0.0,2.9828,3.1933,3.4607,3.7889,3.9974,4.2157,4.5616,4.6454,4.6829,4.7573,4.8951,4.9924,4.9972,5.0004,4.978,4.9138,4.8984,4.8435,4.6876,4.6648,4.5927,4.4055,4.2656,4.1735,4.1475,4.0157,3.914,3.8482,3.7793,3.6836,3.5549,3.5519,3.5519,3.5519,3.5519,3.5519,3.5519,3.5519,3.5519,3.5519,3.5519,3.5519,3.5519,3.5519,3.6702,3.8583,3.8646,3.9655,4.1144,4.1172,4.2088,4.3375,4.3375,4.3876,4.4581,3.4198,3.4731,3.4911,3.3692,3.3474,3.3231,3.2425,3.2307,3.2021,0.0,0.0,0.0,2.7437,2.6124,2.5215,2.474,2.5466,2.6113,2.6549,2.6697,2.7497,2.9181,2.8651,2.888,3.0062,3.0419,3.0303,2.9635,2.9839,2.949,2.8569,2.865,2.9021,2.9571,2.9041,2.9548,3.0626,2.8776,2.8411,2.9114,2.9853,2.9824,2.9479,3.0969,3.1087,3.0457,3.0231,2.949,2.8675,2.8685,2.7926,2.6892,2.6507,2.6427,2.6499,2.6533,2.6568,2.6568,2.6636,0.0,0.0,0.0,0.0,0.0,3.4689,3.7031,3.9283,4.1379,4.3059,4.4558,4.5828,4.7309,4.8539,4.9132,4.9652,4.9919,4.9751,4.9316,4.8824,4.8402,4.7765,4.6947,4.5927,4.3804,4.2483,0.0,4.0529,3.9559,3.9828,3.8751,3.7315,3.5579,3.5968,3.5998,3.5519,3.5519,3.5519,3.5519,3.5519,3.5519,3.5519,3.5519,3.5519,3.5519,3.5519,3.5829,3.6453,3.7461,3.8557,3.9641,4.0656,4.1699,4.2591,4.2591,4.3098,4.3673,3.4555,3.5056,3.5232,3.4399,3.4248,3.3972,3.3194,3.3111,3.2896,0.0,0.0,0.0,2.9022,2.737,2.625,2.5672,2.6002,2.6373,2.6742,2.6913,2.7717,2.9326,2.8941,2.9079,2.9972,3.0457,3.0514,3.0069,3.0175,2.9862,2.9194,2.8678,2.863,2.8978,2.8499,2.8551,2.8952,2.817,2.8114,2.875,3.0317,3.0319,2.9617,3.173,3.1772,3.0733,3.0884,3.0507,2.9977,3.0161,2.9032,2.7444,2.7253,2.6876,2.6499,2.6499,2.6499,2.6499,2.6499,2.6602,2.6816,2.733,0.0,0.0,3.2664,3.4861,3.7054,3.9062,4.0956,4.256,4.3422,4.5316,4.6986,4.7761,4.8825,4.9573,4.9571,4.9226,4.9018,4.9018,4.8782,4.8197,4.7143,4.5693,4.4253,4.2909,4.1316,4.0177,3.9595,3.8571,3.7345,3.5968,3.6297,3.6178,3.5519,3.5519,3.5519,3.5519,3.5519,3.5519,3.5519,3.5519,3.5519,3.5519,3.5519,3.5653,3.6068,3.7219,3.7772,3.8044,3.9198,4.039,4.1406,4.1707,4.232,4.2895,0.0,3.5558,3.5454,3.4901,3.4751,3.4374,3.3363,3.3162,3.3136,0.0,3.3126,3.2513,3.1221,2.9483,2.8032,2.7105,2.6574,2.6311,2.6427,2.6895,2.7617,2.875,2.8863,2.9151,2.9642,3.0606,3.0934,3.0539,3.0672,3.0566,3.0191,2.8768,2.8195,2.8254,2.7689,2.749,2.7656,2.8254,2.8498,2.8638,3.0489,3.0308,2.9189,3.2067,3.198,3.0452,3.1276,3.1486,3.1361,3.126,3.0306,2.9038,2.8348,2.7469,2.6725,2.6549,2.6524,2.6575,2.6524,2.6602,2.6679,2.6679,2.7397,0.0,3.1182,3.2977,3.4815,3.7302,3.9062,4.0197,4.0197,4.2538,4.4692,4.5462,4.7113,4.8495,4.9029,4.9046,4.9018,4.9018,4.9661,4.9512,4.8001,4.777,4.6449,4.3439,4.2213,4.0703,3.8522,3.7913,3.7285,3.6507,3.6567,3.6237,3.5519,3.5519,3.5519,3.5519,3.5519,3.5519,3.5519,3.5519,3.5519,3.5519,3.5519,3.5911,3.6661,3.7352,3.7352,3.6934,3.7732,3.8893,4.0177,4.086,4.1542,4.2151,3.5483,3.602,3.624,3.5479,3.5163,3.4723,3.3891,3.3518,3.3434,3.3715,3.3123,3.256,3.2171,3.0781,2.9645,2.8984,2.9083,2.8633,2.7418,2.8058,2.8413,2.8236,2.8662,2.8812,2.8695,2.9907,3.0418,3.0179,3.0351,3.0367,3.0258,2.9432,2.8803,2.8287,2.8157,2.8189,2.832,2.8449,2.9405,3.0921,3.1838,3.2096,3.2006,3.3485,3.3909,3.3677,3.298,3.2164,3.126,3.0407,3.0457,3.0583,2.8699,2.8273,2.8197,2.6876,2.6801,2.7052,2.6625,2.6533,2.6568,2.6679,2.685,0.0,2.8558,2.9492,3.0465,3.1768,3.3571,3.5016,3.5269,3.7122,3.8902,3.97,4.2502,4.5794,4.9315,4.9346,4.9018,4.9018,4.9661,4.997,4.9643,4.8428,4.7108,4.5719,4.2556,4.0016,3.8487,3.8781,3.8242,3.6537,3.6956,3.6686,3.5519,3.5519,3.5519,3.5519,3.5519,3.5519,3.5519,3.5519,3.5519,3.5519,3.5519,3.5911,3.66,3.6752,3.7467,3.852,3.9315,3.9815,4.0137,4.0265,4.0764,4.1339,3.6071,3.6531,3.6734,3.618,3.5622,3.5047,3.4521,3.3947,3.3615,3.3766,3.3859,3.3727,3.3385,3.2154,3.0932,2.9895,2.9033,2.8302,2.7627,2.7553,2.7693,2.806,2.8195,2.8431,2.8794,2.9539,3.0276,3.0999,3.0724,3.0876,3.1366,3.0319,2.9826,2.9855,2.9104,2.9064,2.9476,2.9516,2.9897,3.0729,3.3046,3.3915,3.4028,3.5825,3.608,3.5319,3.4262,3.3173,3.2139,3.1612,3.1235,3.0809,2.9704,2.8976,2.8348,2.7519,2.7293,2.7203,2.665,2.6499,2.6533,2.6602,2.6645,0.0,0.0,2.8672,2.9335,3.0465,3.1754,3.2749,3.2881,3.4394,3.5885,3.6744,3.9598,4.2382,4.4404,4.7157,4.8883,4.8511,4.9424,4.9965,4.9593,4.9145,4.7869,4.5419,4.2665,4.0461,3.8996,3.923,3.8811,3.7464,3.7434,3.6956,3.5998,3.5669,3.5519,3.5519,3.5519,3.5519,3.5519,3.5519,3.5519,3.5519,3.5519,3.5911,3.66,3.66,3.7293,3.8414,3.9209,3.9766,4.0153,4.0526,4.1102,4.1711,3.6497,3.6739,3.689,3.6601,3.5931,3.5409,3.5201,3.4486,3.3973,3.4076,3.4984,3.5314,3.4698,3.3756,3.2613,3.1272,2.935,2.8302,2.8334,2.7354,2.7189,2.806,2.7839,2.8073,2.8907,2.9182,3.0049,3.1455,3.1026,3.1304,3.2288,3.1071,3.083,3.1264,3.0211,3.002,3.052,3.0645,3.0702,3.0937,3.4326,3.5177,3.4679,3.6994,3.7139,3.6064,3.5278,3.4428,3.3658,3.3344,3.2269,3.0987,3.0421,2.9428,2.8385,2.8077,2.7727,2.7329,2.6822,2.6611,2.6533,2.6533,2.6611,2.6986,0.0,0.0,0.0,2.982,3.05,3.0856,3.0781,3.2016,3.3264,3.4018,3.6688,0.0,0.0,4.3225,0.0,4.6669,4.8402,4.9371,4.863,4.8841,4.7701,4.4649,4.2351,4.0689,3.9655,3.9463,3.911,3.8422,3.7764,3.7105,3.6507,3.5848,3.5519,3.5519,3.5639,3.5639,3.5519,3.5639,3.5699,3.5699,3.5699,3.6184,3.6971,3.6971,3.7462,3.8235,3.8702,3.9391,4.02,4.0883,4.1533,4.2038,3.5756,3.6142,3.6519,3.6008,3.5843,3.5757,3.5785,3.5241,3.4951,3.5512,3.6601,3.6887,3.5821,3.5873,3.5665,3.4944,3.3377,3.203,3.1038,2.9988,2.9,2.8147,2.8047,2.8001,2.7975,2.8523,2.9117,2.9782,3.0223,3.0862,3.16,3.1453,3.1102,3.0625,3.1056,3.0968,3.0534,3.1118,3.2715,3.4937,3.5955,3.4938,3.2909,3.4036,3.5081,3.5923,3.5981,3.5974,3.5613,0.0,3.329,3.2319,0.0,2.9352,2.9353,2.7971,0.0,0.0,2.748,2.7027,2.6679,2.6679,2.6679,2.6739,2.6892,0.0,2.6722,2.6499,0.0,2.7156,2.6834,0.0,0.0,2.8855,3.1919,0.0,3.3384,3.7301,4.0671,4.1874,4.5566,4.7735,4.7038,4.5767,4.4978,4.5092,4.1171,3.9253,4.0217,3.9738,3.911,3.8422,3.7764,3.7105,3.6507,3.5848,3.5519,3.5519,3.6088,3.6058,3.5519,3.6118,3.6387,3.6387,3.6387,3.7155,3.8362,3.8362,3.8842,3.9523,3.9003,3.9336,4.015,4.0776,4.1073,4.1139,3.6416,3.6611,3.6858,3.6948,3.683,3.6791,3.6962,3.6178,3.5791,3.6434,3.6793,3.695,3.6842,3.6116,3.5557,3.5305,3.3935,3.2742,3.1913,3.0859,2.9905,2.9126,2.8282,2.7957,2.8318,2.8347,2.8875,3.0034,3.0283,3.0778,3.1511,3.1511,3.1544,3.1693,3.2344,3.2698,3.2846,3.3558,3.401,3.4442,3.5489,3.476,3.3408,3.6497,3.7397,3.6983,3.712,3.6721,3.6077,0.0,3.4597,0.0,0.0,0.0,0.0,3.0535,0.0,0.0,0.0,0.0,0.0,0.0,0.0,0.0,2.6969,0.0,2.6458,0.0,0.0,0.0,0.0,0.0,0.0,0.0,2.9564,3.1043,0.0,0.0,3.6473,3.8686,0.0,0.0,4.4594,4.4397,4.4122,4.3819,4.1643,4.0233,3.9865,3.9559,3.929,3.899,3.8332,3.7853,3.7584,3.6956,3.6596,3.6626,3.6896,3.6866,3.6626,3.6896,3.7015,3.7015,3.7015,3.7368,3.7883,3.7883,3.8116,3.8415,3.8539,3.9377,4.061,4.0841,4.1197,4.1583,3.7332,3.7277,3.7385,3.7833,3.7686,3.7621,3.8038,3.7494,3.726,3.7918,3.7909,3.7878,3.807,3.7541,3.691,3.6319,3.5494,3.4463,3.3194,3.1964,3.0959,3.0256,2.8798,2.8272,2.8908,2.8322,2.8724,3.0143,3.0143,3.0606,3.1511,3.1511,3.175,3.2258,3.2946,3.3604,3.4294,3.4951,3.4981,3.4651,3.5639,3.5669,3.5429,3.8452,3.9032,3.819,3.8015,3.7451,3.6749,3.6312,3.5479,0.0,3.5343,3.4011,3.2297,0.0,0.0,0.0,3.0007,0.0,0.0,0.0,0.0,0.0,0.0,0.0,0.0,0.0,0.0,0.0,0.0,0.0,0.0,0.0,0.0,2.8678,0.0,3.0174,0.0,0.0,0.0,0.0,0.0,4.2841,4.2886,4.2567,4.1476,4.0527,3.9715,3.9529,3.9373,3.9373,3.8751,3.8392,3.8392,3.7734,3.7404,3.7404,3.7584,3.7584,3.7404,3.7584,3.7674,3.7674,3.7674,3.7793,3.7973,3.7973,3.7973,3.8003,3.8482,3.9432,4.0539,4.0735,4.1181,4.1626,3.8301,3.7944,3.7868,3.8158,3.7955,3.7994,3.8677,3.9172,3.9746,4.0405,4.0777,4.0608,3.976,4.1333,4.1592,3.9344,3.9607,3.8585,3.5575,3.3897,3.2491,3.1386,2.9754,2.9025,2.946,2.8395,2.835,2.9532,2.9532,3.0237,3.1511,3.1511,3.1511,3.157,3.2228,3.2916,3.3574,3.4264,3.5579,3.7285,3.7315,3.8093,3.911,0.0,3.8267,3.9247,3.8626,0.0,0.0,3.6532,3.5639,0.0,0.0,0.0,0.0,0.0,0.0,0.0,0.0,0.0,0.0,2.9557,0.0,0.0,0.0,0.0,2.6679,0.0,0.0,0.0,0.0,0.0,0.0,0.0,0.0,0.0,0.0,0.0,0.0,0.0,0.0,0.0,0.0,4.0438,4.0455,0.0,3.9777,3.9056,4.0307,3.9768,3.9373,3.9373,3.8751,3.8392,3.8392,3.7734,3.7404,3.7434,3.8063,3.8033,3.7434,3.8063,3.8362,3.8362,3.8362,3.8751,3.9313,3.9313,3.9313,3.9313,3.9379,3.9379,3.9559,4.0416,4.0727,4.0758,3.955,3.9585,3.9232,3.8356,3.8429,3.8839,3.951,3.9952,4.08,4.2394,4.2334,4.2632,4.3974,4.3873,4.3341,4.2541,4.1325,3.9664,3.7495,3.5347,3.3822,3.3093,3.111,3.0211,3.0637,2.9127,2.8932,3.0119,2.9698,3.0409,3.2138,3.172,3.175,3.2168,3.2856,3.3784,3.4891,3.5968,3.6806,3.7404,3.7404,3.7943,3.8751,0.0,3.8751,3.8721,3.8482,3.8392,0.0,3.7777,3.7464,3.734,3.7468,3.6629,3.5668,3.6114,3.5629,0.0,0.0,0.0,3.4664,3.2086,0.0,0.0,0.0,0.0,0.0,0.0,0.0,0.0,0.0,0.0,0.0,0.0,0.0,0.0,0.0,0.0,2.7941,0.0,0.0,0.0,0.0,0.0,0.0,0.0,3.9457,0.0,4.0337,3.9768,3.9373,3.9373,3.92,3.908,3.908,3.8841,3.8715,3.8751,3.896,3.896,3.8751,3.896,3.908,3.908,3.908,3.92,3.9373,3.9373,3.9373,3.9373,3.9373,3.9373,3.9445,3.9737,3.9844,3.999,4.0651,4.0546,4.0099,3.9135,3.9287,3.9718,4.0402,4.092,4.2048,4.4252,4.4194,4.4665,4.6681,4.6583,4.5806,4.4489,4.3669,4.1828,3.8629,3.7046,3.5698,3.4382,3.2684,3.1811,3.1934,3.033,2.9996,3.0936,3.0423,3.1099,3.2856,3.2168,3.2079,3.2497,3.2706,3.3814,3.5549,3.6387,3.7285,3.8123,0.0,3.8362,0.0,0.0,3.899,3.8392,0.0,3.8392,3.8392,3.8392,3.8392,3.8512,3.92,3.8542,3.7614,3.8003,3.7554,3.6806,3.6327,3.6776,0.0,3.423,3.393,0.0,3.1041,0.0,2.9083,0.0,0.0,0.0,0.0,0.0,0.0,0.0,0.0,0.0,0.0,2.7439,0.0,2.7944,2.9797,3.1626,0.0,0.0,0.0,3.8833,3.8799,3.911,0.0,3.9649,3.9373,3.9373,3.9373,3.9373,3.9373,3.9373,3.9373,3.9373,3.9373,3.9373,3.9373,3.9373,3.9373,3.9373,3.9373,3.9373,3.9373,3.9373,3.9373,3.9373,3.9373,3.9373,3.9373,3.9373,3.9373,3.9661,4.1482,4.0935,4.0487,4.0457,4.0457,4.0666,4.1324,4.2081,4.3489,4.6112,4.6488,4.6931,4.7957,4.939,4.8904,4.5456,4.6548,4.5042,3.9303,3.9135,3.809,3.5449,3.4546,3.3878,3.3452,3.2011,3.1491,3.1951,3.159,3.2105,3.3423,3.2796,3.2527,3.2467,3.1809,3.2975,3.5519,3.5519,3.7015,3.9373,3.9373,3.9409,3.9343,3.9373,3.899,3.8392,3.8392,3.8392,3.8392,3.8392,3.8422,3.8542,3.92,3.9373,3.9373,3.9373,3.9373,3.914,3.7853,3.7494,3.7195,3.5908,0.0,0.0,0.0,0.0,3.1349,0.0,0.0,0.0,0.0,0.0,0.0,0.0,0.0,0.0,0.0,0.0,2.7281,2.7315,2.9133,3.1089,0.0,3.3779,3.5371,3.8042,3.7699,3.7973,0.0,3.9379,3.9379,3.9433,3.9439,3.9439,3.9433,3.9439,3.9373,3.9373,3.9373,3.9373,3.9373,3.9373,3.9373,3.9373,3.9373,3.9373,3.9373,3.9373,3.9373,3.9373,3.9373,3.9373,3.9373,3.9469,3.9439,3.9661,4.2141,4.2021,4.1752,4.1205,4.1115,4.1354,4.2051,4.3549,4.5484,4.8147,4.9344,5.0418,5.1672,5.1745,5.0905,4.9009,4.8399,4.6803,4.3896,4.2536,4.09,3.8772,3.773,3.6541,3.5243,3.3335,3.2384,3.2378,3.1702,3.1846,3.2677,3.2585,3.2527,3.2467,3.1809,3.2975,3.5519,3.5519,3.7015,3.9373,3.9373,3.911,3.8721,0.0,3.899,3.8392,3.8392,3.8392,3.8392,3.8392,3.8721,3.92,3.9379,3.9373,3.9373,3.9373,3.9373,3.9313,3.899,3.8901,3.8571,3.7255,3.676,3.6331,0.0,0.0,0.0,0.0,0.0,0.0,0.0,0.0,0.0,0.0,0.0,0.0,0.0,0.0,0.0,2.7281,0.0,0.0,2.9675,3.2083,3.4326,3.5949,3.6497,3.7734,4.0038,0.0,3.8601,4.0098,3.9679,3.9649,4.0157,3.9679,3.9373,3.9373,3.9373,3.9373,3.9373,3.9373,3.9373,3.9373,3.9373,3.9373,3.9373,3.9373,3.9373,3.9373,3.9373,3.9373,3.9433,3.9978,3.9828,3.9721,4.2731,4.303,4.309,4.2731,4.315,4.3569,4.3629,4.4107,4.5603,4.888,4.9643,5.0451,5.1768,5.2067,5.1678,5.0315,4.9314,4.7775,4.5459,4.4464,4.3054,4.0974,3.9921,3.8734,3.735,3.5721,0.0,3.3167,3.3107,3.3016,3.2829,3.2612,3.2527,3.2467,3.2108,3.3125,3.513,3.6267,3.7614,3.899,3.929,3.92,0.0,3.926,3.917,3.8841,3.8841,3.8841,3.8841,3.8841,3.911,3.9373,3.9373,3.9373,3.9373,3.9373,3.9373,3.9373,3.9373,3.9373,3.9194,3.8482,3.8272,3.7943,3.6626,3.603,3.576,0.0,0.0,3.3893,0.0,0.0,0.0,0.0,0.0,0.0,0.0,0.0,0.0,0.0,2.8132,0.0,2.7978,3.1246,3.3831,3.4874,3.5638,3.6716,0.0,0.0,3.8362,3.9499,3.9439,3.9738,4.0397,3.9738,3.9373,3.9373,3.9373,3.9373,3.9373,3.9373,3.9373,3.9373,3.9373,3.9373,3.9373,3.9373,3.9373,3.9373,3.9373,3.9373,3.9499,4.0157,3.9978,3.9691,4.3319,4.3947,4.4377,4.4227,4.5323,4.6202,4.5873,4.5005,4.5633,4.9239,4.9314,4.9464,5.0465,5.1558,5.1708,5.0435,4.9763,4.8328,4.583,4.5723,4.4805,4.2711,4.1848,4.0796,3.9481,3.847,3.6748,3.4353,3.5091,3.469,3.3267,3.2819,3.2557,3.2348,3.2348,3.3215,3.4803,3.7225,3.8422,3.8691,3.92,3.9433,3.9493,3.9403,3.9373,3.9403,3.9529,3.9463,3.9373,3.9373,3.9373,3.9373,3.9373,3.9373,3.9373,3.9373,3.9373,3.9373,3.9373,3.9373,3.9373,3.9373,3.9373,3.9074,3.7943,3.7674,3.7674,3.7674,3.6305,3.5676,0.0,0.0,0.0,0.0,0.0,0.0,0.0,0.0,0.0,0.0,0.0,0.0,0.0,3.0738,3.3268,3.3917,3.4669,0.0,0.0,0.0,3.8242,3.8751,3.92,3.9768,4.0516,0.0,3.9373,3.9373,3.9373,3.9373,3.9373,3.9373,3.9373,3.9373,3.9373,3.9373,3.9373,3.9373,3.9373,3.9373,3.9373,3.9373,3.9463,4.0068,3.9918,3.9661,4.4107,4.4676,4.4796,4.3648,4.5024,4.683,4.8327,4.9284,5.0272,5.1528,5.2546,5.3054,5.2695,5.2396,5.1887,5.1109,5.0405,4.9628,4.8596,4.806,4.6903,4.492,4.4704,4.3526,4.1297,4.0327,3.8588,3.6062,3.6111,3.4893,3.2597,3.3086,3.2736,3.169,3.169,3.3035,3.5429,3.6926,0.0,4.0008,3.9589,3.9738,4.0157,3.9619,3.9373,3.9463,4.0038,3.9888,3.9373,3.9373,3.9373,3.9373,3.9373,3.9373,3.9373,3.9373,3.9373,3.9373,3.9373,3.9373,3.9373,3.9373,3.9373,3.9313,3.9074,3.908,3.908,3.908,3.8764,3.8299,3.761,0.0,0.0,0.0,0.0,0.0,0.0,0.0,0.0,0.0,0.0,2.9915,0.0,0.0,3.1012,3.1191,3.2287,3.3901,0.0,0.0,0.0,0.0,3.9918,0.0,0.0,0.0,3.9373,3.9373,3.9373,3.9373,3.9373,3.9373,3.9373,3.9373,3.9373,3.9373,3.9373,3.9373,3.9373,3.9373,3.9373,3.9373,3.9403,3.9523,3.9529,3.9643,4.6457,4.6214,4.6093,4.6447,4.7521,4.8895,5.0541,5.2217,5.3025,5.2306,5.2157,5.2037,5.1678,5.1678,5.1558,5.1259,5.0584,5.0076,4.9793,4.8835,4.7896,4.6962,4.5953,4.4731,4.3251,4.2332,4.0294,3.7028,3.7258,3.5859,3.2916,3.2938,3.2647,3.2049,3.2766,3.3963,0.0,0.0,0.0,3.9409,3.9768,3.9918,3.9918,4.0307,4.0217,4.0008,4.0666,4.0487,3.9918,3.9918,3.9709,3.9373,3.9373,3.9373,3.9373,3.9373,3.9373,3.9373,3.9373,3.9373,3.9373,3.9373,3.9373,3.9373,3.9373,3.9373,3.9373,3.9373,3.9373,3.902,3.7644,3.5629,0.0,0.0,0.0,0.0,0.0,0.0,2.9847,0.0,0.0,0.0,0.0,0.0,0.0,0.0,0.0,3.3463,3.5798,0.0,3.7195,0.0,0.0,0.0,0.0,0.0,0.0,4.0095,3.9595,3.9631,4.006,3.9625,3.9373,3.9373,3.9373,3.9373,3.9373,3.9373,3.9373,3.9373,3.9373,3.9619,3.9918,3.9918,3.9918,4.0064,4.8635,4.8091,4.7855,4.9231,5.0095,5.099,5.2037,5.3892,5.4581,5.2845,5.1588,5.0764,5.0614,5.0943,5.1229,5.1229,5.0584,5.0196,5.0196,4.9015,4.8297,4.8297,4.6696,4.5533,4.4982,4.4226,4.199,3.8309,3.851,3.6981,3.3846,3.3208,3.2946,0.0,0.0,0.0,0.0,0.0,3.8721,3.932,4.0247,4.0307,3.9948,4.0995,4.0965,4.0516,4.1294,4.1175,4.0636,4.0756,4.0187,3.9373,3.9373,3.9373,3.9373,3.9373,3.9373,3.9373,3.9373,3.9373,3.9373,3.9373,3.9373,3.9373,3.9373,3.9373,3.9373,3.9373,3.9373,3.902,3.7644,3.6237,0.0,0.0,0.0,0.0,0.0,0.0,0.0,0.0,0.0,0.0,3.0801,0.0,0.0,0.0,0.0,3.3103,3.4975,3.5717,3.6877,0.0,0.0,3.9361,4.0203,0.0,4.0025,4.069,3.999,4.006,4.069,3.9809,3.9373,3.9373,3.9373,3.9373,3.9373,3.9373,3.9373,3.9373,3.9373,3.9828,4.0397,4.0397,4.0487,4.0628,4.9301,4.9824,4.9965,4.9418,5.0797,5.2067,5.2187,5.3892,5.491,5.4132,5.3354,5.2665,5.2067,5.1528,5.1229,5.1229,5.0584,5.0196,5.0196,4.9015,4.8297,4.8297,4.7551,4.6808,4.6152,4.5466,4.3796,0.0,0.0,3.7938,0.0,3.462,0.0,0.0,0.0,0.0,0.0,3.8302,3.9768,4.1991,4.1512,4.1265,4.1205,4.1324,4.0965,4.0576,4.1871,4.1901,4.1422,4.2021,4.0935,3.9373,3.9373,3.9373,3.9373,3.9373,3.9373,3.9373,3.9373,3.9373,3.9373,3.9373,3.9373,3.9373,3.9373,3.9373,3.9373,3.9373,3.9373,3.902,3.7644,3.8232,3.824,0.0,0.0,0.0,0.0,0.0,3.5272,3.4416,0.0,0.0,3.3031,3.2986,0.0,0.0,3.2173,3.2122,3.3608,3.4339,3.6114,3.9299,0.0,3.8224,3.9545,4.0238,4.0622,4.069,4.0622,4.0622,4.069,3.9809,3.9373,3.9373,3.9373,3.9373,3.9373,3.9373,3.9373,3.9373,3.9373,3.9828,4.0397,4.0397,4.0786,4.1302,5.1871,5.1471,5.1383,5.2261,5.2296,5.2606,5.3803,5.467,5.497,5.4311,5.3623,5.2935,5.2276,5.1618,5.1229,5.1229,5.0913,5.0794,5.0794,4.9613,4.891,4.891,4.7878,4.7189,4.692,4.6262,4.4616,0.0,0.0,0.0,0.0,0.0,0.0,0.0,0.0,3.7404,3.8482,3.9679,4.0823,4.1811,4.1961,4.1782,4.1474,4.2252,4.2132,4.1722,4.2611,4.2521,4.2051,4.2321,4.1602,4.0606,4.0606,4.0606,4.0516,4.0127,4.0008,3.9918,3.9493,3.9373,3.9373,3.9373,3.9373,3.9373,3.9373,3.9373,3.9373,3.9373,3.9844,3.9843,3.8797,3.8815,3.8762,0.0,0.0,0.0,0.0,0.0,0.0,3.6514,0.0,3.481,0.0,3.3934,0.0,0.0,0.0,3.3518,3.4075,3.5473,0.0,3.895,0.0,4.056,4.165,4.1969,4.2129,4.2129,4.1182,4.069,4.069,3.9809,3.9373,3.9373,3.9373,3.9373,3.9373,3.9373,3.9373,3.9373,3.9373,4.0068,4.0995,4.0995,4.1414,4.2021,5.373,5.3177,5.3131,5.4457,5.3972,5.3773,5.4999,5.5179,5.497,5.4311,5.3623,5.2935,5.2276,5.1618,5.1229,5.1229,5.1229,5.1139,5.0913,4.9883,4.9209,4.903,4.7908,0.0,4.7309,4.6651,4.5304,4.3279,4.1713,0.0,0.0,0.0,0.0,0.0,3.8362,3.92,3.9685,4.1093,4.1773,4.1983,4.2462,4.2252,4.1841,4.2871,4.294,4.25,4.309,4.303,4.2641,4.2641,4.2342,4.1893,4.1504,4.1422,4.1302,4.0606,4.0581,4.0583,3.9661,3.9589,3.9737,3.9445,3.9373,3.9373,3.9373,3.9373,3.9481,3.9737,4.0274,4.0588,4.0235,3.968,3.9375,3.9733,0.0,0.0,0.0,3.814,0.0,3.7978,3.6432,3.5532,3.6001,3.5043,0.0,0.0,0.0,0.0,0.0,0.0,0.0,0.0,0.0,0.0,4.275,4.2975,4.294,4.2673,4.1341,4.069,4.069,3.999,3.9798,3.9978,3.9798,3.9828,3.9978,3.9798,3.9828,4.0008,4.0008,4.0696,4.1722,4.1722,4.2141,4.2641,5.4252,5.5019,5.5407,5.523,5.5739,5.5927,5.5299,5.5179,5.497,5.4311,5.3623,5.2935,5.2276,5.1618,5.1229,5.1229,5.1229,5.0913,5.0255,4.9643,4.903,0.0,0.0,4.7309,4.7309,4.6651,4.5963,4.5244,0.0,0.0,4.0337,0.0,3.905,4.0337,4.0367,4.1085,4.2351,4.2381,4.2731,4.326,4.329,4.294,4.247,4.309,4.294,4.25,4.309,4.329,4.329,4.329,4.326,4.305,4.1803,4.1422,4.1302,4.0606,4.1024,4.1375,3.9841,4.0025,4.0481,3.9625,3.9373,3.9373,3.9373,3.9373,3.9631,4.0485,4.069,4.0961,4.1788,4.1264,4.0659,4.069,0.0,0.0,0.0,0.0,0.0,3.8482,3.7285,3.6746,3.731,3.6836,0.0,0.0,0.0,0.0,0.0,0.0,0.0,4.0832,4.1724,0.0,4.1917,4.2685,4.2639,4.1709,4.1031,4.069,4.0687,4.0474,4.0756,4.1324,4.0666,4.0756,4.1294,4.0666,4.0756,4.1392,4.1392,4.1811,4.2381,4.2381,4.2761,4.329,5.4877,5.5148,5.526,5.52,5.5359,5.5448,5.5209,5.5179,5.5119,5.491,5.3892,5.3084,5.2905,5.1887,5.1229,0.0,5.1229,5.093,0.0,4.9643,4.903,4.8327,4.7668,4.7309,4.7309,4.71,4.6441,4.5304,0.0,0.0,0.0,4.0187,4.0247,4.1085,4.1572,4.2021,4.244,4.2851,4.315,4.329,4.329,4.317,4.303,4.323,4.317,4.306,4.323,4.329,4.329,4.329,4.329,4.323,4.2851,4.2701,4.2608,4.2108,4.2171,4.2213,4.1375,4.1363,4.1495,4.1262,4.1162,4.1162,4.1162,4.069,4.0205,3.9884,4.0758,4.1462,4.1164,4.1853,4.2238,4.1482,4.1524,0.0,0.0,0.0,4.0337,3.923,3.8721,3.8362,3.8093,3.8332,0.0,0.0,0.0,0.0,0.0,0.0,0.0,0.0,4.3716,0.0,4.5049,4.4852,4.3974,4.243,4.1744,4.1331,4.117,4.1115,4.1175,4.1422,4.1145,4.1175,4.1354,4.1145,4.1205,4.1422,4.1422,4.1811,4.241,4.241,4.2761,4.329,5.5179,5.5388,5.5478,5.5239,5.5388,5.5478,5.5239,5.5179,5.5089,5.485,5.3862,5.3084,5.2845,5.1858,0.0,5.1229,5.1229,5.093,5.0226,4.9643,4.903,4.8327,4.7668,4.7309,4.7309,4.7309,0.0,4.6052,4.5125,4.4047,4.2821,4.1923,4.1863,4.2491,4.2641,4.2731,4.2761,4.311,4.329,4.329,4.329,4.3439,4.3648,4.3379,4.3439,4.3618,4.3379,4.329,4.329,4.329,4.329,4.3369,4.3732,4.3667,4.3358,4.2854,4.2758,4.2676,4.2139,4.2237,4.2426,4.2109,4.1981,4.1981,4.1981,4.156,4.1028,4.0481,4.1494,4.2332,4.1756,4.2552,4.3154,4.2777,4.2561,4.2271,4.1868,0.0,0.0,0.0,0.0,0.0,0.0,3.9801,3.9739,0.0,0.0,0.0,0.0,0.0,0.0,4.3165,4.5985,0.0,4.6946,4.6253,4.5179,4.3682,4.2603,4.1985,4.1782,4.1782,4.1893,4.2102,4.1863,4.1893,4.2102,4.1901,4.1893,4.2102,4.2102,4.2372,4.2731,4.2731,4.3,4.329,5.5229,5.5688,5.5897,5.5299,5.5688,5.5897,5.5299,5.5149,5.491,5.4281,5.3563,5.2875,5.2276,5.1618,5.1229,5.1229,0.0,0.0,5.0226,4.9643,4.903,4.8327,4.7668,4.7309,4.7309,4.7309,4.7309,4.7309,4.5992,4.5364,4.5334,4.4037,4.3738,4.4287,4.3678,4.3409,4.3349,4.3409,4.3439,4.3439,4.3439,4.3798,4.4317,4.3678,4.3798,4.4227,4.3589,4.3319,4.329,4.329,4.3329,4.3566,4.451,4.4347,4.3671,4.306,4.2971,4.2975,4.2334,4.2769,4.3199,4.2395,4.2173,4.2141,4.2077,4.2109,4.2045,4.2013,4.2645,4.3229,4.3292,4.3323,4.3553,4.4342,4.3165,4.259,4.3866,0.0,0.0,0.0,0.0,0.0,4.1147,4.1305,4.1788,0.0,0.0,0.0,0.0,0.0,4.3875,4.6517,4.8142,4.8545,4.7638,4.6946,4.6127,4.5186,4.3682,4.2836,4.2587,4.2587,4.2839,4.326,4.2701,4.2761,4.326,4.2671,4.2791,4.329,4.329,4.329,4.329,4.329,4.329,4.329,0.0,0.0,5.5388,5.5209,5.5329,5.5359,5.5209,5.476,5.4371,5.4221,5.3174,5.2366,5.2217,5.1618,5.1229,5.1229,5.1229,5.093,5.0226,4.9643,4.903,4.8327,4.7668,4.7309,4.7309,4.7309,4.7309,4.7309,4.6471,4.6082,4.6052,4.5214,4.4646,4.4317,4.4676,4.4556,4.4107,4.4616,4.4825,4.4825,4.4825,4.4915,4.5035,4.4885,4.4616,4.4287,4.4137,4.3708,4.329,4.329,4.381,4.4472,4.4737,4.483,4.4817,4.4786,4.4398,4.3996,4.3997,4.4121,4.427,4.4035,4.4006,4.3798,4.3139,4.2986,4.28,4.2141,4.2141,4.252,4.3169,4.3323,4.3718,4.4939,4.4388,4.3589,4.3176,4.2753,0.0,0.0,4.1683,4.2395,4.2623,4.3136,4.3169,0.0,0.0,0.0,0.0,4.4304,4.5026,4.6549,4.8142,4.8545,4.7638,4.6946,4.6127,4.5186,4.4819,4.4503,4.4257,4.4257,4.3891,4.329,4.314,4.314,4.329,4.314,4.314,4.329,4.329,4.329,4.329,4.329,4.329,4.329,5.5431,5.5179,5.5179,5.5179,5.5179,5.5179,5.5179,5.488,5.4431,5.3832,5.3114,5.2426,5.1828,5.1439,5.1229,5.1229,5.1229,5.1079,5.0674,5.0062,4.9553,4.9194,4.8566,4.8057,4.7758,4.7758,4.7608,4.7309,4.695,4.677,4.6741,4.6082,4.5574,4.5244,4.5274,4.5095,4.4796,4.5155,4.5304,4.5304,4.5304,4.5484,4.5723,4.5424,4.5274,4.5185,4.4885,4.4347,4.3818,4.4234,4.4565,4.4962,4.5814,4.5968,4.5896,4.6407,4.5514,4.4464,4.4961,4.4886,4.4615,4.4615,4.4615,4.4468,4.4006,4.3919,4.3651,4.2769,4.2892,4.3229,4.329,4.3886,4.4656,4.5393,4.4354,4.3596,4.4075,4.2655,0.0,4.2393,4.349,4.4364,4.4776,4.5465,4.5596,4.4867,4.4927,0.0,4.6076,4.6505,4.7074,4.7688,4.8531,4.8767,4.8257,4.7857,4.724,4.6315,4.6315,4.5996,4.5416,4.4999,4.4737,4.4593,4.3693,4.3536,4.3966,4.3488,4.329,4.329,4.329,4.329,4.329,4.329,4.329,4.329,5.5451,5.5179,5.5179,5.5179,5.5179,5.5179,5.5179,5.5029,5.4521,5.3473,5.3084,5.2486,5.1468,5.1289,5.1229,5.1229,5.1229,5.1229,5.1229,5.0554,5.0196,5.0196,4.9613,4.906,4.8446,4.8327,4.7967,4.7309,4.7309,4.7309,4.7309,4.6741,4.6369,4.6249,4.5813,4.5544,4.5454,4.5544,4.5603,4.5603,4.5603,4.5933,4.6411,4.5813,4.5903,4.6262,4.5663,4.5128,4.477,4.5456,4.5552,4.5646,4.7137,4.7275,4.7038,4.7824,4.6605,4.5075,4.5698,4.5331,4.4818,4.4919,4.4784,4.4649,4.475,4.4682,4.4384,4.3651,4.4044,4.4375,4.3787,4.4775,4.563,4.5587,4.4068,4.3427,4.4984,0.0,4.1671,4.4236,4.5254,4.6027,4.6895,4.7631,4.8041,4.8041,4.8041,4.8041,4.8041,4.868,4.9018,4.9018,4.9018,4.9018,4.9018,4.9018,4.8608,4.7803,4.7803,4.7306,4.6384,4.5561,4.5561,4.6103,4.4289,4.4004,4.4737,4.3693,4.329,4.329,4.329,4.329,4.329,4.329,4.329,4.329,5.5651,5.5179,5.5179,5.5179,5.5179,5.5179,5.5179,5.4221,5.3623,5.4012,5.2576,5.1648,5.2007,5.1558,5.1229,5.1229,5.1229,5.1229,5.1229,5.0554,5.0196,5.0196,4.9613,4.9269,4.9179,4.8566,4.7967,4.7309,4.7309,4.7309,4.7309,4.7189,4.686,4.6309,4.68,4.6681,4.6202,4.677,4.701,4.701,4.701,4.707,4.713,4.704,4.6711,4.6279,4.6202,4.6314,4.6422,4.5882,4.6765,4.8057,4.7704,4.8094,4.863,4.8818,4.8115,4.7245,4.6756,4.6075,4.5669,4.6278,4.5529,4.4784,4.5399,4.5026,4.4559,4.4412,4.4415,4.4607,4.5211,4.545,4.5379,4.4997,4.5089,4.4671,4.3154,0.0,4.403,4.4387,4.5708,4.6903,4.7669,4.8409,4.8849,4.8849,4.8849,4.8849,4.8849,4.8951,4.9018,4.9018,4.9018,4.9018,4.9018,4.9018,4.8923,4.8798,4.8798,4.8289,4.7373,4.7239,4.6831,4.6138,4.5042,4.4662,4.4737,4.3693,4.329,4.329,4.329,4.329,4.329,4.329,4.329,4.329,5.6493,5.5651,5.5179,5.5179,5.5179,5.5179,5.5179,5.4371,5.3832,5.4162,5.2755,5.1858,5.2157,5.1618,5.1229,5.1229,5.1229,5.1229,5.1229,5.0883,5.0734,5.0734,5.0481,5.0152,4.9793,4.8805,4.8147,4.7848,4.7489,4.7309,4.7309,4.7309,4.713,4.686,4.716,4.713,4.686,4.7189,4.7309,4.7309,4.7309,4.7309,4.7309,4.7309,4.7455,4.7657,4.7657,4.7902,4.827,4.8408,4.8553,4.8728,4.8859,4.8976,4.9018,4.9018,4.8477,4.7736,4.6989,4.6549,4.638,4.6718,4.6278,4.5872,4.621,4.6007,4.5771,4.5771,4.5744,4.5798,4.622,4.6555,4.6608,4.5995,4.5131,0.0,0.0,4.3394,4.3265,4.4374,4.55,4.6346,4.6684,4.7394,4.78,4.78,4.78,4.78,4.78,4.8206,4.8409,4.8409,4.8409,4.8612,4.9018,4.8612,4.8612,4.9018,4.9018,4.8798,4.8321,4.7836,4.7671,4.7572,4.5634,4.5079,4.5452,4.3897,4.329,4.329,4.329,4.329,4.329,4.329,4.329,4.329,5.7261,5.628,5.5551,5.5229,5.5179,5.5149,5.497,5.4401,5.3982,5.3982,5.2815,5.2037,5.2187,5.1618,5.1229,5.1229,5.1229,5.1229,5.1229,5.1229,5.1229,5.1229,5.1229,5.0853,5.0196,4.9254,4.8656,4.8506,4.7997,4.7698,4.7549,4.7549,4.7459,4.7309,4.7309,4.7309,4.7309,4.7309,4.7309,4.7309,4.7309,4.7309,4.7352,4.7581,4.8157,4.8841,4.9094,4.9511,5.0057,5.0618,5.0248,4.9626,5.018,4.9864,4.9255,4.9255,4.8748,4.8037,4.7462,4.7192,4.709,4.7259,4.7056,4.6819,4.7022,4.6921,4.6786,4.6786,4.6921,4.7056,4.7056,4.7665,4.774,4.6507,0.0,0.0,0.0,4.3299,4.274,4.4626,4.5365,4.5771,4.594,4.6481,4.6786,4.6786,4.6786,4.6786,4.6786,4.7327,4.7703,4.7872,4.8041,4.8376,4.8748,4.8376,4.8443,4.9018,4.9018,4.9018,4.8987,4.8257,4.8321,4.8861,4.6486,4.585,4.6384,4.4441,4.3654,4.3645,4.3588,4.3529,4.3529,4.3529,4.3529,4.3499,5.7309,5.6943,5.6493,5.5431,5.5179,5.497,5.4371,5.3683,5.3264,5.3264,5.2127,5.1528,5.2127,5.1618,5.1229,5.1229,5.1229,5.1229,5.1229,5.1229,5.1229,5.1229,5.1229,5.0853,5.0196,5.0106,4.9793,4.9239,4.9179,4.8805,4.8207,4.8207,4.7878,4.7309,4.7309,4.7309,4.7309,4.7309,4.7309,4.7309,4.7309,4.7309,4.7409,4.8335,4.8759,4.8932,4.9931,5.0898,5.1615,5.0996,5.1358,5.193,5.132,5.0608,4.9999,4.9999,4.9492,4.8917,4.8849,4.8342,4.7973,4.868,4.78,4.6989,4.7665,4.7293,4.6786,4.6786,4.7361,4.7804,4.7804,4.8443,4.8054,4.536,0.0,0.0,4.3103,4.3675,4.466,4.5534,4.5669,4.5974,4.665,4.6752,4.6786,4.6786,4.6786,4.6786,4.6786,4.6853,4.7192,4.7872,4.8578,4.8612,4.7973,4.8612,4.8951,4.9018,4.9018,4.9018,4.9018,4.8923,4.8923,4.8923,4.7868,4.744,4.734,4.5452,4.4699,4.4648,4.4348,4.4257,4.4257,4.4257,4.4257,4.4167,5.9273,5.7645,5.6337,5.6335,5.567,5.497,5.4311,5.3623,5.3174,5.3174,5.2037,5.1468,5.2127,5.1618,5.1229,5.1229,5.1229,5.1229,5.1229,5.1229,5.1229,5.1229,5.1229,5.1109,5.0794,5.0405,5.0076,4.9883,4.9464,4.9179,4.894,4.8476,4.8147,4.7908,4.7489,4.7309,4.7309,4.7309,4.7309,4.7309,4.7309,4.7679,4.8252,4.8677,4.9584,5.0747,5.1192,5.1993,5.2871,5.2569,5.2404,5.2266,5.1961,5.1386,5.071,5.0236,4.9898,4.9593,4.912,4.8815,4.8646,4.8951,4.8578,4.824,4.8511,4.8376,4.8173,4.8173,4.8037,4.7906,4.7906,4.7767,4.7301,4.6215,0.0,4.5747,4.4639,4.4541,4.4716,4.4959,4.5026,4.5128,4.5427,4.5461,4.5461,4.5461,4.5461,4.5461,4.5461,4.6278,4.7158,4.7872,4.8612,4.8883,4.8578,4.8409,4.8545,4.9018,4.9018,4.9018,4.9018,4.9018,4.9018,4.8923,4.7998,4.7501,4.7235,4.5896,4.5256,4.5061,4.4539,4.4317,4.4317,4.4317,4.4317,4.4347,6.0538,5.8871,5.7287,5.7041,5.6146,5.5107,5.4031,5.3503,5.3025,5.2606,5.1947,5.1618,5.1858,5.1498,5.1229,5.1229,5.1229,5.1229,5.1229,5.1229,5.1229,5.1229,5.1229,5.1229,5.1229,5.0734,5.0495,5.0495,5.0092,4.9763,4.9553,4.8895,4.8596,4.8566,4.7908,4.7728,4.7908,4.7698,4.7608,4.7608,4.7399,4.7904,4.8841,4.9175,5.0365,5.1957,5.2277,5.287,5.3518,5.3518,5.3145,5.2672,5.2672,5.2164,5.142,5.0676,5.0439,5.0338,4.983,4.9695,4.9593,4.912,4.9018,4.9018,4.9018,4.9018,4.9018,4.9018,4.8612,4.8274,4.8274,4.7834,4.7394,4.7192,4.6515,4.5974,4.5737,4.506,4.4615,4.4615,4.4615,4.4615,4.4615,4.4615,4.4615,4.4615,4.4615,4.4716,4.4925,4.6109,4.7158,4.7872,4.8409,4.8781,4.9018,4.8511,4.8511,4.9018,4.9018,4.9018,4.9018,4.9018,4.9018,4.8923,4.7998,4.7668,4.7647,4.607,4.5472,4.5511,4.486,4.4496,4.4377,4.4796,4.4676,4.4407,6.0705,6.0586,5.9794,5.7434,5.645,5.5376,5.3507,5.3174,5.2695,5.1409,5.1798,5.1947,5.1289,5.1229,5.1229,5.1229,5.1229,5.1229,5.1229,5.1229,5.1229,5.1229,5.1229,5.1229,5.1229,5.1229,5.1229,5.1229,5.1229,5.0853,5.0196,4.9583,4.9329,4.9299,4.8596,4.87,4.9269,4.8566,4.8297,4.8237,4.7578,4.7904,4.8932,5.0009,5.1005,5.2029,5.311,5.3518,5.3518,5.3518,5.3518,5.3518,5.3518,5.2942,5.2164,5.1454,5.1217,5.1217,5.1185,5.1185,5.0879,4.939,4.9018,4.9018,4.9018,4.9018,4.9018,4.9018,4.9018,4.8984,4.8984,4.8984,4.8748,4.8007,4.7293,4.6549,4.5805,4.506,4.4615,4.4615,4.4615,4.4615,4.4615,4.4615,4.4615,4.4615,4.4615,4.4925,4.5669,4.6413,4.7158,4.7872,4.7906,4.8244,4.8984,4.9018,4.9018,4.9018,4.9018,4.9018,4.9018,4.9018,4.9018,4.8956,4.8032,4.8129,4.8767,4.5989,4.5374,4.6156,4.5553,4.4915,4.4496,4.5843,4.5484,4.4436,6.1043,5.9558,5.791,5.6981,5.5931,5.4606,5.2768,5.2486,5.2336,5.1947,5.1678,5.1618,5.1887,5.1498,5.1229,5.1229,5.1229,5.1229,5.1229,5.1229,5.1439,5.1887,5.1468,5.1229,5.1229,5.1229,5.1229,5.1229,5.1229,5.1109,5.0853,5.0242,4.9942,4.9912,4.9254,4.912,4.9269,4.8566,4.8297,4.8237,4.7578,4.8335,4.997,5.0281,5.1484,5.3076,5.3382,5.3518,5.3518,5.3518,5.3518,5.3518,5.3518,5.3348,5.2976,5.2198,5.1961,5.186,5.132,5.1185,5.098,4.9999,4.9763,4.9627,4.912,4.9018,4.9018,4.9018,4.8612,4.824,4.824,4.78,4.7394,4.7158,4.6921,4.6718,4.6481,4.6278,4.594,4.5432,4.5365,4.5162,4.4649,4.506,4.5162,4.4649,4.506,4.594,4.7192,4.7432,4.7902,4.8646,4.868,4.8781,4.9018,4.9018,4.9018,4.9018,4.9526,4.9763,4.9763,4.9763,4.9763,4.9763,4.9476,4.9122,4.873,4.8931,4.8307,4.7232,4.7114,4.6477,4.5783,4.613,4.6082,4.5813,6.1197,5.9711,5.8124,5.7456,5.6173,5.4691,5.313,5.2489,5.2097,5.1858,5.1678,5.1648,5.1798,5.1439,5.1229,5.1229,5.1229,5.1319,5.1588,5.1379,5.1498,5.2187,5.1558,5.1349,5.1588,5.1618,5.1468,5.1229,5.1229,5.1229,5.1199,5.0495,5.0315,5.0554,4.9942,4.9793,4.9972,4.9075,4.8686,4.864,4.8084,4.8882,5.0435,5.0855,5.2026,5.3518,5.3518,5.3518,5.3518,5.3518,5.3518,5.3518,5.3518,5.3518,5.3416,5.2909,5.2773,5.2672,5.2232,5.2131,5.1928,5.115,5.0541,4.9898,4.9187,4.9018,4.9018,4.9018,4.8646,4.8342,4.8342,4.797,4.7665,4.7665,4.7428,4.7259,4.7259,4.6989,4.6616,4.6177,4.6143,4.5974,4.5529,4.5872,4.594,4.55,4.6143,4.6989,4.7838,4.8206,4.8545,4.8984,4.9289,4.9424,4.9424,4.9729,4.9593,4.9018,4.9729,5.0101,5.0101,5.0101,5.0236,5.0475,4.9817,4.9591,4.9593,4.9375,4.8743,4.7887,4.7404,4.6667,4.5992,4.6501,4.6381,4.6052,6.1095,6.0452,5.9501,5.8302,5.6806,5.5293,5.401,5.2931,5.206,5.1379,5.1768,5.1917,5.1439,5.1289,5.1229,5.1289,5.1259,5.1468,5.2067,5.1558,5.1528,5.2247,5.1648,5.1648,5.2366,5.2217,5.1858,5.1319,5.1259,5.1259,5.1289,5.0584,5.0644,5.1289,5.0584,5.0614,5.1139,4.9883,4.9359,4.9269,4.8906,4.9358,5.0358,5.1377,5.2451,5.3382,5.3484,5.3518,5.3518,5.3518,5.3518,5.3518,5.3518,5.3518,5.3518,5.3518,5.3518,5.3518,5.3518,5.3518,5.3315,5.2503,5.1285,5.0067,4.9289,4.9052,4.9018,4.9018,4.9018,4.9018,4.9018,4.9018,4.9018,4.9018,4.8443,4.7973,4.7973,4.7428,4.6955,4.6921,4.6887,4.6853,4.6786,4.6786,4.6853,4.6989,4.7564,4.7906,4.7973,4.8646,4.9052,4.9086,4.9729,5.0135,5.0202,5.0879,5.0541,4.9221,4.9932,5.0304,5.0304,5.0304,5.0676,5.122,4.966,4.9859,5.1023,4.8413,4.7808,4.8371,4.7048,4.6149,4.5728,4.6903,4.6531,4.5633,5.9505,5.8896,5.8025,5.6855,5.6336,5.5401,5.3427,5.2925,5.2536,5.206,5.1648,5.1768,5.2665,5.1828,5.1439,5.1947,5.1498,5.1289,5.1439,5.1289,5.1738,5.2905,5.2336,5.2546,5.3743,5.2247,5.1618,5.1977,5.1468,5.1468,5.1977,5.1319,5.1349,5.1947,5.1289,5.1079,5.1169,5.0315,4.9733,4.9239,4.8621,4.8699,4.9256,5.032,5.1373,5.2348,5.3179,5.3518,5.3518,5.3518,5.3518,5.3518,5.3518,5.3518,5.3518,5.3518,5.3518,5.3518,5.3518,5.3518,5.3315,5.2503,5.2063,5.1488,5.0168,4.9424,4.9018,4.9018,4.9018,4.9018,4.9018,4.9018,4.9018,4.9018,4.8883,4.8781,4.8781,4.8612,4.8308,4.7733,4.7665,4.7428,4.6853,4.6786,4.7259,4.8443,4.8139,4.8142,4.8748,4.8917,4.9255,4.983,4.9999,5.0371,5.098,5.115,5.1016,5.0744,5.1488,5.1826,5.1826,5.1826,5.1894,5.2063,5.1697,5.1426,5.1155,5.0895,5.0594,5.0138,4.8755,4.8163,4.7988,4.7503,4.713,4.692,5.9032,5.8423,5.7701,5.7114,5.6586,5.5817,5.464,5.3569,5.2833,5.2597,5.1783,5.1703,5.2945,5.2265,5.1828,5.2187,5.1588,5.1349,5.1678,5.1379,5.1798,5.3114,5.2546,5.2665,5.3683,5.2396,5.1858,5.2187,5.1858,5.1858,5.2187,5.1858,5.1858,5.2187,5.1498,5.1229,5.1169,5.0465,4.9853,4.9284,4.9092,4.8948,4.8973,5.055,5.1414,5.2029,5.311,5.3721,5.3957,5.3619,5.3721,5.3957,5.3619,5.3518,5.3518,5.3518,5.3518,5.3518,5.3518,5.3518,5.3416,5.2976,5.257,5.1995,5.0879,5.0338,5.0067,5.0067,4.9763,4.9526,4.9526,4.9255,4.9018,4.9018,4.9018,4.9018,4.9018,4.9018,4.8849,4.8477,4.8443,4.8274,4.7902,4.7834,4.8173,4.8951,4.8646,4.8748,4.9492,4.9526,4.9864,5.0608,5.098,5.1319,5.1725,5.2131,5.23,5.23,5.23,5.23,5.23,5.23,5.2503,5.2841,5.2469,5.23,5.2301,5.2016,5.1401,5.0487,4.9259,4.8512,4.803,4.7495,4.7309,4.7309,5.8829,5.8321,5.7881,5.7881,5.7114,5.6398,5.6243,5.4473,5.3121,5.2945,5.188,5.1695,5.2922,5.2887,5.2665,5.2339,5.1827,5.1673,5.2007,5.1618,5.1887,5.2965,5.2486,5.2642,5.3634,5.26,5.2097,5.2187,5.2187,5.2187,5.2187,5.2187,5.2187,5.2187,5.1498,5.1229,5.1169,5.0584,5.0032,4.9464,4.9603,4.9281,4.8914,5.0697,5.1488,5.1776,5.2835,5.372,5.4329,5.3856,5.4025,5.4296,5.3687,5.3518,5.3518,5.3518,5.3518,5.3518,5.3518,5.3518,5.3518,5.3518,5.301,5.2334,5.1758,5.1388,5.1185,5.1185,5.071,5.027,5.027,4.9796,4.939,4.939,4.939,4.939,4.939,4.9255,4.9187,4.9187,4.9086,4.9018,4.9018,4.9018,4.9052,4.9187,4.9187,4.9492,5.0236,5.027,5.0642,5.1386,5.1995,5.2367,5.2503,5.3179,5.3518,5.3484,5.2841,5.2503,5.2503,5.2503,5.2875,5.345,5.2807,5.2875,5.3416,5.2348,5.1521,5.0779,4.9575,4.8677,4.803,4.7679,4.7452,4.7309,5.8051,5.7949,5.7881,5.7881,5.7772,5.7335,5.636,5.5134,5.4041,5.3033,5.188,5.1846,5.3602,5.4587,5.4486,5.2908,5.2695,5.2276,5.1396,5.1798,5.2157,5.2336,5.2247,5.3252,5.5579,5.2786,5.1618,5.2187,5.2187,5.2187,5.2187,5.2187,5.2187,5.2187,5.1498,5.1229,5.1199,5.1109,5.0674,5.0062,4.9554,4.8982,4.8451,4.9017,4.9813,5.0741,5.174,5.2764,5.3721,5.4262,5.4093,5.3619,5.3551,5.3518,5.3518,5.3518,5.3518,5.3518,5.3518,5.3518,5.3518,5.3518,5.3416,5.3315,5.3213,5.2164,5.1185,5.1185,5.115,5.1082,5.1082,5.098,5.0913,5.0913,5.0913,5.0913,5.0913,5.0338,4.9932,4.9932,4.939,4.9018,4.9018,4.9018,4.9255,4.9898,4.9932,5.027,5.1014,5.1082,5.1386,5.2131,5.2266,5.2638,5.3348,5.345,5.3518,5.3518,5.3382,5.3348,5.3348,5.3348,5.3416,5.3484,5.3382,5.3416,5.3416,5.2348,5.2348,5.287,5.093,5.0627,5.108,4.9256,4.8072,4.7309,5.7881,5.7881,5.7881,5.7881,5.7881,5.7701,5.7222,5.5691,5.4421,5.3913,5.2305,5.2002,5.4065,5.5288,5.5278,5.3592,5.3117,5.2709,5.22,5.2811,5.3177,5.3161,5.4544,5.5393,5.5426,5.5082,5.4861,5.4799,5.3017,5.27,5.3711,5.3314,5.3161,5.3131,5.2459,5.1819,5.1229,5.1229,5.0794,5.0166,4.9912,4.9404,4.8998,5.0372,5.093,5.1135,5.2338,5.3648,5.4735,5.4634,5.4668,5.4668,5.4228,5.3822,5.3518,5.3518,5.3518,5.3518,5.3518,5.3518,5.3518,5.3518,5.3518,5.3518,5.3518,5.2976,5.2503,5.2503,5.2131,5.1826,5.1826,5.1488,5.1185,5.1185,5.1185,5.1185,5.1185,5.0913,5.071,5.071,5.0067,4.9796,5.0202,5.0236,5.0371,5.071,5.071,5.1048,5.1792,5.1826,5.2164,5.2942,5.2976,5.3145,5.3518,5.3518,5.3518,5.3518,5.3518,5.3518,5.3518,5.3518,5.3518,5.3518,5.3518,5.3518,5.345,5.2973,5.2697,5.2522,5.1594,5.1155,5.0892,4.9376,4.8512,4.8072]}]]